<?xml version="1.0" encoding="UTF-8" standalone="no" ?>
<gpx xmlns="http://www.topografix.com/GPX/1/1" xmlns:xsi="http://www.w3.org/2001/XMLSchema-instance" xsi:schemaLocation="http://www.topografix.com/GPX/1/1 http://www.topografix.com/GPX/1/1/gpx.xsd" version="1.1" creator="VisuGPX - https://www.visugpx.com">
  <metadata>
    <name>Sortie du 18/06/17</name>
    <desc><![CDATA[Sortie au départ de creuzier-le-vieux pas mal de grimpette,point d eau cimetière de creuzier-le-vieux le neuf et celui du vernet]]></desc>
  </metadata>
  <trk>
    <name><![CDATA[2017-06-18 08:58]]></name>
    <desc><![CDATA[<p>Heure de départ: 06/18/2017 08:59<br/>Heure d'arrivée: 06/18/2017 13:00<br/>Distance: 37,5 km (04:00)<br/>Temps déplacement: 03:46<br/>Vitesse moyenne: 9,35 km/h<br/>Vitesse moyenne mouv.: 9,94 km/h<br/>Vitesse Max.: 16,95 km/h<br/>Altitude minimale: 255 m<br/>Altitude maximale: 495 m<br/>Vitesse de montée: 769,4 m/h<br/>Vitesse de descente: -879,8 m/h<br/>Gain d'altitude: 1562 m<br/>Perte d'altitude: -1549 m<br/>Temps de montée: 02:01<br/>Temps de descente: 01:45<br/></p><hr align="center" width="480" style="height: 2px; width: 517px"/>]]></desc>
    <trkseg>
      <trkpt lat="46.1704" lon="3.43113">
        <ele>317.55</ele>
        <time>2017-06-18T06:59:13Z</time>
      </trkpt>
      <trkpt lat="46.17033" lon="3.43088">
        <ele>321.9</ele>
        <time>2017-06-18T07:00:32Z</time>
      </trkpt>
      <trkpt lat="46.17024" lon="3.43065">
        <ele>325.56</ele>
        <time>2017-06-18T07:00:46Z</time>
      </trkpt>
      <trkpt lat="46.17019" lon="3.4304">
        <ele>326.55</ele>
        <time>2017-06-18T07:00:59Z</time>
      </trkpt>
      <trkpt lat="46.17017" lon="3.43012">
        <ele>336.35</ele>
        <time>2017-06-18T07:01:13Z</time>
      </trkpt>
      <trkpt lat="46.17009" lon="3.42987">
        <ele>341.22</ele>
        <time>2017-06-18T07:01:27Z</time>
      </trkpt>
      <trkpt lat="46.17006" lon="3.42958">
        <ele>341.55</ele>
        <time>2017-06-18T07:01:37Z</time>
      </trkpt>
      <trkpt lat="46.17" lon="3.4293">
        <ele>340.56</ele>
        <time>2017-06-18T07:01:49Z</time>
      </trkpt>
      <trkpt lat="46.1701" lon="3.42906">
        <ele>327.16</ele>
        <time>2017-06-18T07:01:55Z</time>
      </trkpt>
      <trkpt lat="46.17025" lon="3.42889">
        <ele>321.89</ele>
        <time>2017-06-18T07:02:03Z</time>
      </trkpt>
      <trkpt lat="46.17042" lon="3.42882">
        <ele>320.56</ele>
        <time>2017-06-18T07:02:09Z</time>
      </trkpt>
      <trkpt lat="46.17061" lon="3.42879">
        <ele>322.74</ele>
        <time>2017-06-18T07:02:16Z</time>
      </trkpt>
      <trkpt lat="46.1708" lon="3.42877">
        <ele>320.31</ele>
        <time>2017-06-18T07:02:22Z</time>
      </trkpt>
      <trkpt lat="46.17101" lon="3.42875">
        <ele>319.08</ele>
        <time>2017-06-18T07:02:29Z</time>
      </trkpt>
      <trkpt lat="46.17119" lon="3.42877">
        <ele>314.92</ele>
        <time>2017-06-18T07:02:36Z</time>
      </trkpt>
      <trkpt lat="46.17139" lon="3.42884">
        <ele>314.34</ele>
        <time>2017-06-18T07:02:43Z</time>
      </trkpt>
      <trkpt lat="46.17158" lon="3.42889">
        <ele>314.53</ele>
        <time>2017-06-18T07:02:50Z</time>
      </trkpt>
      <trkpt lat="46.17178" lon="3.42884">
        <ele>318.3</ele>
        <time>2017-06-18T07:03:01Z</time>
      </trkpt>
      <trkpt lat="46.17196" lon="3.42884">
        <ele>318.26</ele>
        <time>2017-06-18T07:03:06Z</time>
      </trkpt>
      <trkpt lat="46.17215" lon="3.42884">
        <ele>319.53</ele>
        <time>2017-06-18T07:03:13Z</time>
      </trkpt>
      <trkpt lat="46.17234" lon="3.42884">
        <ele>319.47</ele>
        <time>2017-06-18T07:03:19Z</time>
      </trkpt>
      <trkpt lat="46.17253" lon="3.42887">
        <ele>320.46</ele>
        <time>2017-06-18T07:03:26Z</time>
      </trkpt>
      <trkpt lat="46.17271" lon="3.42892">
        <ele>321.53</ele>
        <time>2017-06-18T07:03:33Z</time>
      </trkpt>
      <trkpt lat="46.1729" lon="3.429">
        <ele>322.16</ele>
        <time>2017-06-18T07:03:41Z</time>
      </trkpt>
      <trkpt lat="46.17308" lon="3.4291">
        <ele>322.49</ele>
        <time>2017-06-18T07:03:49Z</time>
      </trkpt>
      <trkpt lat="46.17327" lon="3.42916">
        <ele>324.25</ele>
        <time>2017-06-18T07:03:56Z</time>
      </trkpt>
      <trkpt lat="46.17345" lon="3.4292">
        <ele>323.52</ele>
        <time>2017-06-18T07:04:02Z</time>
      </trkpt>
      <trkpt lat="46.17365" lon="3.42922">
        <ele>317.79</ele>
        <time>2017-06-18T07:04:07Z</time>
      </trkpt>
      <trkpt lat="46.17383" lon="3.42932">
        <ele>312.58</ele>
        <time>2017-06-18T07:04:13Z</time>
      </trkpt>
      <trkpt lat="46.17398" lon="3.42947">
        <ele>312.55</ele>
        <time>2017-06-18T07:04:20Z</time>
      </trkpt>
      <trkpt lat="46.17416" lon="3.42962">
        <ele>313.64</ele>
        <time>2017-06-18T07:04:28Z</time>
      </trkpt>
      <trkpt lat="46.17433" lon="3.42974">
        <ele>315.25</ele>
        <time>2017-06-18T07:04:35Z</time>
      </trkpt>
      <trkpt lat="46.17451" lon="3.42987">
        <ele>317.44</ele>
        <time>2017-06-18T07:04:43Z</time>
      </trkpt>
      <trkpt lat="46.17469" lon="3.43002">
        <ele>320.44</ele>
        <time>2017-06-18T07:04:51Z</time>
      </trkpt>
      <trkpt lat="46.17486" lon="3.43019">
        <ele>320.55</ele>
        <time>2017-06-18T07:04:59Z</time>
      </trkpt>
      <trkpt lat="46.17503" lon="3.43027">
        <ele>326.13</ele>
        <time>2017-06-18T07:05:07Z</time>
      </trkpt>
      <trkpt lat="46.17522" lon="3.43036">
        <ele>330.46</ele>
        <time>2017-06-18T07:05:15Z</time>
      </trkpt>
      <trkpt lat="46.1754" lon="3.4305">
        <ele>333.44</ele>
        <time>2017-06-18T07:05:23Z</time>
      </trkpt>
      <trkpt lat="46.17555" lon="3.43071">
        <ele>335.25</ele>
        <time>2017-06-18T07:05:30Z</time>
      </trkpt>
      <trkpt lat="46.17569" lon="3.43094">
        <ele>335.73</ele>
        <time>2017-06-18T07:05:37Z</time>
      </trkpt>
      <trkpt lat="46.17583" lon="3.4311">
        <ele>337.53</ele>
        <time>2017-06-18T07:05:44Z</time>
      </trkpt>
      <trkpt lat="46.17601" lon="3.43127">
        <ele>336.65</ele>
        <time>2017-06-18T07:05:51Z</time>
      </trkpt>
      <trkpt lat="46.17619" lon="3.43141">
        <ele>336.57</ele>
        <time>2017-06-18T07:05:58Z</time>
      </trkpt>
      <trkpt lat="46.17636" lon="3.43156">
        <ele>336.55</ele>
        <time>2017-06-18T07:06:05Z</time>
      </trkpt>
      <trkpt lat="46.17656" lon="3.43167">
        <ele>337.55</ele>
        <time>2017-06-18T07:06:12Z</time>
      </trkpt>
      <trkpt lat="46.17668" lon="3.43189">
        <ele>339.46</ele>
        <time>2017-06-18T07:06:19Z</time>
      </trkpt>
      <trkpt lat="46.17685" lon="3.43176">
        <ele>338.44</ele>
        <time>2017-06-18T07:06:28Z</time>
      </trkpt>
      <trkpt lat="46.17693" lon="3.43153">
        <ele>339.53</ele>
        <time>2017-06-18T07:06:34Z</time>
      </trkpt>
      <trkpt lat="46.17703" lon="3.43126">
        <ele>341.32</ele>
        <time>2017-06-18T07:06:41Z</time>
      </trkpt>
      <trkpt lat="46.17713" lon="3.43101">
        <ele>340.56</ele>
        <time>2017-06-18T07:06:47Z</time>
      </trkpt>
      <trkpt lat="46.17723" lon="3.43078">
        <ele>341.57</ele>
        <time>2017-06-18T07:06:53Z</time>
      </trkpt>
      <trkpt lat="46.17734" lon="3.43054">
        <ele>342.53</ele>
        <time>2017-06-18T07:06:59Z</time>
      </trkpt>
      <trkpt lat="46.1774" lon="3.43028">
        <ele>345.45</ele>
        <time>2017-06-18T07:07:06Z</time>
      </trkpt>
      <trkpt lat="46.17722" lon="3.43012">
        <ele>345.53</ele>
        <time>2017-06-18T07:07:12Z</time>
      </trkpt>
      <trkpt lat="46.17706" lon="3.42993">
        <ele>346.61</ele>
        <time>2017-06-18T07:07:18Z</time>
      </trkpt>
      <trkpt lat="46.17692" lon="3.42976">
        <ele>346.55</ele>
        <time>2017-06-18T07:07:23Z</time>
      </trkpt>
      <trkpt lat="46.17677" lon="3.42956">
        <ele>347.46</ele>
        <time>2017-06-18T07:07:29Z</time>
      </trkpt>
      <trkpt lat="46.17662" lon="3.42937">
        <ele>345.37</ele>
        <time>2017-06-18T07:07:35Z</time>
      </trkpt>
      <trkpt lat="46.17646" lon="3.4292">
        <ele>342.98</ele>
        <time>2017-06-18T07:07:41Z</time>
      </trkpt>
      <trkpt lat="46.17629" lon="3.42908">
        <ele>341.85</ele>
        <time>2017-06-18T07:07:47Z</time>
      </trkpt>
      <trkpt lat="46.17609" lon="3.429">
        <ele>338.53</ele>
        <time>2017-06-18T07:07:52Z</time>
      </trkpt>
      <trkpt lat="46.1759" lon="3.42893">
        <ele>337.47</ele>
        <time>2017-06-18T07:07:57Z</time>
      </trkpt>
      <trkpt lat="46.17571" lon="3.42882">
        <ele>336.55</ele>
        <time>2017-06-18T07:08:03Z</time>
      </trkpt>
      <trkpt lat="46.17555" lon="3.42867">
        <ele>337.25</ele>
        <time>2017-06-18T07:08:09Z</time>
      </trkpt>
      <trkpt lat="46.17538" lon="3.42851">
        <ele>337.85</ele>
        <time>2017-06-18T07:08:15Z</time>
      </trkpt>
      <trkpt lat="46.1752" lon="3.42836">
        <ele>336.62</ele>
        <time>2017-06-18T07:08:22Z</time>
      </trkpt>
      <trkpt lat="46.17501" lon="3.42821">
        <ele>340.51</ele>
        <time>2017-06-18T07:08:29Z</time>
      </trkpt>
      <trkpt lat="46.17485" lon="3.42807">
        <ele>339.56</ele>
        <time>2017-06-18T07:08:35Z</time>
      </trkpt>
      <trkpt lat="46.17467" lon="3.42789">
        <ele>338.85</ele>
        <time>2017-06-18T07:08:41Z</time>
      </trkpt>
      <trkpt lat="46.17452" lon="3.42772">
        <ele>337.86</ele>
        <time>2017-06-18T07:08:47Z</time>
      </trkpt>
      <trkpt lat="46.17435" lon="3.42759">
        <ele>341.53</ele>
        <time>2017-06-18T07:08:53Z</time>
      </trkpt>
      <trkpt lat="46.17418" lon="3.42745">
        <ele>339.94</ele>
        <time>2017-06-18T07:08:59Z</time>
      </trkpt>
      <trkpt lat="46.17401" lon="3.42733">
        <ele>340.55</ele>
        <time>2017-06-18T07:09:05Z</time>
      </trkpt>
      <trkpt lat="46.17385" lon="3.4272">
        <ele>341.55</ele>
        <time>2017-06-18T07:09:11Z</time>
      </trkpt>
      <trkpt lat="46.17369" lon="3.42705">
        <ele>341.53</ele>
        <time>2017-06-18T07:09:17Z</time>
      </trkpt>
      <trkpt lat="46.17354" lon="3.4269">
        <ele>339.64</ele>
        <time>2017-06-18T07:09:23Z</time>
      </trkpt>
      <trkpt lat="46.17337" lon="3.42673">
        <ele>335.95</ele>
        <time>2017-06-18T07:09:29Z</time>
      </trkpt>
      <trkpt lat="46.17322" lon="3.42658">
        <ele>334.58</ele>
        <time>2017-06-18T07:09:35Z</time>
      </trkpt>
      <trkpt lat="46.17306" lon="3.42642">
        <ele>334.55</ele>
        <time>2017-06-18T07:09:41Z</time>
      </trkpt>
      <trkpt lat="46.17289" lon="3.42627">
        <ele>332.37</ele>
        <time>2017-06-18T07:09:47Z</time>
      </trkpt>
      <trkpt lat="46.17272" lon="3.42612">
        <ele>331.28</ele>
        <time>2017-06-18T07:09:53Z</time>
      </trkpt>
      <trkpt lat="46.17255" lon="3.426">
        <ele>328.86</ele>
        <time>2017-06-18T07:09:59Z</time>
      </trkpt>
      <trkpt lat="46.17237" lon="3.42588">
        <ele>328.55</ele>
        <time>2017-06-18T07:10:05Z</time>
      </trkpt>
      <trkpt lat="46.17219" lon="3.42575">
        <ele>329.25</ele>
        <time>2017-06-18T07:10:12Z</time>
      </trkpt>
      <trkpt lat="46.17204" lon="3.4256">
        <ele>329.06</ele>
        <time>2017-06-18T07:10:18Z</time>
      </trkpt>
      <trkpt lat="46.17188" lon="3.42543">
        <ele>327.6</ele>
        <time>2017-06-18T07:10:25Z</time>
      </trkpt>
      <trkpt lat="46.17169" lon="3.42529">
        <ele>325.56</ele>
        <time>2017-06-18T07:10:31Z</time>
      </trkpt>
      <trkpt lat="46.17151" lon="3.42516">
        <ele>324.56</ele>
        <time>2017-06-18T07:10:37Z</time>
      </trkpt>
      <trkpt lat="46.17133" lon="3.42505">
        <ele>324.55</ele>
        <time>2017-06-18T07:10:43Z</time>
      </trkpt>
      <trkpt lat="46.17115" lon="3.42489">
        <ele>323.58</ele>
        <time>2017-06-18T07:10:49Z</time>
      </trkpt>
      <trkpt lat="46.17099" lon="3.42475">
        <ele>321.85</ele>
        <time>2017-06-18T07:10:55Z</time>
      </trkpt>
      <trkpt lat="46.17083" lon="3.42459">
        <ele>320.56</ele>
        <time>2017-06-18T07:11:01Z</time>
      </trkpt>
      <trkpt lat="46.17069" lon="3.42442">
        <ele>317.86</ele>
        <time>2017-06-18T07:11:07Z</time>
      </trkpt>
      <trkpt lat="46.17053" lon="3.42428">
        <ele>318.34</ele>
        <time>2017-06-18T07:11:13Z</time>
      </trkpt>
      <trkpt lat="46.17038" lon="3.42414">
        <ele>319.25</ele>
        <time>2017-06-18T07:11:19Z</time>
      </trkpt>
      <trkpt lat="46.17023" lon="3.42399">
        <ele>317.86</ele>
        <time>2017-06-18T07:11:25Z</time>
      </trkpt>
      <trkpt lat="46.17009" lon="3.42378">
        <ele>317.55</ele>
        <time>2017-06-18T07:11:31Z</time>
      </trkpt>
      <trkpt lat="46.16994" lon="3.42359">
        <ele>317.53</ele>
        <time>2017-06-18T07:11:38Z</time>
      </trkpt>
      <trkpt lat="46.1698" lon="3.42342">
        <ele>313.74</ele>
        <time>2017-06-18T07:11:44Z</time>
      </trkpt>
      <trkpt lat="46.16966" lon="3.42323">
        <ele>311.65</ele>
        <time>2017-06-18T07:11:51Z</time>
      </trkpt>
      <trkpt lat="46.16952" lon="3.42302">
        <ele>304.67</ele>
        <time>2017-06-18T07:12:02Z</time>
      </trkpt>
      <trkpt lat="46.16931" lon="3.42289">
        <ele>301.22</ele>
        <time>2017-06-18T07:12:09Z</time>
      </trkpt>
      <trkpt lat="46.16917" lon="3.4227">
        <ele>296.77</ele>
        <time>2017-06-18T07:12:16Z</time>
      </trkpt>
      <trkpt lat="46.16901" lon="3.4225">
        <ele>292.88</ele>
        <time>2017-06-18T07:12:23Z</time>
      </trkpt>
      <trkpt lat="46.16883" lon="3.42234">
        <ele>286.62</ele>
        <time>2017-06-18T07:12:29Z</time>
      </trkpt>
      <trkpt lat="46.16868" lon="3.42216">
        <ele>284.69</ele>
        <time>2017-06-18T07:12:36Z</time>
      </trkpt>
      <trkpt lat="46.16852" lon="3.42199">
        <ele>285.77</ele>
        <time>2017-06-18T07:12:44Z</time>
      </trkpt>
      <trkpt lat="46.16837" lon="3.42184">
        <ele>280.36</ele>
        <time>2017-06-18T07:12:50Z</time>
      </trkpt>
      <trkpt lat="46.16823" lon="3.42166">
        <ele>272.66</ele>
        <time>2017-06-18T07:12:56Z</time>
      </trkpt>
      <trkpt lat="46.16806" lon="3.42156">
        <ele>272.74</ele>
        <time>2017-06-18T07:13:03Z</time>
      </trkpt>
      <trkpt lat="46.16813" lon="3.4213">
        <ele>272.63</ele>
        <time>2017-06-18T07:13:10Z</time>
      </trkpt>
      <trkpt lat="46.16827" lon="3.42113">
        <ele>270.64</ele>
        <time>2017-06-18T07:13:16Z</time>
      </trkpt>
      <trkpt lat="46.16839" lon="3.42093">
        <ele>271.25</ele>
        <time>2017-06-18T07:13:23Z</time>
      </trkpt>
      <trkpt lat="46.16849" lon="3.42071">
        <ele>271.37</ele>
        <time>2017-06-18T07:13:30Z</time>
      </trkpt>
      <trkpt lat="46.16861" lon="3.42046">
        <ele>269.58</ele>
        <time>2017-06-18T07:13:37Z</time>
      </trkpt>
      <trkpt lat="46.1687" lon="3.4202">
        <ele>266.84</ele>
        <time>2017-06-18T07:13:44Z</time>
      </trkpt>
      <trkpt lat="46.1688" lon="3.41998">
        <ele>270.43</ele>
        <time>2017-06-18T07:13:51Z</time>
      </trkpt>
      <trkpt lat="46.16891" lon="3.41975">
        <ele>269.58</ele>
        <time>2017-06-18T07:13:57Z</time>
      </trkpt>
      <trkpt lat="46.16904" lon="3.41955">
        <ele>266.56</ele>
        <time>2017-06-18T07:14:03Z</time>
      </trkpt>
      <trkpt lat="46.16918" lon="3.41935">
        <ele>263.65</ele>
        <time>2017-06-18T07:14:08Z</time>
      </trkpt>
      <trkpt lat="46.16933" lon="3.41913">
        <ele>262.55</ele>
        <time>2017-06-18T07:14:14Z</time>
      </trkpt>
      <trkpt lat="46.16946" lon="3.41896">
        <ele>261.64</ele>
        <time>2017-06-18T07:14:20Z</time>
      </trkpt>
      <trkpt lat="46.16961" lon="3.41874">
        <ele>260.86</ele>
        <time>2017-06-18T07:14:26Z</time>
      </trkpt>
      <trkpt lat="46.16973" lon="3.41853">
        <ele>261.65</ele>
        <time>2017-06-18T07:14:32Z</time>
      </trkpt>
      <trkpt lat="46.16986" lon="3.41833">
        <ele>256.71</ele>
        <time>2017-06-18T07:14:37Z</time>
      </trkpt>
      <trkpt lat="46.16987" lon="3.41804">
        <ele>255.25</ele>
        <time>2017-06-18T07:14:45Z</time>
      </trkpt>
      <trkpt lat="46.17" lon="3.41783">
        <ele>255.52</ele>
        <time>2017-06-18T07:14:53Z</time>
      </trkpt>
      <trkpt lat="46.17017" lon="3.41769">
        <ele>258.12</ele>
        <time>2017-06-18T07:14:59Z</time>
      </trkpt>
      <trkpt lat="46.17037" lon="3.41759">
        <ele>256.8</ele>
        <time>2017-06-18T07:15:05Z</time>
      </trkpt>
      <trkpt lat="46.17055" lon="3.41749">
        <ele>259.43</ele>
        <time>2017-06-18T07:15:12Z</time>
      </trkpt>
      <trkpt lat="46.17071" lon="3.41736">
        <ele>261.49</ele>
        <time>2017-06-18T07:15:18Z</time>
      </trkpt>
      <trkpt lat="46.17091" lon="3.41721">
        <ele>262.85</ele>
        <time>2017-06-18T07:15:24Z</time>
      </trkpt>
      <trkpt lat="46.17108" lon="3.4171">
        <ele>266.6</ele>
        <time>2017-06-18T07:15:31Z</time>
      </trkpt>
      <trkpt lat="46.17128" lon="3.41699">
        <ele>267.94</ele>
        <time>2017-06-18T07:15:39Z</time>
      </trkpt>
      <trkpt lat="46.17142" lon="3.4168">
        <ele>267.25</ele>
        <time>2017-06-18T07:15:46Z</time>
      </trkpt>
      <trkpt lat="46.17159" lon="3.41669">
        <ele>268.53</ele>
        <time>2017-06-18T07:15:51Z</time>
      </trkpt>
      <trkpt lat="46.17177" lon="3.41661">
        <ele>270.16</ele>
        <time>2017-06-18T07:15:56Z</time>
      </trkpt>
      <trkpt lat="46.17195" lon="3.41649">
        <ele>269.8</ele>
        <time>2017-06-18T07:16:02Z</time>
      </trkpt>
      <trkpt lat="46.17215" lon="3.41638">
        <ele>269.25</ele>
        <time>2017-06-18T07:16:08Z</time>
      </trkpt>
      <trkpt lat="46.17233" lon="3.41625">
        <ele>269.26</ele>
        <time>2017-06-18T07:16:14Z</time>
      </trkpt>
      <trkpt lat="46.17252" lon="3.41616">
        <ele>271.52</ele>
        <time>2017-06-18T07:16:21Z</time>
      </trkpt>
      <trkpt lat="46.1727" lon="3.41604">
        <ele>272.76</ele>
        <time>2017-06-18T07:16:28Z</time>
      </trkpt>
      <trkpt lat="46.17288" lon="3.41589">
        <ele>273.25</ele>
        <time>2017-06-18T07:16:36Z</time>
      </trkpt>
      <trkpt lat="46.17305" lon="3.41579">
        <ele>272.76</ele>
        <time>2017-06-18T07:16:44Z</time>
      </trkpt>
      <trkpt lat="46.17325" lon="3.41571">
        <ele>268.73</ele>
        <time>2017-06-18T07:16:51Z</time>
      </trkpt>
      <trkpt lat="46.1734" lon="3.41553">
        <ele>265.46</ele>
        <time>2017-06-18T07:16:57Z</time>
      </trkpt>
      <trkpt lat="46.17358" lon="3.4154">
        <ele>263.67</ele>
        <time>2017-06-18T07:17:05Z</time>
      </trkpt>
      <trkpt lat="46.17377" lon="3.41535">
        <ele>262.07</ele>
        <time>2017-06-18T07:17:11Z</time>
      </trkpt>
      <trkpt lat="46.17397" lon="3.41524">
        <ele>263.54</ele>
        <time>2017-06-18T07:17:18Z</time>
      </trkpt>
      <trkpt lat="46.17416" lon="3.41514">
        <ele>261.56</ele>
        <time>2017-06-18T07:17:25Z</time>
      </trkpt>
      <trkpt lat="46.17435" lon="3.415">
        <ele>262.56</ele>
        <time>2017-06-18T07:17:32Z</time>
      </trkpt>
      <trkpt lat="46.17453" lon="3.41487">
        <ele>264.54</ele>
        <time>2017-06-18T07:17:39Z</time>
      </trkpt>
      <trkpt lat="46.17472" lon="3.41478">
        <ele>264.22</ele>
        <time>2017-06-18T07:17:46Z</time>
      </trkpt>
      <trkpt lat="46.17483" lon="3.41458">
        <ele>259.54</ele>
        <time>2017-06-18T07:17:54Z</time>
      </trkpt>
      <trkpt lat="46.17503" lon="3.41454">
        <ele>259.22</ele>
        <time>2017-06-18T07:18:01Z</time>
      </trkpt>
      <trkpt lat="46.17521" lon="3.41449">
        <ele>261.46</ele>
        <time>2017-06-18T07:18:07Z</time>
      </trkpt>
      <trkpt lat="46.17541" lon="3.41447">
        <ele>262.55</ele>
        <time>2017-06-18T07:18:13Z</time>
      </trkpt>
      <trkpt lat="46.17559" lon="3.41443">
        <ele>262.26</ele>
        <time>2017-06-18T07:18:19Z</time>
      </trkpt>
      <trkpt lat="46.1758" lon="3.4144">
        <ele>262.47</ele>
        <time>2017-06-18T07:18:25Z</time>
      </trkpt>
      <trkpt lat="46.17601" lon="3.41437">
        <ele>263.55</ele>
        <time>2017-06-18T07:18:32Z</time>
      </trkpt>
      <trkpt lat="46.17621" lon="3.41436">
        <ele>264.53</ele>
        <time>2017-06-18T07:18:38Z</time>
      </trkpt>
      <trkpt lat="46.17641" lon="3.41437">
        <ele>267.44</ele>
        <time>2017-06-18T07:18:44Z</time>
      </trkpt>
      <trkpt lat="46.17661" lon="3.4144">
        <ele>269.46</ele>
        <time>2017-06-18T07:18:50Z</time>
      </trkpt>
      <trkpt lat="46.1768" lon="3.41444">
        <ele>271.16</ele>
        <time>2017-06-18T07:18:56Z</time>
      </trkpt>
      <trkpt lat="46.17698" lon="3.41445">
        <ele>268.73</ele>
        <time>2017-06-18T07:19:01Z</time>
      </trkpt>
      <trkpt lat="46.17717" lon="3.4145">
        <ele>268.36</ele>
        <time>2017-06-18T07:19:07Z</time>
      </trkpt>
      <trkpt lat="46.17735" lon="3.41456">
        <ele>271.16</ele>
        <time>2017-06-18T07:19:13Z</time>
      </trkpt>
      <trkpt lat="46.17754" lon="3.41464">
        <ele>272.55</ele>
        <time>2017-06-18T07:19:20Z</time>
      </trkpt>
      <trkpt lat="46.17774" lon="3.41472">
        <ele>277.25</ele>
        <time>2017-06-18T07:19:29Z</time>
      </trkpt>
      <trkpt lat="46.17794" lon="3.41479">
        <ele>278.55</ele>
        <time>2017-06-18T07:19:36Z</time>
      </trkpt>
      <trkpt lat="46.17812" lon="3.41487">
        <ele>278.55</ele>
        <time>2017-06-18T07:19:44Z</time>
      </trkpt>
      <trkpt lat="46.17832" lon="3.41496">
        <ele>279.85</ele>
        <time>2017-06-18T07:19:52Z</time>
      </trkpt>
      <trkpt lat="46.17852" lon="3.41499">
        <ele>277.88</ele>
        <time>2017-06-18T07:19:56Z</time>
      </trkpt>
      <trkpt lat="46.17873" lon="3.41503">
        <ele>275.39</ele>
        <time>2017-06-18T07:20:01Z</time>
      </trkpt>
      <trkpt lat="46.1789" lon="3.41514">
        <ele>270.57</ele>
        <time>2017-06-18T07:20:08Z</time>
      </trkpt>
      <trkpt lat="46.1789" lon="3.41542">
        <ele>273.52</ele>
        <time>2017-06-18T07:20:17Z</time>
      </trkpt>
      <trkpt lat="46.17888" lon="3.4157">
        <ele>278.43</ele>
        <time>2017-06-18T07:20:25Z</time>
      </trkpt>
      <trkpt lat="46.17885" lon="3.41597">
        <ele>283.22</ele>
        <time>2017-06-18T07:20:33Z</time>
      </trkpt>
      <trkpt lat="46.17892" lon="3.41622">
        <ele>289.13</ele>
        <time>2017-06-18T07:20:41Z</time>
      </trkpt>
      <trkpt lat="46.17906" lon="3.41642">
        <ele>286.58</ele>
        <time>2017-06-18T07:20:47Z</time>
      </trkpt>
      <trkpt lat="46.17924" lon="3.41653">
        <ele>286.55</ele>
        <time>2017-06-18T07:20:54Z</time>
      </trkpt>
      <trkpt lat="46.17943" lon="3.41661">
        <ele>286.55</ele>
        <time>2017-06-18T07:21:01Z</time>
      </trkpt>
      <trkpt lat="46.17962" lon="3.41674">
        <ele>287.54</ele>
        <time>2017-06-18T07:21:08Z</time>
      </trkpt>
      <trkpt lat="46.17979" lon="3.4169">
        <ele>288.55</ele>
        <time>2017-06-18T07:21:15Z</time>
      </trkpt>
      <trkpt lat="46.17969" lon="3.41714">
        <ele>288.92</ele>
        <time>2017-06-18T07:21:25Z</time>
      </trkpt>
      <trkpt lat="46.17952" lon="3.41706">
        <ele>285.89</ele>
        <time>2017-06-18T07:21:31Z</time>
      </trkpt>
      <trkpt lat="46.17936" lon="3.41723">
        <ele>285.25</ele>
        <time>2017-06-18T07:21:39Z</time>
      </trkpt>
      <trkpt lat="46.17931" lon="3.41748">
        <ele>285.55</ele>
        <time>2017-06-18T07:21:47Z</time>
      </trkpt>
      <trkpt lat="46.17925" lon="3.41775">
        <ele>286.53</ele>
        <time>2017-06-18T07:21:54Z</time>
      </trkpt>
      <trkpt lat="46.17919" lon="3.41801">
        <ele>296.4</ele>
        <time>2017-06-18T07:22:04Z</time>
      </trkpt>
      <trkpt lat="46.17915" lon="3.4183">
        <ele>301.13</ele>
        <time>2017-06-18T07:22:11Z</time>
      </trkpt>
      <trkpt lat="46.17917" lon="3.41856">
        <ele>309.11</ele>
        <time>2017-06-18T07:22:19Z</time>
      </trkpt>
      <trkpt lat="46.17914" lon="3.41883">
        <ele>313.5</ele>
        <time>2017-06-18T07:22:26Z</time>
      </trkpt>
      <trkpt lat="46.17909" lon="3.41912">
        <ele>318.52</ele>
        <time>2017-06-18T07:22:34Z</time>
      </trkpt>
      <trkpt lat="46.17903" lon="3.41938">
        <ele>321.31</ele>
        <time>2017-06-18T07:22:41Z</time>
      </trkpt>
      <trkpt lat="46.17896" lon="3.41963">
        <ele>322.55</ele>
        <time>2017-06-18T07:22:48Z</time>
      </trkpt>
      <trkpt lat="46.17891" lon="3.41992">
        <ele>324.33</ele>
        <time>2017-06-18T07:22:56Z</time>
      </trkpt>
      <trkpt lat="46.17887" lon="3.42017">
        <ele>326.54</ele>
        <time>2017-06-18T07:23:03Z</time>
      </trkpt>
      <trkpt lat="46.17879" lon="3.42043">
        <ele>327.46</ele>
        <time>2017-06-18T07:23:10Z</time>
      </trkpt>
      <trkpt lat="46.17863" lon="3.42057">
        <ele>325.65</ele>
        <time>2017-06-18T07:23:16Z</time>
      </trkpt>
      <trkpt lat="46.17846" lon="3.42068">
        <ele>325.32</ele>
        <time>2017-06-18T07:23:23Z</time>
      </trkpt>
      <trkpt lat="46.17832" lon="3.42084">
        <ele>327.22</ele>
        <time>2017-06-18T07:23:30Z</time>
      </trkpt>
      <trkpt lat="46.17819" lon="3.42104">
        <ele>330.53</ele>
        <time>2017-06-18T07:23:38Z</time>
      </trkpt>
      <trkpt lat="46.17806" lon="3.42126">
        <ele>334.52</ele>
        <time>2017-06-18T07:23:47Z</time>
      </trkpt>
      <trkpt lat="46.17795" lon="3.42148">
        <ele>337.54</ele>
        <time>2017-06-18T07:23:55Z</time>
      </trkpt>
      <trkpt lat="46.17781" lon="3.42167">
        <ele>339.46</ele>
        <time>2017-06-18T07:24:02Z</time>
      </trkpt>
      <trkpt lat="46.17769" lon="3.42186">
        <ele>341.24</ele>
        <time>2017-06-18T07:24:09Z</time>
      </trkpt>
      <trkpt lat="46.17754" lon="3.42204">
        <ele>345.52</ele>
        <time>2017-06-18T07:24:17Z</time>
      </trkpt>
      <trkpt lat="46.1774" lon="3.42226">
        <ele>348.82</ele>
        <time>2017-06-18T07:24:25Z</time>
      </trkpt>
      <trkpt lat="46.17728" lon="3.42249">
        <ele>349.46</ele>
        <time>2017-06-18T07:24:32Z</time>
      </trkpt>
      <trkpt lat="46.17714" lon="3.42269">
        <ele>350.55</ele>
        <time>2017-06-18T07:24:39Z</time>
      </trkpt>
      <trkpt lat="46.17699" lon="3.42291">
        <ele>351.25</ele>
        <time>2017-06-18T07:24:46Z</time>
      </trkpt>
      <trkpt lat="46.17688" lon="3.42316">
        <ele>352.54</ele>
        <time>2017-06-18T07:24:53Z</time>
      </trkpt>
      <trkpt lat="46.17676" lon="3.42341">
        <ele>352.55</ele>
        <time>2017-06-18T07:25:00Z</time>
      </trkpt>
      <trkpt lat="46.17665" lon="3.42361">
        <ele>355.52</ele>
        <time>2017-06-18T07:25:07Z</time>
      </trkpt>
      <trkpt lat="46.17651" lon="3.4238">
        <ele>358.24</ele>
        <time>2017-06-18T07:25:14Z</time>
      </trkpt>
      <trkpt lat="46.1765" lon="3.42408">
        <ele>361.55</ele>
        <time>2017-06-18T07:25:25Z</time>
      </trkpt>
      <trkpt lat="46.17665" lon="3.42426">
        <ele>360.55</ele>
        <time>2017-06-18T07:25:34Z</time>
      </trkpt>
      <trkpt lat="46.17683" lon="3.42435">
        <ele>361.33</ele>
        <time>2017-06-18T07:25:41Z</time>
      </trkpt>
      <trkpt lat="46.17703" lon="3.4244">
        <ele>358.29</ele>
        <time>2017-06-18T07:25:47Z</time>
      </trkpt>
      <trkpt lat="46.17718" lon="3.42458">
        <ele>347.7</ele>
        <time>2017-06-18T07:25:53Z</time>
      </trkpt>
      <trkpt lat="46.17736" lon="3.42464">
        <ele>349.57</ele>
        <time>2017-06-18T07:26:00Z</time>
      </trkpt>
      <trkpt lat="46.17756" lon="3.42461">
        <ele>347.88</ele>
        <time>2017-06-18T07:26:09Z</time>
      </trkpt>
      <trkpt lat="46.17774" lon="3.42465">
        <ele>348.36</ele>
        <time>2017-06-18T07:26:14Z</time>
      </trkpt>
      <trkpt lat="46.17797" lon="3.42471">
        <ele>348.54</ele>
        <time>2017-06-18T07:26:21Z</time>
      </trkpt>
      <trkpt lat="46.17816" lon="3.42477">
        <ele>346.88</ele>
        <time>2017-06-18T07:26:27Z</time>
      </trkpt>
      <trkpt lat="46.17835" lon="3.42478">
        <ele>347.23</ele>
        <time>2017-06-18T07:26:32Z</time>
      </trkpt>
      <trkpt lat="46.17854" lon="3.4248">
        <ele>350.52</ele>
        <time>2017-06-18T07:26:39Z</time>
      </trkpt>
      <trkpt lat="46.17872" lon="3.42479">
        <ele>350.19</ele>
        <time>2017-06-18T07:26:44Z</time>
      </trkpt>
      <trkpt lat="46.17893" lon="3.42483">
        <ele>351.79</ele>
        <time>2017-06-18T07:26:51Z</time>
      </trkpt>
      <trkpt lat="46.17912" lon="3.42488">
        <ele>348.74</ele>
        <time>2017-06-18T07:26:56Z</time>
      </trkpt>
      <trkpt lat="46.17931" lon="3.42504">
        <ele>339.82</ele>
        <time>2017-06-18T07:27:02Z</time>
      </trkpt>
      <trkpt lat="46.17949" lon="3.42492">
        <ele>338.76</ele>
        <time>2017-06-18T07:27:09Z</time>
      </trkpt>
      <trkpt lat="46.17967" lon="3.42484">
        <ele>335.97</ele>
        <time>2017-06-18T07:27:15Z</time>
      </trkpt>
      <trkpt lat="46.17987" lon="3.42492">
        <ele>332.58</ele>
        <time>2017-06-18T07:27:22Z</time>
      </trkpt>
      <trkpt lat="46.18005" lon="3.42501">
        <ele>330.65</ele>
        <time>2017-06-18T07:27:28Z</time>
      </trkpt>
      <trkpt lat="46.18022" lon="3.4251">
        <ele>330.55</ele>
        <time>2017-06-18T07:27:34Z</time>
      </trkpt>
      <trkpt lat="46.1804" lon="3.4252">
        <ele>330.55</ele>
        <time>2017-06-18T07:27:41Z</time>
      </trkpt>
      <trkpt lat="46.1806" lon="3.42527">
        <ele>331.76</ele>
        <time>2017-06-18T07:27:49Z</time>
      </trkpt>
      <trkpt lat="46.18078" lon="3.42533">
        <ele>333.27</ele>
        <time>2017-06-18T07:27:55Z</time>
      </trkpt>
      <trkpt lat="46.18095" lon="3.4254">
        <ele>335.03</ele>
        <time>2017-06-18T07:28:00Z</time>
      </trkpt>
      <trkpt lat="46.18116" lon="3.42533">
        <ele>336.91</ele>
        <time>2017-06-18T07:28:09Z</time>
      </trkpt>
      <trkpt lat="46.18131" lon="3.42517">
        <ele>332.77</ele>
        <time>2017-06-18T07:28:14Z</time>
      </trkpt>
      <trkpt lat="46.18142" lon="3.42493">
        <ele>327.25</ele>
        <time>2017-06-18T07:28:20Z</time>
      </trkpt>
      <trkpt lat="46.18152" lon="3.4247">
        <ele>321.98</ele>
        <time>2017-06-18T07:28:25Z</time>
      </trkpt>
      <trkpt lat="46.18161" lon="3.42445">
        <ele>317.67</ele>
        <time>2017-06-18T07:28:31Z</time>
      </trkpt>
      <trkpt lat="46.18168" lon="3.42421">
        <ele>313.25</ele>
        <time>2017-06-18T07:28:36Z</time>
      </trkpt>
      <trkpt lat="46.18176" lon="3.42395">
        <ele>308.86</ele>
        <time>2017-06-18T07:28:42Z</time>
      </trkpt>
      <trkpt lat="46.18184" lon="3.42368">
        <ele>306.86</ele>
        <time>2017-06-18T07:28:49Z</time>
      </trkpt>
      <trkpt lat="46.18192" lon="3.42342">
        <ele>302.89</ele>
        <time>2017-06-18T07:28:55Z</time>
      </trkpt>
      <trkpt lat="46.182" lon="3.42317">
        <ele>301.64</ele>
        <time>2017-06-18T07:29:01Z</time>
      </trkpt>
      <trkpt lat="46.18208" lon="3.4229">
        <ele>300.79</ele>
        <time>2017-06-18T07:29:07Z</time>
      </trkpt>
      <trkpt lat="46.18218" lon="3.42265">
        <ele>297.95</ele>
        <time>2017-06-18T07:29:13Z</time>
      </trkpt>
      <trkpt lat="46.18239" lon="3.42272">
        <ele>293.38</ele>
        <time>2017-06-18T07:29:20Z</time>
      </trkpt>
      <trkpt lat="46.18255" lon="3.42286">
        <ele>293.16</ele>
        <time>2017-06-18T07:29:26Z</time>
      </trkpt>
      <trkpt lat="46.1827" lon="3.42301">
        <ele>296.43</ele>
        <time>2017-06-18T07:29:32Z</time>
      </trkpt>
      <trkpt lat="46.18287" lon="3.42315">
        <ele>297.53</ele>
        <time>2017-06-18T07:29:38Z</time>
      </trkpt>
      <trkpt lat="46.18304" lon="3.42329">
        <ele>300.24</ele>
        <time>2017-06-18T07:29:44Z</time>
      </trkpt>
      <trkpt lat="46.18322" lon="3.42344">
        <ele>300.55</ele>
        <time>2017-06-18T07:29:50Z</time>
      </trkpt>
      <trkpt lat="46.18339" lon="3.42357">
        <ele>300.26</ele>
        <time>2017-06-18T07:29:57Z</time>
      </trkpt>
      <trkpt lat="46.18358" lon="3.42369">
        <ele>301.83</ele>
        <time>2017-06-18T07:30:04Z</time>
      </trkpt>
      <trkpt lat="46.18374" lon="3.42381">
        <ele>302.25</ele>
        <time>2017-06-18T07:30:10Z</time>
      </trkpt>
      <trkpt lat="46.18393" lon="3.42395">
        <ele>302.64</ele>
        <time>2017-06-18T07:30:17Z</time>
      </trkpt>
      <trkpt lat="46.18412" lon="3.42407">
        <ele>305.22</ele>
        <time>2017-06-18T07:30:24Z</time>
      </trkpt>
      <trkpt lat="46.18431" lon="3.42419">
        <ele>307.84</ele>
        <time>2017-06-18T07:30:32Z</time>
      </trkpt>
      <trkpt lat="46.18449" lon="3.42432">
        <ele>308.55</ele>
        <time>2017-06-18T07:30:39Z</time>
      </trkpt>
      <trkpt lat="46.18468" lon="3.42445">
        <ele>308.62</ele>
        <time>2017-06-18T07:30:46Z</time>
      </trkpt>
      <trkpt lat="46.18486" lon="3.4246">
        <ele>307.64</ele>
        <time>2017-06-18T07:30:53Z</time>
      </trkpt>
      <trkpt lat="46.18503" lon="3.42475">
        <ele>307.55</ele>
        <time>2017-06-18T07:30:59Z</time>
      </trkpt>
      <trkpt lat="46.18518" lon="3.42492">
        <ele>307.55</ele>
        <time>2017-06-18T07:31:06Z</time>
      </trkpt>
      <trkpt lat="46.18534" lon="3.42509">
        <ele>308.25</ele>
        <time>2017-06-18T07:31:12Z</time>
      </trkpt>
      <trkpt lat="46.18548" lon="3.42529">
        <ele>309.53</ele>
        <time>2017-06-18T07:31:19Z</time>
      </trkpt>
      <trkpt lat="46.18562" lon="3.42551">
        <ele>310.46</ele>
        <time>2017-06-18T07:31:26Z</time>
      </trkpt>
      <trkpt lat="46.18573" lon="3.42574">
        <ele>312.45</ele>
        <time>2017-06-18T07:31:34Z</time>
      </trkpt>
      <trkpt lat="46.18581" lon="3.426">
        <ele>313.25</ele>
        <time>2017-06-18T07:31:41Z</time>
      </trkpt>
      <trkpt lat="46.18588" lon="3.42625">
        <ele>316.22</ele>
        <time>2017-06-18T07:31:48Z</time>
      </trkpt>
      <trkpt lat="46.18596" lon="3.42651">
        <ele>319.22</ele>
        <time>2017-06-18T07:31:56Z</time>
      </trkpt>
      <trkpt lat="46.18605" lon="3.42675">
        <ele>321.25</ele>
        <time>2017-06-18T07:32:03Z</time>
      </trkpt>
      <trkpt lat="46.18614" lon="3.42701">
        <ele>321.56</ele>
        <time>2017-06-18T07:32:11Z</time>
      </trkpt>
      <trkpt lat="46.18624" lon="3.42723">
        <ele>322.53</ele>
        <time>2017-06-18T07:32:18Z</time>
      </trkpt>
      <trkpt lat="46.18634" lon="3.42745">
        <ele>326.43</ele>
        <time>2017-06-18T07:32:25Z</time>
      </trkpt>
      <trkpt lat="46.18643" lon="3.42769">
        <ele>329.43</ele>
        <time>2017-06-18T07:32:32Z</time>
      </trkpt>
      <trkpt lat="46.18647" lon="3.42799">
        <ele>327.58</ele>
        <time>2017-06-18T07:32:38Z</time>
      </trkpt>
      <trkpt lat="46.18643" lon="3.42825">
        <ele>331.19</ele>
        <time>2017-06-18T07:32:45Z</time>
      </trkpt>
      <trkpt lat="46.18635" lon="3.42849">
        <ele>333.61</ele>
        <time>2017-06-18T07:32:52Z</time>
      </trkpt>
      <trkpt lat="46.1863" lon="3.42876">
        <ele>335.54</ele>
        <time>2017-06-18T07:32:59Z</time>
      </trkpt>
      <trkpt lat="46.18623" lon="3.42902">
        <ele>338.54</ele>
        <time>2017-06-18T07:33:06Z</time>
      </trkpt>
      <trkpt lat="46.18616" lon="3.42929">
        <ele>343.52</ele>
        <time>2017-06-18T07:33:15Z</time>
      </trkpt>
      <trkpt lat="46.18612" lon="3.42957">
        <ele>344.64</ele>
        <time>2017-06-18T07:33:23Z</time>
      </trkpt>
      <trkpt lat="46.18608" lon="3.42986">
        <ele>344.24</ele>
        <time>2017-06-18T07:33:30Z</time>
      </trkpt>
      <trkpt lat="46.18608" lon="3.43014">
        <ele>346.45</ele>
        <time>2017-06-18T07:33:37Z</time>
      </trkpt>
      <trkpt lat="46.18614" lon="3.43043">
        <ele>340.54</ele>
        <time>2017-06-18T07:33:42Z</time>
      </trkpt>
      <trkpt lat="46.18624" lon="3.43068">
        <ele>336.67</ele>
        <time>2017-06-18T07:33:48Z</time>
      </trkpt>
      <trkpt lat="46.18636" lon="3.43089">
        <ele>336.55</ele>
        <time>2017-06-18T07:33:55Z</time>
      </trkpt>
      <trkpt lat="46.18653" lon="3.43102">
        <ele>337.84</ele>
        <time>2017-06-18T07:34:02Z</time>
      </trkpt>
      <trkpt lat="46.18671" lon="3.43108">
        <ele>336.56</ele>
        <time>2017-06-18T07:34:09Z</time>
      </trkpt>
      <trkpt lat="46.18692" lon="3.43113">
        <ele>334.64</ele>
        <time>2017-06-18T07:34:17Z</time>
      </trkpt>
      <trkpt lat="46.18713" lon="3.43119">
        <ele>337.24</ele>
        <time>2017-06-18T07:34:24Z</time>
      </trkpt>
      <trkpt lat="46.18732" lon="3.43124">
        <ele>338.53</ele>
        <time>2017-06-18T07:34:30Z</time>
      </trkpt>
      <trkpt lat="46.18751" lon="3.43129">
        <ele>341.54</ele>
        <time>2017-06-18T07:34:38Z</time>
      </trkpt>
      <trkpt lat="46.18771" lon="3.43134">
        <ele>343.25</ele>
        <time>2017-06-18T07:34:45Z</time>
      </trkpt>
      <trkpt lat="46.18791" lon="3.43134">
        <ele>339.57</ele>
        <time>2017-06-18T07:34:52Z</time>
      </trkpt>
      <trkpt lat="46.18812" lon="3.43137">
        <ele>338.58</ele>
        <time>2017-06-18T07:34:59Z</time>
      </trkpt>
      <trkpt lat="46.18832" lon="3.43146">
        <ele>337.28</ele>
        <time>2017-06-18T07:35:07Z</time>
      </trkpt>
      <trkpt lat="46.18846" lon="3.43165">
        <ele>336.83</ele>
        <time>2017-06-18T07:35:13Z</time>
      </trkpt>
      <trkpt lat="46.18857" lon="3.4319">
        <ele>336.62</ele>
        <time>2017-06-18T07:35:20Z</time>
      </trkpt>
      <trkpt lat="46.18864" lon="3.43216">
        <ele>339.46</ele>
        <time>2017-06-18T07:35:28Z</time>
      </trkpt>
      <trkpt lat="46.18872" lon="3.43239">
        <ele>341.52</ele>
        <time>2017-06-18T07:35:35Z</time>
      </trkpt>
      <trkpt lat="46.18881" lon="3.43262">
        <ele>343.54</ele>
        <time>2017-06-18T07:35:42Z</time>
      </trkpt>
      <trkpt lat="46.1889" lon="3.43287">
        <ele>340.41</ele>
        <time>2017-06-18T07:35:48Z</time>
      </trkpt>
      <trkpt lat="46.18905" lon="3.43309">
        <ele>335.64</ele>
        <time>2017-06-18T07:35:54Z</time>
      </trkpt>
      <trkpt lat="46.18919" lon="3.4333">
        <ele>336.46</ele>
        <time>2017-06-18T07:36:00Z</time>
      </trkpt>
      <trkpt lat="46.18926" lon="3.43353">
        <ele>339.54</ele>
        <time>2017-06-18T07:36:07Z</time>
      </trkpt>
      <trkpt lat="46.18926" lon="3.4338">
        <ele>341.52</ele>
        <time>2017-06-18T07:36:14Z</time>
      </trkpt>
      <trkpt lat="46.18918" lon="3.43408">
        <ele>343.54</ele>
        <time>2017-06-18T07:36:22Z</time>
      </trkpt>
      <trkpt lat="46.18908" lon="3.4343">
        <ele>343.79</ele>
        <time>2017-06-18T07:36:28Z</time>
      </trkpt>
      <trkpt lat="46.18895" lon="3.43454">
        <ele>343.62</ele>
        <time>2017-06-18T07:36:35Z</time>
      </trkpt>
      <trkpt lat="46.18884" lon="3.43475">
        <ele>343.64</ele>
        <time>2017-06-18T07:36:42Z</time>
      </trkpt>
      <trkpt lat="46.18872" lon="3.43495">
        <ele>346.46</ele>
        <time>2017-06-18T07:36:56Z</time>
      </trkpt>
      <trkpt lat="46.18863" lon="3.43519">
        <ele>334.85</ele>
        <time>2017-06-18T07:37:31Z</time>
      </trkpt>
      <trkpt lat="46.18854" lon="3.43541">
        <ele>342.54</ele>
        <time>2017-06-18T07:38:01Z</time>
      </trkpt>
      <trkpt lat="46.18841" lon="3.43564">
        <ele>344.25</ele>
        <time>2017-06-18T07:38:09Z</time>
      </trkpt>
      <trkpt lat="46.18831" lon="3.43589">
        <ele>346.55</ele>
        <time>2017-06-18T07:38:17Z</time>
      </trkpt>
      <trkpt lat="46.18823" lon="3.43616">
        <ele>345.77</ele>
        <time>2017-06-18T07:38:24Z</time>
      </trkpt>
      <trkpt lat="46.18814" lon="3.43642">
        <ele>345.55</ele>
        <time>2017-06-18T07:38:31Z</time>
      </trkpt>
      <trkpt lat="46.18806" lon="3.43668">
        <ele>344.46</ele>
        <time>2017-06-18T07:38:38Z</time>
      </trkpt>
      <trkpt lat="46.18795" lon="3.43692">
        <ele>344.25</ele>
        <time>2017-06-18T07:38:44Z</time>
      </trkpt>
      <trkpt lat="46.18785" lon="3.43715">
        <ele>343.56</ele>
        <time>2017-06-18T07:38:50Z</time>
      </trkpt>
      <trkpt lat="46.18775" lon="3.43737">
        <ele>343.57</ele>
        <time>2017-06-18T07:38:56Z</time>
      </trkpt>
      <trkpt lat="46.18765" lon="3.43763">
        <ele>344.55</ele>
        <time>2017-06-18T07:39:03Z</time>
      </trkpt>
      <trkpt lat="46.18757" lon="3.43789">
        <ele>344.64</ele>
        <time>2017-06-18T07:39:09Z</time>
      </trkpt>
      <trkpt lat="46.18746" lon="3.43815">
        <ele>345.83</ele>
        <time>2017-06-18T07:39:16Z</time>
      </trkpt>
      <trkpt lat="46.18738" lon="3.43838">
        <ele>344.94</ele>
        <time>2017-06-18T07:39:22Z</time>
      </trkpt>
      <trkpt lat="46.1873" lon="3.43864">
        <ele>343.85</ele>
        <time>2017-06-18T07:39:28Z</time>
      </trkpt>
      <trkpt lat="46.18724" lon="3.4389">
        <ele>343.55</ele>
        <time>2017-06-18T07:39:34Z</time>
      </trkpt>
      <trkpt lat="46.18717" lon="3.43916">
        <ele>343.55</ele>
        <time>2017-06-18T07:39:40Z</time>
      </trkpt>
      <trkpt lat="46.18711" lon="3.43942">
        <ele>344.46</ele>
        <time>2017-06-18T07:39:46Z</time>
      </trkpt>
      <trkpt lat="46.18706" lon="3.43969">
        <ele>341.68</ele>
        <time>2017-06-18T07:39:53Z</time>
      </trkpt>
      <trkpt lat="46.187" lon="3.43997">
        <ele>339.86</ele>
        <time>2017-06-18T07:39:59Z</time>
      </trkpt>
      <trkpt lat="46.18696" lon="3.44026">
        <ele>338.77</ele>
        <time>2017-06-18T07:40:05Z</time>
      </trkpt>
      <trkpt lat="46.18692" lon="3.44054">
        <ele>338.64</ele>
        <time>2017-06-18T07:40:11Z</time>
      </trkpt>
      <trkpt lat="46.18689" lon="3.44082">
        <ele>338.55</ele>
        <time>2017-06-18T07:40:17Z</time>
      </trkpt>
      <trkpt lat="46.18688" lon="3.44111">
        <ele>337.56</ele>
        <time>2017-06-18T07:40:23Z</time>
      </trkpt>
      <trkpt lat="46.18681" lon="3.4414">
        <ele>337.49</ele>
        <time>2017-06-18T07:40:29Z</time>
      </trkpt>
      <trkpt lat="46.18673" lon="3.44166">
        <ele>335.88</ele>
        <time>2017-06-18T07:40:35Z</time>
      </trkpt>
      <trkpt lat="46.18663" lon="3.44192">
        <ele>333.86</ele>
        <time>2017-06-18T07:40:41Z</time>
      </trkpt>
      <trkpt lat="46.18654" lon="3.44218">
        <ele>332.85</ele>
        <time>2017-06-18T07:40:47Z</time>
      </trkpt>
      <trkpt lat="46.18648" lon="3.44243">
        <ele>330.86</ele>
        <time>2017-06-18T07:40:53Z</time>
      </trkpt>
      <trkpt lat="46.18644" lon="3.44269">
        <ele>328.56</ele>
        <time>2017-06-18T07:40:59Z</time>
      </trkpt>
      <trkpt lat="46.18642" lon="3.44299">
        <ele>326.94</ele>
        <time>2017-06-18T07:41:06Z</time>
      </trkpt>
      <trkpt lat="46.18635" lon="3.44324">
        <ele>324.65</ele>
        <time>2017-06-18T07:41:12Z</time>
      </trkpt>
      <trkpt lat="46.18627" lon="3.44349">
        <ele>322.49</ele>
        <time>2017-06-18T07:41:18Z</time>
      </trkpt>
      <trkpt lat="46.18619" lon="3.44373">
        <ele>319.59</ele>
        <time>2017-06-18T07:41:24Z</time>
      </trkpt>
      <trkpt lat="46.18609" lon="3.44396">
        <ele>317.58</ele>
        <time>2017-06-18T07:41:30Z</time>
      </trkpt>
      <trkpt lat="46.186" lon="3.44419">
        <ele>315.17</ele>
        <time>2017-06-18T07:41:37Z</time>
      </trkpt>
      <trkpt lat="46.18586" lon="3.44444">
        <ele>312.68</ele>
        <time>2017-06-18T07:41:43Z</time>
      </trkpt>
      <trkpt lat="46.18575" lon="3.4447">
        <ele>308.58</ele>
        <time>2017-06-18T07:41:50Z</time>
      </trkpt>
      <trkpt lat="46.18564" lon="3.44495">
        <ele>304.59</ele>
        <time>2017-06-18T07:41:56Z</time>
      </trkpt>
      <trkpt lat="46.18554" lon="3.44519">
        <ele>304.55</ele>
        <time>2017-06-18T07:42:03Z</time>
      </trkpt>
      <trkpt lat="46.18546" lon="3.44545">
        <ele>299.97</ele>
        <time>2017-06-18T07:42:08Z</time>
      </trkpt>
      <trkpt lat="46.18536" lon="3.4457">
        <ele>298.56</ele>
        <time>2017-06-18T07:42:14Z</time>
      </trkpt>
      <trkpt lat="46.18527" lon="3.44594">
        <ele>298.62</ele>
        <time>2017-06-18T07:42:20Z</time>
      </trkpt>
      <trkpt lat="46.18518" lon="3.44621">
        <ele>296.73</ele>
        <time>2017-06-18T07:42:26Z</time>
      </trkpt>
      <trkpt lat="46.1851" lon="3.44647">
        <ele>296.55</ele>
        <time>2017-06-18T07:42:32Z</time>
      </trkpt>
      <trkpt lat="46.185" lon="3.44671">
        <ele>295.85</ele>
        <time>2017-06-18T07:42:38Z</time>
      </trkpt>
      <trkpt lat="46.18492" lon="3.44694">
        <ele>295.34</ele>
        <time>2017-06-18T07:42:44Z</time>
      </trkpt>
      <trkpt lat="46.18484" lon="3.44718">
        <ele>295.55</ele>
        <time>2017-06-18T07:42:50Z</time>
      </trkpt>
      <trkpt lat="46.18477" lon="3.44742">
        <ele>296.55</ele>
        <time>2017-06-18T07:42:56Z</time>
      </trkpt>
      <trkpt lat="46.18468" lon="3.44765">
        <ele>296.47</ele>
        <time>2017-06-18T07:43:02Z</time>
      </trkpt>
      <trkpt lat="46.18461" lon="3.44789">
        <ele>295.77</ele>
        <time>2017-06-18T07:43:08Z</time>
      </trkpt>
      <trkpt lat="46.18455" lon="3.44814">
        <ele>295.55</ele>
        <time>2017-06-18T07:43:14Z</time>
      </trkpt>
      <trkpt lat="46.18451" lon="3.4484">
        <ele>295.55</ele>
        <time>2017-06-18T07:43:20Z</time>
      </trkpt>
      <trkpt lat="46.18448" lon="3.44868">
        <ele>293.86</ele>
        <time>2017-06-18T07:43:26Z</time>
      </trkpt>
      <trkpt lat="46.18446" lon="3.44895">
        <ele>293.26</ele>
        <time>2017-06-18T07:43:32Z</time>
      </trkpt>
      <trkpt lat="46.18444" lon="3.44921">
        <ele>293.47</ele>
        <time>2017-06-18T07:43:38Z</time>
      </trkpt>
      <trkpt lat="46.1844" lon="3.44949">
        <ele>294.16</ele>
        <time>2017-06-18T07:43:45Z</time>
      </trkpt>
      <trkpt lat="46.18439" lon="3.44975">
        <ele>293.56</ele>
        <time>2017-06-18T07:43:51Z</time>
      </trkpt>
      <trkpt lat="46.18436" lon="3.45004">
        <ele>294.25</ele>
        <time>2017-06-18T07:43:58Z</time>
      </trkpt>
      <trkpt lat="46.18428" lon="3.45032">
        <ele>296.47</ele>
        <time>2017-06-18T07:44:06Z</time>
      </trkpt>
      <trkpt lat="46.18416" lon="3.45056">
        <ele>295.52</ele>
        <time>2017-06-18T07:44:11Z</time>
      </trkpt>
      <trkpt lat="46.18406" lon="3.45079">
        <ele>295.55</ele>
        <time>2017-06-18T07:44:16Z</time>
      </trkpt>
      <trkpt lat="46.18391" lon="3.45098">
        <ele>298.44</ele>
        <time>2017-06-18T07:44:24Z</time>
      </trkpt>
      <trkpt lat="46.18377" lon="3.45116">
        <ele>300.2</ele>
        <time>2017-06-18T07:44:31Z</time>
      </trkpt>
      <trkpt lat="46.1836" lon="3.45128">
        <ele>294.99</ele>
        <time>2017-06-18T07:44:36Z</time>
      </trkpt>
      <trkpt lat="46.18341" lon="3.45129">
        <ele>294.74</ele>
        <time>2017-06-18T07:44:42Z</time>
      </trkpt>
      <trkpt lat="46.18323" lon="3.45123">
        <ele>291.86</ele>
        <time>2017-06-18T07:44:48Z</time>
      </trkpt>
      <trkpt lat="46.18305" lon="3.45118">
        <ele>291.28</ele>
        <time>2017-06-18T07:44:54Z</time>
      </trkpt>
      <trkpt lat="46.18286" lon="3.4511">
        <ele>289.85</ele>
        <time>2017-06-18T07:45:01Z</time>
      </trkpt>
      <trkpt lat="46.18269" lon="3.45099">
        <ele>292.24</ele>
        <time>2017-06-18T07:45:09Z</time>
      </trkpt>
      <trkpt lat="46.18254" lon="3.4508">
        <ele>296.25</ele>
        <time>2017-06-18T07:45:18Z</time>
      </trkpt>
      <trkpt lat="46.18239" lon="3.4506">
        <ele>298.46</ele>
        <time>2017-06-18T07:45:26Z</time>
      </trkpt>
      <trkpt lat="46.18226" lon="3.45042">
        <ele>301.16</ele>
        <time>2017-06-18T07:45:34Z</time>
      </trkpt>
      <trkpt lat="46.18219" lon="3.45018">
        <ele>301.58</ele>
        <time>2017-06-18T07:45:41Z</time>
      </trkpt>
      <trkpt lat="46.18212" lon="3.44991">
        <ele>304.46</ele>
        <time>2017-06-18T07:45:49Z</time>
      </trkpt>
      <trkpt lat="46.18209" lon="3.44963">
        <ele>306.44</ele>
        <time>2017-06-18T07:45:58Z</time>
      </trkpt>
      <trkpt lat="46.18204" lon="3.44935">
        <ele>313.21</ele>
        <time>2017-06-18T07:46:08Z</time>
      </trkpt>
      <trkpt lat="46.18197" lon="3.44911">
        <ele>312.79</ele>
        <time>2017-06-18T07:46:15Z</time>
      </trkpt>
      <trkpt lat="46.18187" lon="3.44889">
        <ele>310.53</ele>
        <time>2017-06-18T07:46:21Z</time>
      </trkpt>
      <trkpt lat="46.18176" lon="3.44868">
        <ele>309.56</ele>
        <time>2017-06-18T07:46:28Z</time>
      </trkpt>
      <trkpt lat="46.18165" lon="3.44844">
        <ele>312.16</ele>
        <time>2017-06-18T07:46:35Z</time>
      </trkpt>
      <trkpt lat="46.18154" lon="3.44822">
        <ele>315.52</ele>
        <time>2017-06-18T07:46:43Z</time>
      </trkpt>
      <trkpt lat="46.18144" lon="3.44799">
        <ele>318.46</ele>
        <time>2017-06-18T07:46:51Z</time>
      </trkpt>
      <trkpt lat="46.18136" lon="3.44774">
        <ele>322.93</ele>
        <time>2017-06-18T07:47:00Z</time>
      </trkpt>
      <trkpt lat="46.18126" lon="3.4475">
        <ele>322.57</ele>
        <time>2017-06-18T07:47:08Z</time>
      </trkpt>
      <trkpt lat="46.18114" lon="3.44727">
        <ele>326.46</ele>
        <time>2017-06-18T07:47:17Z</time>
      </trkpt>
      <trkpt lat="46.18105" lon="3.44703">
        <ele>324.62</ele>
        <time>2017-06-18T07:47:25Z</time>
      </trkpt>
      <trkpt lat="46.18105" lon="3.44675">
        <ele>319.36</ele>
        <time>2017-06-18T07:47:33Z</time>
      </trkpt>
      <trkpt lat="46.18111" lon="3.44649">
        <ele>322.46</ele>
        <time>2017-06-18T07:47:43Z</time>
      </trkpt>
      <trkpt lat="46.18097" lon="3.4463">
        <ele>322.56</ele>
        <time>2017-06-18T07:47:58Z</time>
      </trkpt>
      <trkpt lat="46.18078" lon="3.44639">
        <ele>323.75</ele>
        <time>2017-06-18T07:48:05Z</time>
      </trkpt>
      <trkpt lat="46.18074" lon="3.44613">
        <ele>326.65</ele>
        <time>2017-06-18T07:48:27Z</time>
      </trkpt>
      <trkpt lat="46.18063" lon="3.44635">
        <ele>330.34</ele>
        <time>2017-06-18T07:49:26Z</time>
      </trkpt>
      <trkpt lat="46.18043" lon="3.44639">
        <ele>332.4</ele>
        <time>2017-06-18T07:49:31Z</time>
      </trkpt>
      <trkpt lat="46.18022" lon="3.44641">
        <ele>332.83</ele>
        <time>2017-06-18T07:49:36Z</time>
      </trkpt>
      <trkpt lat="46.18003" lon="3.44644">
        <ele>333.44</ele>
        <time>2017-06-18T07:49:41Z</time>
      </trkpt>
      <trkpt lat="46.17985" lon="3.44648">
        <ele>335.15</ele>
        <time>2017-06-18T07:49:49Z</time>
      </trkpt>
      <trkpt lat="46.17965" lon="3.4465">
        <ele>336.32</ele>
        <time>2017-06-18T07:49:56Z</time>
      </trkpt>
      <trkpt lat="46.17944" lon="3.44653">
        <ele>335.55</ele>
        <time>2017-06-18T07:50:02Z</time>
      </trkpt>
      <trkpt lat="46.17934" lon="3.44631">
        <ele>339.81</ele>
        <time>2017-06-18T07:50:13Z</time>
      </trkpt>
      <trkpt lat="46.17934" lon="3.44602">
        <ele>339.53</ele>
        <time>2017-06-18T07:50:21Z</time>
      </trkpt>
      <trkpt lat="46.17928" lon="3.44576">
        <ele>334.93</ele>
        <time>2017-06-18T07:50:28Z</time>
      </trkpt>
      <trkpt lat="46.17932" lon="3.4455">
        <ele>331.17</ele>
        <time>2017-06-18T07:50:34Z</time>
      </trkpt>
      <trkpt lat="46.17934" lon="3.44523">
        <ele>333.86</ele>
        <time>2017-06-18T07:50:43Z</time>
      </trkpt>
      <trkpt lat="46.17941" lon="3.44497">
        <ele>335.55</ele>
        <time>2017-06-18T07:50:51Z</time>
      </trkpt>
      <trkpt lat="46.17944" lon="3.4447">
        <ele>334.43</ele>
        <time>2017-06-18T07:51:02Z</time>
      </trkpt>
      <trkpt lat="46.17951" lon="3.44443">
        <ele>331.85</ele>
        <time>2017-06-18T07:51:15Z</time>
      </trkpt>
      <trkpt lat="46.17964" lon="3.44419">
        <ele>331.92</ele>
        <time>2017-06-18T07:51:22Z</time>
      </trkpt>
      <trkpt lat="46.17977" lon="3.44402">
        <ele>331.2</ele>
        <time>2017-06-18T07:51:31Z</time>
      </trkpt>
      <trkpt lat="46.17992" lon="3.44384">
        <ele>341.16</ele>
        <time>2017-06-18T07:51:44Z</time>
      </trkpt>
      <trkpt lat="46.17996" lon="3.44357">
        <ele>346.34</ele>
        <time>2017-06-18T07:51:53Z</time>
      </trkpt>
      <trkpt lat="46.18002" lon="3.44332">
        <ele>351.73</ele>
        <time>2017-06-18T07:52:03Z</time>
      </trkpt>
      <trkpt lat="46.18004" lon="3.44306">
        <ele>357.23</ele>
        <time>2017-06-18T07:52:12Z</time>
      </trkpt>
      <trkpt lat="46.18009" lon="3.4428">
        <ele>352.37</ele>
        <time>2017-06-18T07:52:20Z</time>
      </trkpt>
      <trkpt lat="46.18012" lon="3.44253">
        <ele>350.36</ele>
        <time>2017-06-18T07:52:27Z</time>
      </trkpt>
      <trkpt lat="46.18019" lon="3.44227">
        <ele>357.14</ele>
        <time>2017-06-18T07:52:36Z</time>
      </trkpt>
      <trkpt lat="46.18022" lon="3.44201">
        <ele>359.92</ele>
        <time>2017-06-18T07:52:44Z</time>
      </trkpt>
      <trkpt lat="46.18005" lon="3.44188">
        <ele>362.29</ele>
        <time>2017-06-18T07:52:53Z</time>
      </trkpt>
      <trkpt lat="46.17988" lon="3.4418">
        <ele>365.23</ele>
        <time>2017-06-18T07:53:01Z</time>
      </trkpt>
      <trkpt lat="46.1797" lon="3.44173">
        <ele>368.31</ele>
        <time>2017-06-18T07:53:08Z</time>
      </trkpt>
      <trkpt lat="46.17955" lon="3.44153">
        <ele>372.24</ele>
        <time>2017-06-18T07:53:17Z</time>
      </trkpt>
      <trkpt lat="46.1795" lon="3.44128">
        <ele>372.53</ele>
        <time>2017-06-18T07:53:25Z</time>
      </trkpt>
      <trkpt lat="46.17946" lon="3.44099">
        <ele>374.52</ele>
        <time>2017-06-18T07:53:34Z</time>
      </trkpt>
      <trkpt lat="46.17945" lon="3.4407">
        <ele>379.45</ele>
        <time>2017-06-18T07:53:43Z</time>
      </trkpt>
      <trkpt lat="46.17939" lon="3.44044">
        <ele>379.53</ele>
        <time>2017-06-18T07:53:51Z</time>
      </trkpt>
      <trkpt lat="46.17923" lon="3.44027">
        <ele>378.95</ele>
        <time>2017-06-18T07:53:59Z</time>
      </trkpt>
      <trkpt lat="46.17903" lon="3.44024">
        <ele>379.55</ele>
        <time>2017-06-18T07:54:05Z</time>
      </trkpt>
      <trkpt lat="46.17886" lon="3.44015">
        <ele>380.45</ele>
        <time>2017-06-18T07:54:13Z</time>
      </trkpt>
      <trkpt lat="46.17868" lon="3.44007">
        <ele>384.25</ele>
        <time>2017-06-18T07:54:20Z</time>
      </trkpt>
      <trkpt lat="46.17853" lon="3.43993">
        <ele>380.7</ele>
        <time>2017-06-18T07:54:26Z</time>
      </trkpt>
      <trkpt lat="46.17836" lon="3.43979">
        <ele>378.86</ele>
        <time>2017-06-18T07:54:32Z</time>
      </trkpt>
      <trkpt lat="46.17817" lon="3.43969">
        <ele>376.94</ele>
        <time>2017-06-18T07:54:39Z</time>
      </trkpt>
      <trkpt lat="46.17798" lon="3.43967">
        <ele>377.55</ele>
        <time>2017-06-18T07:54:45Z</time>
      </trkpt>
      <trkpt lat="46.17779" lon="3.43973">
        <ele>380.24</ele>
        <time>2017-06-18T07:54:52Z</time>
      </trkpt>
      <trkpt lat="46.1776" lon="3.43982">
        <ele>382.16</ele>
        <time>2017-06-18T07:54:59Z</time>
      </trkpt>
      <trkpt lat="46.17742" lon="3.43992">
        <ele>383.55</ele>
        <time>2017-06-18T07:55:06Z</time>
      </trkpt>
      <trkpt lat="46.17725" lon="3.44003">
        <ele>381.88</ele>
        <time>2017-06-18T07:55:13Z</time>
      </trkpt>
      <trkpt lat="46.17708" lon="3.44014">
        <ele>380.53</ele>
        <time>2017-06-18T07:55:20Z</time>
      </trkpt>
      <trkpt lat="46.17689" lon="3.44026">
        <ele>381.52</ele>
        <time>2017-06-18T07:55:27Z</time>
      </trkpt>
      <trkpt lat="46.17671" lon="3.44038">
        <ele>381.28</ele>
        <time>2017-06-18T07:55:34Z</time>
      </trkpt>
      <trkpt lat="46.17654" lon="3.44052">
        <ele>382.55</ele>
        <time>2017-06-18T07:55:41Z</time>
      </trkpt>
      <trkpt lat="46.17635" lon="3.44067">
        <ele>380.88</ele>
        <time>2017-06-18T07:55:48Z</time>
      </trkpt>
      <trkpt lat="46.17618" lon="3.4408">
        <ele>379.64</ele>
        <time>2017-06-18T07:55:55Z</time>
      </trkpt>
      <trkpt lat="46.17606" lon="3.44102">
        <ele>377.58</ele>
        <time>2017-06-18T07:56:02Z</time>
      </trkpt>
      <trkpt lat="46.17596" lon="3.44125">
        <ele>381.22</ele>
        <time>2017-06-18T07:56:10Z</time>
      </trkpt>
      <trkpt lat="46.17587" lon="3.44151">
        <ele>380.53</ele>
        <time>2017-06-18T07:56:17Z</time>
      </trkpt>
      <trkpt lat="46.17577" lon="3.44178">
        <ele>381.48</ele>
        <time>2017-06-18T07:56:25Z</time>
      </trkpt>
      <trkpt lat="46.17569" lon="3.44205">
        <ele>381.55</ele>
        <time>2017-06-18T07:56:32Z</time>
      </trkpt>
      <trkpt lat="46.17559" lon="3.44227">
        <ele>380.64</ele>
        <time>2017-06-18T07:56:39Z</time>
      </trkpt>
      <trkpt lat="46.17549" lon="3.4425">
        <ele>382.47</ele>
        <time>2017-06-18T07:56:46Z</time>
      </trkpt>
      <trkpt lat="46.17536" lon="3.44272">
        <ele>384.62</ele>
        <time>2017-06-18T07:56:54Z</time>
      </trkpt>
      <trkpt lat="46.17522" lon="3.44293">
        <ele>387.46</ele>
        <time>2017-06-18T07:57:02Z</time>
      </trkpt>
      <trkpt lat="46.17508" lon="3.44312">
        <ele>390.25</ele>
        <time>2017-06-18T07:57:10Z</time>
      </trkpt>
      <trkpt lat="46.17496" lon="3.44333">
        <ele>394.24</ele>
        <time>2017-06-18T07:57:19Z</time>
      </trkpt>
      <trkpt lat="46.17481" lon="3.44352">
        <ele>396.46</ele>
        <time>2017-06-18T07:57:27Z</time>
      </trkpt>
      <trkpt lat="46.17481" lon="3.44378">
        <ele>395.65</ele>
        <time>2017-06-18T07:57:36Z</time>
      </trkpt>
      <trkpt lat="46.17494" lon="3.444">
        <ele>393.56</ele>
        <time>2017-06-18T07:57:43Z</time>
      </trkpt>
      <trkpt lat="46.17497" lon="3.44426">
        <ele>392.26</ele>
        <time>2017-06-18T07:57:50Z</time>
      </trkpt>
      <trkpt lat="46.17488" lon="3.44453">
        <ele>395.93</ele>
        <time>2017-06-18T07:57:59Z</time>
      </trkpt>
      <trkpt lat="46.17482" lon="3.44483">
        <ele>393.64</ele>
        <time>2017-06-18T07:58:06Z</time>
      </trkpt>
      <trkpt lat="46.17477" lon="3.4451">
        <ele>391.86</ele>
        <time>2017-06-18T07:58:12Z</time>
      </trkpt>
      <trkpt lat="46.17466" lon="3.44533">
        <ele>391.25</ele>
        <time>2017-06-18T07:58:19Z</time>
      </trkpt>
      <trkpt lat="46.1745" lon="3.44545">
        <ele>393.52</ele>
        <time>2017-06-18T07:58:26Z</time>
      </trkpt>
      <trkpt lat="46.17432" lon="3.44559">
        <ele>391.73</ele>
        <time>2017-06-18T07:58:33Z</time>
      </trkpt>
      <trkpt lat="46.17414" lon="3.44569">
        <ele>391.46</ele>
        <time>2017-06-18T07:58:40Z</time>
      </trkpt>
      <trkpt lat="46.174" lon="3.44586">
        <ele>390.56</ele>
        <time>2017-06-18T07:58:47Z</time>
      </trkpt>
      <trkpt lat="46.17388" lon="3.44609">
        <ele>388.56</ele>
        <time>2017-06-18T07:58:55Z</time>
      </trkpt>
      <trkpt lat="46.17396" lon="3.44634">
        <ele>385.88</ele>
        <time>2017-06-18T07:59:02Z</time>
      </trkpt>
      <trkpt lat="46.17405" lon="3.4466">
        <ele>382.67</ele>
        <time>2017-06-18T07:59:09Z</time>
      </trkpt>
      <trkpt lat="46.17414" lon="3.44683">
        <ele>378.96</ele>
        <time>2017-06-18T07:59:15Z</time>
      </trkpt>
      <trkpt lat="46.17424" lon="3.44707">
        <ele>375.58</ele>
        <time>2017-06-18T07:59:22Z</time>
      </trkpt>
      <trkpt lat="46.17422" lon="3.44734">
        <ele>379.4</ele>
        <time>2017-06-18T07:59:37Z</time>
      </trkpt>
      <trkpt lat="46.17408" lon="3.44757">
        <ele>378.89</ele>
        <time>2017-06-18T07:59:45Z</time>
      </trkpt>
      <trkpt lat="46.17393" lon="3.44776">
        <ele>390.53</ele>
        <time>2017-06-18T07:59:57Z</time>
      </trkpt>
      <trkpt lat="46.17378" lon="3.44793">
        <ele>388.77</ele>
        <time>2017-06-18T08:00:04Z</time>
      </trkpt>
      <trkpt lat="46.17362" lon="3.44806">
        <ele>386.88</ele>
        <time>2017-06-18T08:00:09Z</time>
      </trkpt>
      <trkpt lat="46.17344" lon="3.44819">
        <ele>388.83</ele>
        <time>2017-06-18T08:00:18Z</time>
      </trkpt>
      <trkpt lat="46.17326" lon="3.44824">
        <ele>389.11</ele>
        <time>2017-06-18T08:00:26Z</time>
      </trkpt>
      <trkpt lat="46.17306" lon="3.44828">
        <ele>387.37</ele>
        <time>2017-06-18T08:00:33Z</time>
      </trkpt>
      <trkpt lat="46.17285" lon="3.44829">
        <ele>387.15</ele>
        <time>2017-06-18T08:00:40Z</time>
      </trkpt>
      <trkpt lat="46.17265" lon="3.44827">
        <ele>389.49</ele>
        <time>2017-06-18T08:00:47Z</time>
      </trkpt>
      <trkpt lat="46.17245" lon="3.44827">
        <ele>388.49</ele>
        <time>2017-06-18T08:00:54Z</time>
      </trkpt>
      <trkpt lat="46.17228" lon="3.44816">
        <ele>387.49</ele>
        <time>2017-06-18T08:01:01Z</time>
      </trkpt>
      <trkpt lat="46.17212" lon="3.44801">
        <ele>389.53</ele>
        <time>2017-06-18T08:01:10Z</time>
      </trkpt>
      <trkpt lat="46.17217" lon="3.44826">
        <ele>391.62</ele>
        <time>2017-06-18T08:01:32Z</time>
      </trkpt>
      <trkpt lat="46.17233" lon="3.44839">
        <ele>388.86</ele>
        <time>2017-06-18T08:01:39Z</time>
      </trkpt>
      <trkpt lat="46.17249" lon="3.4485">
        <ele>384.23</ele>
        <time>2017-06-18T08:01:45Z</time>
      </trkpt>
      <trkpt lat="46.17267" lon="3.44866">
        <ele>385.52</ele>
        <time>2017-06-18T08:01:51Z</time>
      </trkpt>
      <trkpt lat="46.17284" lon="3.44876">
        <ele>385.78</ele>
        <time>2017-06-18T08:01:57Z</time>
      </trkpt>
      <trkpt lat="46.17305" lon="3.44873">
        <ele>379.12</ele>
        <time>2017-06-18T08:02:05Z</time>
      </trkpt>
      <trkpt lat="46.17323" lon="3.44875">
        <ele>378.49</ele>
        <time>2017-06-18T08:02:14Z</time>
      </trkpt>
      <trkpt lat="46.17341" lon="3.44874">
        <ele>368.43</ele>
        <time>2017-06-18T08:02:21Z</time>
      </trkpt>
      <trkpt lat="46.1736" lon="3.44871">
        <ele>358.89</ele>
        <time>2017-06-18T08:02:27Z</time>
      </trkpt>
      <trkpt lat="46.17378" lon="3.4487">
        <ele>357.7</ele>
        <time>2017-06-18T08:02:34Z</time>
      </trkpt>
      <trkpt lat="46.17397" lon="3.44879">
        <ele>352.78</ele>
        <time>2017-06-18T08:02:40Z</time>
      </trkpt>
      <trkpt lat="46.17417" lon="3.44881">
        <ele>354.71</ele>
        <time>2017-06-18T08:02:48Z</time>
      </trkpt>
      <trkpt lat="46.17436" lon="3.44894">
        <ele>355.83</ele>
        <time>2017-06-18T08:02:56Z</time>
      </trkpt>
      <trkpt lat="46.17448" lon="3.44919">
        <ele>352.56</ele>
        <time>2017-06-18T08:03:02Z</time>
      </trkpt>
      <trkpt lat="46.17459" lon="3.4494">
        <ele>348.6</ele>
        <time>2017-06-18T08:03:07Z</time>
      </trkpt>
      <trkpt lat="46.17471" lon="3.44962">
        <ele>346.86</ele>
        <time>2017-06-18T08:03:13Z</time>
      </trkpt>
      <trkpt lat="46.1748" lon="3.44987">
        <ele>345.85</ele>
        <time>2017-06-18T08:03:19Z</time>
      </trkpt>
      <trkpt lat="46.17493" lon="3.45007">
        <ele>344.28</ele>
        <time>2017-06-18T08:03:25Z</time>
      </trkpt>
      <trkpt lat="46.17505" lon="3.45027">
        <ele>343.83</ele>
        <time>2017-06-18T08:03:31Z</time>
      </trkpt>
      <trkpt lat="46.17517" lon="3.45048">
        <ele>341.65</ele>
        <time>2017-06-18T08:03:38Z</time>
      </trkpt>
      <trkpt lat="46.1753" lon="3.45072">
        <ele>340.86</ele>
        <time>2017-06-18T08:03:45Z</time>
      </trkpt>
      <trkpt lat="46.17538" lon="3.45099">
        <ele>338.58</ele>
        <time>2017-06-18T08:03:52Z</time>
      </trkpt>
      <trkpt lat="46.17535" lon="3.45127">
        <ele>339.34</ele>
        <time>2017-06-18T08:04:00Z</time>
      </trkpt>
      <trkpt lat="46.17517" lon="3.45138">
        <ele>337.56</ele>
        <time>2017-06-18T08:04:07Z</time>
      </trkpt>
      <trkpt lat="46.175" lon="3.45147">
        <ele>337.55</ele>
        <time>2017-06-18T08:04:14Z</time>
      </trkpt>
      <trkpt lat="46.17482" lon="3.45157">
        <ele>337.25</ele>
        <time>2017-06-18T08:04:22Z</time>
      </trkpt>
      <trkpt lat="46.17465" lon="3.45175">
        <ele>334.24</ele>
        <time>2017-06-18T08:04:29Z</time>
      </trkpt>
      <trkpt lat="46.17449" lon="3.45189">
        <ele>332.8</ele>
        <time>2017-06-18T08:04:36Z</time>
      </trkpt>
      <trkpt lat="46.17432" lon="3.45199">
        <ele>330.79</ele>
        <time>2017-06-18T08:04:44Z</time>
      </trkpt>
      <trkpt lat="46.17431" lon="3.4517">
        <ele>340.34</ele>
        <time>2017-06-18T08:04:58Z</time>
      </trkpt>
      <trkpt lat="46.1743" lon="3.4514">
        <ele>341.75</ele>
        <time>2017-06-18T08:05:04Z</time>
      </trkpt>
      <trkpt lat="46.1743" lon="3.45113">
        <ele>344.13</ele>
        <time>2017-06-18T08:05:11Z</time>
      </trkpt>
      <trkpt lat="46.17424" lon="3.45086">
        <ele>341.45</ele>
        <time>2017-06-18T08:05:17Z</time>
      </trkpt>
      <trkpt lat="46.17426" lon="3.45058">
        <ele>342.55</ele>
        <time>2017-06-18T08:05:24Z</time>
      </trkpt>
      <trkpt lat="46.17425" lon="3.45031">
        <ele>345.53</ele>
        <time>2017-06-18T08:05:32Z</time>
      </trkpt>
      <trkpt lat="46.17422" lon="3.45003">
        <ele>346.04</ele>
        <time>2017-06-18T08:05:40Z</time>
      </trkpt>
      <trkpt lat="46.17404" lon="3.44996">
        <ele>340.63</ele>
        <time>2017-06-18T08:05:45Z</time>
      </trkpt>
      <trkpt lat="46.17384" lon="3.45001">
        <ele>342.76</ele>
        <time>2017-06-18T08:05:53Z</time>
      </trkpt>
      <trkpt lat="46.17366" lon="3.45007">
        <ele>343.55</ele>
        <time>2017-06-18T08:06:00Z</time>
      </trkpt>
      <trkpt lat="46.17345" lon="3.45009">
        <ele>344.76</ele>
        <time>2017-06-18T08:06:08Z</time>
      </trkpt>
      <trkpt lat="46.17326" lon="3.45006">
        <ele>349.63</ele>
        <time>2017-06-18T08:06:17Z</time>
      </trkpt>
      <trkpt lat="46.17308" lon="3.45004">
        <ele>348.17</ele>
        <time>2017-06-18T08:06:24Z</time>
      </trkpt>
      <trkpt lat="46.1729" lon="3.45005">
        <ele>346.14</ele>
        <time>2017-06-18T08:06:33Z</time>
      </trkpt>
      <trkpt lat="46.17271" lon="3.45005">
        <ele>345.55</ele>
        <time>2017-06-18T08:06:40Z</time>
      </trkpt>
      <trkpt lat="46.17252" lon="3.45">
        <ele>346.22</ele>
        <time>2017-06-18T08:06:47Z</time>
      </trkpt>
      <trkpt lat="46.17234" lon="3.44994">
        <ele>344.2</ele>
        <time>2017-06-18T08:06:53Z</time>
      </trkpt>
      <trkpt lat="46.17214" lon="3.44987">
        <ele>345.78</ele>
        <time>2017-06-18T08:07:01Z</time>
      </trkpt>
      <trkpt lat="46.17196" lon="3.44979">
        <ele>348.24</ele>
        <time>2017-06-18T08:07:09Z</time>
      </trkpt>
      <trkpt lat="46.17179" lon="3.44966">
        <ele>350.44</ele>
        <time>2017-06-18T08:07:17Z</time>
      </trkpt>
      <trkpt lat="46.17163" lon="3.44954">
        <ele>354.84</ele>
        <time>2017-06-18T08:07:26Z</time>
      </trkpt>
      <trkpt lat="46.17148" lon="3.44937">
        <ele>349.86</ele>
        <time>2017-06-18T08:07:32Z</time>
      </trkpt>
      <trkpt lat="46.1713" lon="3.44929">
        <ele>349.98</ele>
        <time>2017-06-18T08:07:42Z</time>
      </trkpt>
      <trkpt lat="46.17116" lon="3.44945">
        <ele>363.17</ele>
        <time>2017-06-18T08:07:54Z</time>
      </trkpt>
      <trkpt lat="46.17106" lon="3.44968">
        <ele>370.75</ele>
        <time>2017-06-18T08:08:03Z</time>
      </trkpt>
      <trkpt lat="46.17097" lon="3.44991">
        <ele>372.21</ele>
        <time>2017-06-18T08:08:11Z</time>
      </trkpt>
      <trkpt lat="46.17092" lon="3.44964">
        <ele>368.43</ele>
        <time>2017-06-18T08:08:24Z</time>
      </trkpt>
      <trkpt lat="46.17094" lon="3.44936">
        <ele>378.15</ele>
        <time>2017-06-18T08:08:42Z</time>
      </trkpt>
      <trkpt lat="46.17097" lon="3.44908">
        <ele>378.92</ele>
        <time>2017-06-18T08:08:50Z</time>
      </trkpt>
      <trkpt lat="46.17093" lon="3.44882">
        <ele>382.23</ele>
        <time>2017-06-18T08:09:00Z</time>
      </trkpt>
      <trkpt lat="46.17087" lon="3.44856">
        <ele>374.5</ele>
        <time>2017-06-18T08:09:11Z</time>
      </trkpt>
      <trkpt lat="46.17081" lon="3.44831">
        <ele>380.14</ele>
        <time>2017-06-18T08:09:23Z</time>
      </trkpt>
      <trkpt lat="46.1708" lon="3.44801">
        <ele>381.88</ele>
        <time>2017-06-18T08:09:35Z</time>
      </trkpt>
      <trkpt lat="46.17077" lon="3.44775">
        <ele>386.84</ele>
        <time>2017-06-18T08:09:43Z</time>
      </trkpt>
      <trkpt lat="46.17067" lon="3.44752">
        <ele>398.61</ele>
        <time>2017-06-18T08:09:57Z</time>
      </trkpt>
      <trkpt lat="46.17047" lon="3.44745">
        <ele>397.22</ele>
        <time>2017-06-18T08:10:03Z</time>
      </trkpt>
      <trkpt lat="46.17029" lon="3.44737">
        <ele>398.51</ele>
        <time>2017-06-18T08:10:11Z</time>
      </trkpt>
      <trkpt lat="46.1701" lon="3.44735">
        <ele>397.71</ele>
        <time>2017-06-18T08:10:18Z</time>
      </trkpt>
      <trkpt lat="46.16992" lon="3.44733">
        <ele>398.86</ele>
        <time>2017-06-18T08:10:27Z</time>
      </trkpt>
      <trkpt lat="46.16975" lon="3.44744">
        <ele>398.06</ele>
        <time>2017-06-18T08:10:34Z</time>
      </trkpt>
      <trkpt lat="46.16964" lon="3.44769">
        <ele>396.55</ele>
        <time>2017-06-18T08:10:42Z</time>
      </trkpt>
      <trkpt lat="46.16957" lon="3.44795">
        <ele>397.23</ele>
        <time>2017-06-18T08:10:50Z</time>
      </trkpt>
      <trkpt lat="46.16949" lon="3.44818">
        <ele>399.25</ele>
        <time>2017-06-18T08:10:58Z</time>
      </trkpt>
      <trkpt lat="46.16941" lon="3.44843">
        <ele>401.52</ele>
        <time>2017-06-18T08:11:06Z</time>
      </trkpt>
      <trkpt lat="46.16931" lon="3.44866">
        <ele>405.06</ele>
        <time>2017-06-18T08:11:15Z</time>
      </trkpt>
      <trkpt lat="46.1692" lon="3.44889">
        <ele>410.5</ele>
        <time>2017-06-18T08:11:24Z</time>
      </trkpt>
      <trkpt lat="46.16911" lon="3.44914">
        <ele>410.64</ele>
        <time>2017-06-18T08:11:33Z</time>
      </trkpt>
      <trkpt lat="46.169" lon="3.44936">
        <ele>412.55</ele>
        <time>2017-06-18T08:11:41Z</time>
      </trkpt>
      <trkpt lat="46.16886" lon="3.44957">
        <ele>414.23</ele>
        <time>2017-06-18T08:11:49Z</time>
      </trkpt>
      <trkpt lat="46.16873" lon="3.44975">
        <ele>414.76</ele>
        <time>2017-06-18T08:11:56Z</time>
      </trkpt>
      <trkpt lat="46.16859" lon="3.44994">
        <ele>411.65</ele>
        <time>2017-06-18T08:12:03Z</time>
      </trkpt>
      <trkpt lat="46.16844" lon="3.45009">
        <ele>411.55</ele>
        <time>2017-06-18T08:12:10Z</time>
      </trkpt>
      <trkpt lat="46.16828" lon="3.45032">
        <ele>408.05</ele>
        <time>2017-06-18T08:12:17Z</time>
      </trkpt>
      <trkpt lat="46.16812" lon="3.45046">
        <ele>400.96</ele>
        <time>2017-06-18T08:12:24Z</time>
      </trkpt>
      <trkpt lat="46.16793" lon="3.45049">
        <ele>398.29</ele>
        <time>2017-06-18T08:12:31Z</time>
      </trkpt>
      <trkpt lat="46.16775" lon="3.4505">
        <ele>395.65</ele>
        <time>2017-06-18T08:12:37Z</time>
      </trkpt>
      <trkpt lat="46.16756" lon="3.4505">
        <ele>395.49</ele>
        <time>2017-06-18T08:12:43Z</time>
      </trkpt>
      <trkpt lat="46.16736" lon="3.4505">
        <ele>390.68</ele>
        <time>2017-06-18T08:12:50Z</time>
      </trkpt>
      <trkpt lat="46.16716" lon="3.45048">
        <ele>391.75</ele>
        <time>2017-06-18T08:12:57Z</time>
      </trkpt>
      <trkpt lat="46.16697" lon="3.45046">
        <ele>391.64</ele>
        <time>2017-06-18T08:13:03Z</time>
      </trkpt>
      <trkpt lat="46.16678" lon="3.45045">
        <ele>390.77</ele>
        <time>2017-06-18T08:13:10Z</time>
      </trkpt>
      <trkpt lat="46.16662" lon="3.45031">
        <ele>389.65</ele>
        <time>2017-06-18T08:13:17Z</time>
      </trkpt>
      <trkpt lat="46.1665" lon="3.45011">
        <ele>387.67</ele>
        <time>2017-06-18T08:13:23Z</time>
      </trkpt>
      <trkpt lat="46.16637" lon="3.44991">
        <ele>385.26</ele>
        <time>2017-06-18T08:13:30Z</time>
      </trkpt>
      <trkpt lat="46.1662" lon="3.44977">
        <ele>389.15</ele>
        <time>2017-06-18T08:13:38Z</time>
      </trkpt>
      <trkpt lat="46.16602" lon="3.44968">
        <ele>388.06</ele>
        <time>2017-06-18T08:13:43Z</time>
      </trkpt>
      <trkpt lat="46.16582" lon="3.44963">
        <ele>383.86</ele>
        <time>2017-06-18T08:13:48Z</time>
      </trkpt>
      <trkpt lat="46.16564" lon="3.44964">
        <ele>384.55</ele>
        <time>2017-06-18T08:13:55Z</time>
      </trkpt>
      <trkpt lat="46.16545" lon="3.44967">
        <ele>386.27</ele>
        <time>2017-06-18T08:14:02Z</time>
      </trkpt>
      <trkpt lat="46.16525" lon="3.44976">
        <ele>388.55</ele>
        <time>2017-06-18T08:14:10Z</time>
      </trkpt>
      <trkpt lat="46.16508" lon="3.44991">
        <ele>393.46</ele>
        <time>2017-06-18T08:14:19Z</time>
      </trkpt>
      <trkpt lat="46.1649" lon="3.45007">
        <ele>393.93</ele>
        <time>2017-06-18T08:14:26Z</time>
      </trkpt>
      <trkpt lat="46.16475" lon="3.4502">
        <ele>393.85</ele>
        <time>2017-06-18T08:14:32Z</time>
      </trkpt>
      <trkpt lat="46.16459" lon="3.45035">
        <ele>391.65</ele>
        <time>2017-06-18T08:14:38Z</time>
      </trkpt>
      <trkpt lat="46.1644" lon="3.45045">
        <ele>390.55</ele>
        <time>2017-06-18T08:14:45Z</time>
      </trkpt>
      <trkpt lat="46.16421" lon="3.45052">
        <ele>391.55</ele>
        <time>2017-06-18T08:14:52Z</time>
      </trkpt>
      <trkpt lat="46.16403" lon="3.45059">
        <ele>391.47</ele>
        <time>2017-06-18T08:15:00Z</time>
      </trkpt>
      <trkpt lat="46.16384" lon="3.45063">
        <ele>391.87</ele>
        <time>2017-06-18T08:15:07Z</time>
      </trkpt>
      <trkpt lat="46.16365" lon="3.45064">
        <ele>396.51</ele>
        <time>2017-06-18T08:15:17Z</time>
      </trkpt>
      <trkpt lat="46.16346" lon="3.45071">
        <ele>400.37</ele>
        <time>2017-06-18T08:15:25Z</time>
      </trkpt>
      <trkpt lat="46.16326" lon="3.45078">
        <ele>400.49</ele>
        <time>2017-06-18T08:15:32Z</time>
      </trkpt>
      <trkpt lat="46.16305" lon="3.45082">
        <ele>398.05</ele>
        <time>2017-06-18T08:15:39Z</time>
      </trkpt>
      <trkpt lat="46.16286" lon="3.45081">
        <ele>397.55</ele>
        <time>2017-06-18T08:15:46Z</time>
      </trkpt>
      <trkpt lat="46.16267" lon="3.45083">
        <ele>395.45</ele>
        <time>2017-06-18T08:15:52Z</time>
      </trkpt>
      <trkpt lat="46.16248" lon="3.45084">
        <ele>392.67</ele>
        <time>2017-06-18T08:15:59Z</time>
      </trkpt>
      <trkpt lat="46.16229" lon="3.45091">
        <ele>393.25</ele>
        <time>2017-06-18T08:16:06Z</time>
      </trkpt>
      <trkpt lat="46.16211" lon="3.45101">
        <ele>393.47</ele>
        <time>2017-06-18T08:16:13Z</time>
      </trkpt>
      <trkpt lat="46.16192" lon="3.45112">
        <ele>393.55</ele>
        <time>2017-06-18T08:16:20Z</time>
      </trkpt>
      <trkpt lat="46.16175" lon="3.45121">
        <ele>394.44</ele>
        <time>2017-06-18T08:16:27Z</time>
      </trkpt>
      <trkpt lat="46.16158" lon="3.4513">
        <ele>396.82</ele>
        <time>2017-06-18T08:16:34Z</time>
      </trkpt>
      <trkpt lat="46.16141" lon="3.45141">
        <ele>398.46</ele>
        <time>2017-06-18T08:16:41Z</time>
      </trkpt>
      <trkpt lat="46.16123" lon="3.45154">
        <ele>403.43</ele>
        <time>2017-06-18T08:16:49Z</time>
      </trkpt>
      <trkpt lat="46.16113" lon="3.4518">
        <ele>404.76</ele>
        <time>2017-06-18T08:16:56Z</time>
      </trkpt>
      <trkpt lat="46.16105" lon="3.45206">
        <ele>404.55</ele>
        <time>2017-06-18T08:17:02Z</time>
      </trkpt>
      <trkpt lat="46.16097" lon="3.45233">
        <ele>403.64</ele>
        <time>2017-06-18T08:17:09Z</time>
      </trkpt>
      <trkpt lat="46.1609" lon="3.45257">
        <ele>402.58</ele>
        <time>2017-06-18T08:17:15Z</time>
      </trkpt>
      <trkpt lat="46.16085" lon="3.45287">
        <ele>402.8</ele>
        <time>2017-06-18T08:17:23Z</time>
      </trkpt>
      <trkpt lat="46.16085" lon="3.45314">
        <ele>400.85</ele>
        <time>2017-06-18T08:17:29Z</time>
      </trkpt>
      <trkpt lat="46.16088" lon="3.4534">
        <ele>401.53</ele>
        <time>2017-06-18T08:17:35Z</time>
      </trkpt>
      <trkpt lat="46.16089" lon="3.4537">
        <ele>405.24</ele>
        <time>2017-06-18T08:17:42Z</time>
      </trkpt>
      <trkpt lat="46.16092" lon="3.454">
        <ele>405.46</ele>
        <time>2017-06-18T08:17:49Z</time>
      </trkpt>
      <trkpt lat="46.16095" lon="3.45427">
        <ele>406.55</ele>
        <time>2017-06-18T08:17:56Z</time>
      </trkpt>
      <trkpt lat="46.16099" lon="3.45454">
        <ele>407.26</ele>
        <time>2017-06-18T08:18:03Z</time>
      </trkpt>
      <trkpt lat="46.16095" lon="3.45482">
        <ele>407.79</ele>
        <time>2017-06-18T08:18:12Z</time>
      </trkpt>
      <trkpt lat="46.16093" lon="3.45511">
        <ele>406.55</ele>
        <time>2017-06-18T08:18:20Z</time>
      </trkpt>
      <trkpt lat="46.16096" lon="3.4554">
        <ele>405.28</ele>
        <time>2017-06-18T08:18:27Z</time>
      </trkpt>
      <trkpt lat="46.16106" lon="3.45566">
        <ele>403.4</ele>
        <time>2017-06-18T08:18:34Z</time>
      </trkpt>
      <trkpt lat="46.16122" lon="3.45581">
        <ele>402.56</ele>
        <time>2017-06-18T08:18:41Z</time>
      </trkpt>
      <trkpt lat="46.16139" lon="3.45596">
        <ele>403.53</ele>
        <time>2017-06-18T08:18:49Z</time>
      </trkpt>
      <trkpt lat="46.16157" lon="3.45613">
        <ele>400.75</ele>
        <time>2017-06-18T08:18:55Z</time>
      </trkpt>
      <trkpt lat="46.16177" lon="3.45618">
        <ele>398.86</ele>
        <time>2017-06-18T08:19:02Z</time>
      </trkpt>
      <trkpt lat="46.16198" lon="3.45614">
        <ele>401.24</ele>
        <time>2017-06-18T08:19:09Z</time>
      </trkpt>
      <trkpt lat="46.16216" lon="3.45605">
        <ele>399.33</ele>
        <time>2017-06-18T08:19:15Z</time>
      </trkpt>
      <trkpt lat="46.16232" lon="3.45592">
        <ele>399.81</ele>
        <time>2017-06-18T08:19:22Z</time>
      </trkpt>
      <trkpt lat="46.16249" lon="3.45572">
        <ele>399.78</ele>
        <time>2017-06-18T08:19:30Z</time>
      </trkpt>
      <trkpt lat="46.16262" lon="3.45553">
        <ele>399.65</ele>
        <time>2017-06-18T08:19:38Z</time>
      </trkpt>
      <trkpt lat="46.16275" lon="3.45532">
        <ele>393.86</ele>
        <time>2017-06-18T08:19:50Z</time>
      </trkpt>
      <trkpt lat="46.16292" lon="3.45514">
        <ele>394.34</ele>
        <time>2017-06-18T08:19:57Z</time>
      </trkpt>
      <trkpt lat="46.16302" lon="3.4549">
        <ele>400.13</ele>
        <time>2017-06-18T08:20:06Z</time>
      </trkpt>
      <trkpt lat="46.16308" lon="3.45465">
        <ele>406.18</ele>
        <time>2017-06-18T08:20:13Z</time>
      </trkpt>
      <trkpt lat="46.16313" lon="3.45436">
        <ele>406.55</ele>
        <time>2017-06-18T08:20:19Z</time>
      </trkpt>
      <trkpt lat="46.16317" lon="3.45407">
        <ele>404.01</ele>
        <time>2017-06-18T08:20:26Z</time>
      </trkpt>
      <trkpt lat="46.16318" lon="3.4538">
        <ele>397.05</ele>
        <time>2017-06-18T08:20:32Z</time>
      </trkpt>
      <trkpt lat="46.16319" lon="3.4535">
        <ele>402.36</ele>
        <time>2017-06-18T08:20:38Z</time>
      </trkpt>
      <trkpt lat="46.16307" lon="3.4533">
        <ele>403.32</ele>
        <time>2017-06-18T08:20:45Z</time>
      </trkpt>
      <trkpt lat="46.16297" lon="3.45308">
        <ele>402.58</ele>
        <time>2017-06-18T08:20:53Z</time>
      </trkpt>
      <trkpt lat="46.16313" lon="3.45322">
        <ele>405.25</ele>
        <time>2017-06-18T08:21:15Z</time>
      </trkpt>
      <trkpt lat="46.16327" lon="3.45339">
        <ele>396.55</ele>
        <time>2017-06-18T08:21:23Z</time>
      </trkpt>
      <trkpt lat="46.1634" lon="3.45361">
        <ele>446.57</ele>
        <time>2017-06-18T08:21:29Z</time>
      </trkpt>
      <trkpt lat="46.1635" lon="3.45387">
        <ele>404.86</ele>
        <time>2017-06-18T08:21:36Z</time>
      </trkpt>
      <trkpt lat="46.16362" lon="3.45412">
        <ele>399.56</ele>
        <time>2017-06-18T08:21:42Z</time>
      </trkpt>
      <trkpt lat="46.16372" lon="3.4544">
        <ele>386.86</ele>
        <time>2017-06-18T08:21:46Z</time>
      </trkpt>
      <trkpt lat="46.16376" lon="3.45468">
        <ele>374.99</ele>
        <time>2017-06-18T08:21:53Z</time>
      </trkpt>
      <trkpt lat="46.16384" lon="3.45491">
        <ele>374.91</ele>
        <time>2017-06-18T08:22:00Z</time>
      </trkpt>
      <trkpt lat="46.16393" lon="3.45516">
        <ele>368.57</ele>
        <time>2017-06-18T08:22:07Z</time>
      </trkpt>
      <trkpt lat="46.164" lon="3.45541">
        <ele>365.71</ele>
        <time>2017-06-18T08:22:14Z</time>
      </trkpt>
      <trkpt lat="46.1639" lon="3.45565">
        <ele>366.56</ele>
        <time>2017-06-18T08:22:22Z</time>
      </trkpt>
      <trkpt lat="46.16386" lon="3.45591">
        <ele>366.36</ele>
        <time>2017-06-18T08:22:29Z</time>
      </trkpt>
      <trkpt lat="46.16367" lon="3.456">
        <ele>365.8</ele>
        <time>2017-06-18T08:22:36Z</time>
      </trkpt>
      <trkpt lat="46.16356" lon="3.45624">
        <ele>368.52</ele>
        <time>2017-06-18T08:22:44Z</time>
      </trkpt>
      <trkpt lat="46.16342" lon="3.45647">
        <ele>371.45</ele>
        <time>2017-06-18T08:22:52Z</time>
      </trkpt>
      <trkpt lat="46.16326" lon="3.45663">
        <ele>375.33</ele>
        <time>2017-06-18T08:23:00Z</time>
      </trkpt>
      <trkpt lat="46.16314" lon="3.45686">
        <ele>369.51</ele>
        <time>2017-06-18T08:23:05Z</time>
      </trkpt>
      <trkpt lat="46.16305" lon="3.45713">
        <ele>369.83</ele>
        <time>2017-06-18T08:23:12Z</time>
      </trkpt>
      <trkpt lat="46.16291" lon="3.45733">
        <ele>373.45</ele>
        <time>2017-06-18T08:23:21Z</time>
      </trkpt>
      <trkpt lat="46.16285" lon="3.4576">
        <ele>373.79</ele>
        <time>2017-06-18T08:23:28Z</time>
      </trkpt>
      <trkpt lat="46.16277" lon="3.4579">
        <ele>368.64</ele>
        <time>2017-06-18T08:23:35Z</time>
      </trkpt>
      <trkpt lat="46.16258" lon="3.45792">
        <ele>363.55</ele>
        <time>2017-06-18T08:23:46Z</time>
      </trkpt>
      <trkpt lat="46.16242" lon="3.45778">
        <ele>366.85</ele>
        <time>2017-06-18T08:23:57Z</time>
      </trkpt>
      <trkpt lat="46.16228" lon="3.45761">
        <ele>380.25</ele>
        <time>2017-06-18T08:24:11Z</time>
      </trkpt>
      <trkpt lat="46.16211" lon="3.45749">
        <ele>388.25</ele>
        <time>2017-06-18T08:24:23Z</time>
      </trkpt>
      <trkpt lat="46.16198" lon="3.45731">
        <ele>387.58</ele>
        <time>2017-06-18T08:24:32Z</time>
      </trkpt>
      <trkpt lat="46.16179" lon="3.4572">
        <ele>378.27</ele>
        <time>2017-06-18T08:24:38Z</time>
      </trkpt>
      <trkpt lat="46.16164" lon="3.45703">
        <ele>377.41</ele>
        <time>2017-06-18T08:24:47Z</time>
      </trkpt>
      <trkpt lat="46.16151" lon="3.45684">
        <ele>383.13</ele>
        <time>2017-06-18T08:24:55Z</time>
      </trkpt>
      <trkpt lat="46.16136" lon="3.45669">
        <ele>386.45</ele>
        <time>2017-06-18T08:25:03Z</time>
      </trkpt>
      <trkpt lat="46.16122" lon="3.45651">
        <ele>391.22</ele>
        <time>2017-06-18T08:25:12Z</time>
      </trkpt>
      <trkpt lat="46.16104" lon="3.45638">
        <ele>382.84</ele>
        <time>2017-06-18T08:25:18Z</time>
      </trkpt>
      <trkpt lat="46.16089" lon="3.45621">
        <ele>379.57</ele>
        <time>2017-06-18T08:25:26Z</time>
      </trkpt>
      <trkpt lat="46.16069" lon="3.45613">
        <ele>376.22</ele>
        <time>2017-06-18T08:25:33Z</time>
      </trkpt>
      <trkpt lat="46.16051" lon="3.45604">
        <ele>370.89</ele>
        <time>2017-06-18T08:25:39Z</time>
      </trkpt>
      <trkpt lat="46.16029" lon="3.45602">
        <ele>363.96</ele>
        <time>2017-06-18T08:25:45Z</time>
      </trkpt>
      <trkpt lat="46.1601" lon="3.45598">
        <ele>358.17</ele>
        <time>2017-06-18T08:25:52Z</time>
      </trkpt>
      <trkpt lat="46.15992" lon="3.45603">
        <ele>358.61</ele>
        <time>2017-06-18T08:25:58Z</time>
      </trkpt>
      <trkpt lat="46.15973" lon="3.45597">
        <ele>354.65</ele>
        <time>2017-06-18T08:26:08Z</time>
      </trkpt>
      <trkpt lat="46.15967" lon="3.4557">
        <ele>355.76</ele>
        <time>2017-06-18T08:26:17Z</time>
      </trkpt>
      <trkpt lat="46.15955" lon="3.4555">
        <ele>354.55</ele>
        <time>2017-06-18T08:26:26Z</time>
      </trkpt>
      <trkpt lat="46.15939" lon="3.45537">
        <ele>369.2</ele>
        <time>2017-06-18T08:26:40Z</time>
      </trkpt>
      <trkpt lat="46.15921" lon="3.45522">
        <ele>373.68</ele>
        <time>2017-06-18T08:26:52Z</time>
      </trkpt>
      <trkpt lat="46.15911" lon="3.45498">
        <ele>375.33</ele>
        <time>2017-06-18T08:27:03Z</time>
      </trkpt>
      <trkpt lat="46.15915" lon="3.45471">
        <ele>374.35</ele>
        <time>2017-06-18T08:27:16Z</time>
      </trkpt>
      <trkpt lat="46.15923" lon="3.45446">
        <ele>383.13</ele>
        <time>2017-06-18T08:27:27Z</time>
      </trkpt>
      <trkpt lat="46.1593" lon="3.45422">
        <ele>389.79</ele>
        <time>2017-06-18T08:27:37Z</time>
      </trkpt>
      <trkpt lat="46.15932" lon="3.45394">
        <ele>391.55</ele>
        <time>2017-06-18T08:27:45Z</time>
      </trkpt>
      <trkpt lat="46.15932" lon="3.45366">
        <ele>392.26</ele>
        <time>2017-06-18T08:27:53Z</time>
      </trkpt>
      <trkpt lat="46.15927" lon="3.4534">
        <ele>393.26</ele>
        <time>2017-06-18T08:28:01Z</time>
      </trkpt>
      <trkpt lat="46.15921" lon="3.45313">
        <ele>400.24</ele>
        <time>2017-06-18T08:28:12Z</time>
      </trkpt>
      <trkpt lat="46.15916" lon="3.45288">
        <ele>399.03</ele>
        <time>2017-06-18T08:28:21Z</time>
      </trkpt>
      <trkpt lat="46.15902" lon="3.45269">
        <ele>400.6</ele>
        <time>2017-06-18T08:28:31Z</time>
      </trkpt>
      <trkpt lat="46.1589" lon="3.45248">
        <ele>400.95</ele>
        <time>2017-06-18T08:28:41Z</time>
      </trkpt>
      <trkpt lat="46.15876" lon="3.45227">
        <ele>405.06</ele>
        <time>2017-06-18T08:28:52Z</time>
      </trkpt>
      <trkpt lat="46.15864" lon="3.45206">
        <ele>410.43</ele>
        <time>2017-06-18T08:29:02Z</time>
      </trkpt>
      <trkpt lat="46.15856" lon="3.45183">
        <ele>415.43</ele>
        <time>2017-06-18T08:29:12Z</time>
      </trkpt>
      <trkpt lat="46.15847" lon="3.45157">
        <ele>416.86</ele>
        <time>2017-06-18T08:29:21Z</time>
      </trkpt>
      <trkpt lat="46.15843" lon="3.45131">
        <ele>418.48</ele>
        <time>2017-06-18T08:29:30Z</time>
      </trkpt>
      <trkpt lat="46.15847" lon="3.45104">
        <ele>424.41</ele>
        <time>2017-06-18T08:29:40Z</time>
      </trkpt>
      <trkpt lat="46.15849" lon="3.45078">
        <ele>419.64</ele>
        <time>2017-06-18T08:29:47Z</time>
      </trkpt>
      <trkpt lat="46.1583" lon="3.45076">
        <ele>421.53</ele>
        <time>2017-06-18T08:29:56Z</time>
      </trkpt>
      <trkpt lat="46.15811" lon="3.45083">
        <ele>420.65</ele>
        <time>2017-06-18T08:30:04Z</time>
      </trkpt>
      <trkpt lat="46.15791" lon="3.45091">
        <ele>418.64</ele>
        <time>2017-06-18T08:30:12Z</time>
      </trkpt>
      <trkpt lat="46.15772" lon="3.45099">
        <ele>415.88</ele>
        <time>2017-06-18T08:30:19Z</time>
      </trkpt>
      <trkpt lat="46.15752" lon="3.45106">
        <ele>414.64</ele>
        <time>2017-06-18T08:30:26Z</time>
      </trkpt>
      <trkpt lat="46.15733" lon="3.45111">
        <ele>411.16</ele>
        <time>2017-06-18T08:30:33Z</time>
      </trkpt>
      <trkpt lat="46.15713" lon="3.45117">
        <ele>410.56</ele>
        <time>2017-06-18T08:30:40Z</time>
      </trkpt>
      <trkpt lat="46.15694" lon="3.45122">
        <ele>408.64</ele>
        <time>2017-06-18T08:30:47Z</time>
      </trkpt>
      <trkpt lat="46.15677" lon="3.45131">
        <ele>407.58</ele>
        <time>2017-06-18T08:30:54Z</time>
      </trkpt>
      <trkpt lat="46.15662" lon="3.45149">
        <ele>405.62</ele>
        <time>2017-06-18T08:31:00Z</time>
      </trkpt>
      <trkpt lat="46.1565" lon="3.4517">
        <ele>404.56</ele>
        <time>2017-06-18T08:31:06Z</time>
      </trkpt>
      <trkpt lat="46.15638" lon="3.45192">
        <ele>404.55</ele>
        <time>2017-06-18T08:31:13Z</time>
      </trkpt>
      <trkpt lat="46.15625" lon="3.45211">
        <ele>416.37</ele>
        <time>2017-06-18T08:31:20Z</time>
      </trkpt>
      <trkpt lat="46.1561" lon="3.45229">
        <ele>412.41</ele>
        <time>2017-06-18T08:31:27Z</time>
      </trkpt>
      <trkpt lat="46.15598" lon="3.45252">
        <ele>404.77</ele>
        <time>2017-06-18T08:31:34Z</time>
      </trkpt>
      <trkpt lat="46.1559" lon="3.45276">
        <ele>399.26</ele>
        <time>2017-06-18T08:31:43Z</time>
      </trkpt>
      <trkpt lat="46.15584" lon="3.45303">
        <ele>400.46</ele>
        <time>2017-06-18T08:31:53Z</time>
      </trkpt>
      <trkpt lat="46.15573" lon="3.45324">
        <ele>397.29</ele>
        <time>2017-06-18T08:32:02Z</time>
      </trkpt>
      <trkpt lat="46.15568" lon="3.4535">
        <ele>386.01</ele>
        <time>2017-06-18T08:32:09Z</time>
      </trkpt>
      <trkpt lat="46.1556" lon="3.45374">
        <ele>376.31</ele>
        <time>2017-06-18T08:32:15Z</time>
      </trkpt>
      <trkpt lat="46.1556" lon="3.45404">
        <ele>378.43</ele>
        <time>2017-06-18T08:32:21Z</time>
      </trkpt>
      <trkpt lat="46.15569" lon="3.45429">
        <ele>375.42</ele>
        <time>2017-06-18T08:32:28Z</time>
      </trkpt>
      <trkpt lat="46.15575" lon="3.45456">
        <ele>366.91</ele>
        <time>2017-06-18T08:32:33Z</time>
      </trkpt>
      <trkpt lat="46.1558" lon="3.45483">
        <ele>360.32</ele>
        <time>2017-06-18T08:32:39Z</time>
      </trkpt>
      <trkpt lat="46.15592" lon="3.45506">
        <ele>350.99</ele>
        <time>2017-06-18T08:32:46Z</time>
      </trkpt>
      <trkpt lat="46.15605" lon="3.45527">
        <ele>347.36</ele>
        <time>2017-06-18T08:32:54Z</time>
      </trkpt>
      <trkpt lat="46.15603" lon="3.45556">
        <ele>351.23</ele>
        <time>2017-06-18T08:33:02Z</time>
      </trkpt>
      <trkpt lat="46.15597" lon="3.45583">
        <ele>356.43</ele>
        <time>2017-06-18T08:33:09Z</time>
      </trkpt>
      <trkpt lat="46.15589" lon="3.45607">
        <ele>401.36</ele>
        <time>2017-06-18T08:33:15Z</time>
      </trkpt>
      <trkpt lat="46.15578" lon="3.45632">
        <ele>375.6</ele>
        <time>2017-06-18T08:33:22Z</time>
      </trkpt>
      <trkpt lat="46.15574" lon="3.4566">
        <ele>354.16</ele>
        <time>2017-06-18T08:33:27Z</time>
      </trkpt>
      <trkpt lat="46.15582" lon="3.45685">
        <ele>346.09</ele>
        <time>2017-06-18T08:33:35Z</time>
      </trkpt>
      <trkpt lat="46.15593" lon="3.45707">
        <ele>343.48</ele>
        <time>2017-06-18T08:33:42Z</time>
      </trkpt>
      <trkpt lat="46.15606" lon="3.45728">
        <ele>343.55</ele>
        <time>2017-06-18T08:33:49Z</time>
      </trkpt>
      <trkpt lat="46.15618" lon="3.45748">
        <ele>340.89</ele>
        <time>2017-06-18T08:33:56Z</time>
      </trkpt>
      <trkpt lat="46.15625" lon="3.45774">
        <ele>349.98</ele>
        <time>2017-06-18T08:34:07Z</time>
      </trkpt>
      <trkpt lat="46.15619" lon="3.45801">
        <ele>345.71</ele>
        <time>2017-06-18T08:34:12Z</time>
      </trkpt>
      <trkpt lat="46.15611" lon="3.45827">
        <ele>348.81</ele>
        <time>2017-06-18T08:34:20Z</time>
      </trkpt>
      <trkpt lat="46.15599" lon="3.45849">
        <ele>337.13</ele>
        <time>2017-06-18T08:34:24Z</time>
      </trkpt>
      <trkpt lat="46.15581" lon="3.45855">
        <ele>342.43</ele>
        <time>2017-06-18T08:34:32Z</time>
      </trkpt>
      <trkpt lat="46.15564" lon="3.45865">
        <ele>344.88</ele>
        <time>2017-06-18T08:34:39Z</time>
      </trkpt>
      <trkpt lat="46.15561" lon="3.45891">
        <ele>339.67</ele>
        <time>2017-06-18T08:34:45Z</time>
      </trkpt>
      <trkpt lat="46.15561" lon="3.4592">
        <ele>336.64</ele>
        <time>2017-06-18T08:34:52Z</time>
      </trkpt>
      <trkpt lat="46.15565" lon="3.45948">
        <ele>334.92</ele>
        <time>2017-06-18T08:34:58Z</time>
      </trkpt>
      <trkpt lat="46.15566" lon="3.45974">
        <ele>336.54</ele>
        <time>2017-06-18T08:35:05Z</time>
      </trkpt>
      <trkpt lat="46.15566" lon="3.46002">
        <ele>339.57</ele>
        <time>2017-06-18T08:35:13Z</time>
      </trkpt>
      <trkpt lat="46.15564" lon="3.46029">
        <ele>340.17</ele>
        <time>2017-06-18T08:35:21Z</time>
      </trkpt>
      <trkpt lat="46.15562" lon="3.46059">
        <ele>336.68</ele>
        <time>2017-06-18T08:35:27Z</time>
      </trkpt>
      <trkpt lat="46.1556" lon="3.46085">
        <ele>335.52</ele>
        <time>2017-06-18T08:35:36Z</time>
      </trkpt>
      <trkpt lat="46.15547" lon="3.46105">
        <ele>335.61</ele>
        <time>2017-06-18T08:35:46Z</time>
      </trkpt>
      <trkpt lat="46.15535" lon="3.46128">
        <ele>335.25</ele>
        <time>2017-06-18T08:35:52Z</time>
      </trkpt>
      <trkpt lat="46.15523" lon="3.46149">
        <ele>338.45</ele>
        <time>2017-06-18T08:35:59Z</time>
      </trkpt>
      <trkpt lat="46.15516" lon="3.46174">
        <ele>333.89</ele>
        <time>2017-06-18T08:36:04Z</time>
      </trkpt>
      <trkpt lat="46.15509" lon="3.46198">
        <ele>330.59</ele>
        <time>2017-06-18T08:36:10Z</time>
      </trkpt>
      <trkpt lat="46.15502" lon="3.46222">
        <ele>332.45</ele>
        <time>2017-06-18T08:36:17Z</time>
      </trkpt>
      <trkpt lat="46.15494" lon="3.46247">
        <ele>329.61</ele>
        <time>2017-06-18T08:36:23Z</time>
      </trkpt>
      <trkpt lat="46.15486" lon="3.46272">
        <ele>331.55</ele>
        <time>2017-06-18T08:36:31Z</time>
      </trkpt>
      <trkpt lat="46.1548" lon="3.46301">
        <ele>332.55</ele>
        <time>2017-06-18T08:36:38Z</time>
      </trkpt>
      <trkpt lat="46.15469" lon="3.46326">
        <ele>335.53</ele>
        <time>2017-06-18T08:36:46Z</time>
      </trkpt>
      <trkpt lat="46.15459" lon="3.46354">
        <ele>333.76</ele>
        <time>2017-06-18T08:36:52Z</time>
      </trkpt>
      <trkpt lat="46.1545" lon="3.46381">
        <ele>331.62</ele>
        <time>2017-06-18T08:36:59Z</time>
      </trkpt>
      <trkpt lat="46.15441" lon="3.46407">
        <ele>331.26</ele>
        <time>2017-06-18T08:37:06Z</time>
      </trkpt>
      <trkpt lat="46.15434" lon="3.46431">
        <ele>329.66</ele>
        <time>2017-06-18T08:37:13Z</time>
      </trkpt>
      <trkpt lat="46.15427" lon="3.46456">
        <ele>336.31</ele>
        <time>2017-06-18T08:37:21Z</time>
      </trkpt>
      <trkpt lat="46.15419" lon="3.46483">
        <ele>335.44</ele>
        <time>2017-06-18T08:37:29Z</time>
      </trkpt>
      <trkpt lat="46.15406" lon="3.46504">
        <ele>336.56</ele>
        <time>2017-06-18T08:37:37Z</time>
      </trkpt>
      <trkpt lat="46.15394" lon="3.46525">
        <ele>338.52</ele>
        <time>2017-06-18T08:37:45Z</time>
      </trkpt>
      <trkpt lat="46.15385" lon="3.46549">
        <ele>339.52</ele>
        <time>2017-06-18T08:37:52Z</time>
      </trkpt>
      <trkpt lat="46.1537" lon="3.46569">
        <ele>337.85</ele>
        <time>2017-06-18T08:37:59Z</time>
      </trkpt>
      <trkpt lat="46.15354" lon="3.46583">
        <ele>331.32</ele>
        <time>2017-06-18T08:38:06Z</time>
      </trkpt>
      <trkpt lat="46.15337" lon="3.46571">
        <ele>332.5</ele>
        <time>2017-06-18T08:38:14Z</time>
      </trkpt>
      <trkpt lat="46.15318" lon="3.46561">
        <ele>331.15</ele>
        <time>2017-06-18T08:38:21Z</time>
      </trkpt>
      <trkpt lat="46.15301" lon="3.46548">
        <ele>330.94</ele>
        <time>2017-06-18T08:38:29Z</time>
      </trkpt>
      <trkpt lat="46.15284" lon="3.46534">
        <ele>332.58</ele>
        <time>2017-06-18T08:38:37Z</time>
      </trkpt>
      <trkpt lat="46.15268" lon="3.46516">
        <ele>332.58</ele>
        <time>2017-06-18T08:38:44Z</time>
      </trkpt>
      <trkpt lat="46.15256" lon="3.46495">
        <ele>335.34</ele>
        <time>2017-06-18T08:38:52Z</time>
      </trkpt>
      <trkpt lat="46.15245" lon="3.46474">
        <ele>334.53</ele>
        <time>2017-06-18T08:38:59Z</time>
      </trkpt>
      <trkpt lat="46.1523" lon="3.46461">
        <ele>336.46</ele>
        <time>2017-06-18T08:39:07Z</time>
      </trkpt>
      <trkpt lat="46.15214" lon="3.46448">
        <ele>336.76</ele>
        <time>2017-06-18T08:39:14Z</time>
      </trkpt>
      <trkpt lat="46.152" lon="3.4643">
        <ele>346.21</ele>
        <time>2017-06-18T08:39:23Z</time>
      </trkpt>
      <trkpt lat="46.15185" lon="3.46413">
        <ele>347.84</ele>
        <time>2017-06-18T08:39:31Z</time>
      </trkpt>
      <trkpt lat="46.15168" lon="3.464">
        <ele>351.42</ele>
        <time>2017-06-18T08:39:39Z</time>
      </trkpt>
      <trkpt lat="46.15151" lon="3.46385">
        <ele>352.61</ele>
        <time>2017-06-18T08:39:47Z</time>
      </trkpt>
      <trkpt lat="46.15135" lon="3.46368">
        <ele>353.46</ele>
        <time>2017-06-18T08:39:55Z</time>
      </trkpt>
      <trkpt lat="46.15121" lon="3.46348">
        <ele>351.86</ele>
        <time>2017-06-18T08:40:02Z</time>
      </trkpt>
      <trkpt lat="46.15107" lon="3.4633">
        <ele>346.59</ele>
        <time>2017-06-18T08:40:08Z</time>
      </trkpt>
      <trkpt lat="46.15094" lon="3.4631">
        <ele>362.63</ele>
        <time>2017-06-18T08:40:20Z</time>
      </trkpt>
      <trkpt lat="46.15068" lon="3.46305">
        <ele>356.44</ele>
        <time>2017-06-18T08:40:26Z</time>
      </trkpt>
      <trkpt lat="46.15048" lon="3.4631">
        <ele>348.89</ele>
        <time>2017-06-18T08:40:31Z</time>
      </trkpt>
      <trkpt lat="46.15029" lon="3.46322">
        <ele>349.25</ele>
        <time>2017-06-18T08:40:38Z</time>
      </trkpt>
      <trkpt lat="46.1501" lon="3.46331">
        <ele>353.15</ele>
        <time>2017-06-18T08:40:46Z</time>
      </trkpt>
      <trkpt lat="46.14992" lon="3.46342">
        <ele>355.23</ele>
        <time>2017-06-18T08:40:54Z</time>
      </trkpt>
      <trkpt lat="46.14975" lon="3.46356">
        <ele>357.06</ele>
        <time>2017-06-18T08:41:02Z</time>
      </trkpt>
      <trkpt lat="46.14957" lon="3.46369">
        <ele>359.54</ele>
        <time>2017-06-18T08:41:10Z</time>
      </trkpt>
      <trkpt lat="46.14938" lon="3.46378">
        <ele>360.32</ele>
        <time>2017-06-18T08:41:18Z</time>
      </trkpt>
      <trkpt lat="46.14921" lon="3.46388">
        <ele>359.85</ele>
        <time>2017-06-18T08:41:25Z</time>
      </trkpt>
      <trkpt lat="46.14901" lon="3.46396">
        <ele>358.79</ele>
        <time>2017-06-18T08:41:33Z</time>
      </trkpt>
      <trkpt lat="46.14882" lon="3.464">
        <ele>358.55</ele>
        <time>2017-06-18T08:41:41Z</time>
      </trkpt>
      <trkpt lat="46.14863" lon="3.46399">
        <ele>360.33</ele>
        <time>2017-06-18T08:41:50Z</time>
      </trkpt>
      <trkpt lat="46.14844" lon="3.46399">
        <ele>359.56</ele>
        <time>2017-06-18T08:41:57Z</time>
      </trkpt>
      <trkpt lat="46.14825" lon="3.46396">
        <ele>362.95</ele>
        <time>2017-06-18T08:42:05Z</time>
      </trkpt>
      <trkpt lat="46.14807" lon="3.46393">
        <ele>361.77</ele>
        <time>2017-06-18T08:42:12Z</time>
      </trkpt>
      <trkpt lat="46.14786" lon="3.46391">
        <ele>361.79</ele>
        <time>2017-06-18T08:42:20Z</time>
      </trkpt>
      <trkpt lat="46.14767" lon="3.46387">
        <ele>360.56</ele>
        <time>2017-06-18T08:42:27Z</time>
      </trkpt>
      <trkpt lat="46.14748" lon="3.46385">
        <ele>362.55</ele>
        <time>2017-06-18T08:42:35Z</time>
      </trkpt>
      <trkpt lat="46.14728" lon="3.46385">
        <ele>363.55</ele>
        <time>2017-06-18T08:42:42Z</time>
      </trkpt>
      <trkpt lat="46.14709" lon="3.46387">
        <ele>363.49</ele>
        <time>2017-06-18T08:42:49Z</time>
      </trkpt>
      <trkpt lat="46.14691" lon="3.4639">
        <ele>363.55</ele>
        <time>2017-06-18T08:42:55Z</time>
      </trkpt>
      <trkpt lat="46.14673" lon="3.46392">
        <ele>363.55</ele>
        <time>2017-06-18T08:43:02Z</time>
      </trkpt>
      <trkpt lat="46.14655" lon="3.46396">
        <ele>363.86</ele>
        <time>2017-06-18T08:43:11Z</time>
      </trkpt>
      <trkpt lat="46.14635" lon="3.46399">
        <ele>364.53</ele>
        <time>2017-06-18T08:43:18Z</time>
      </trkpt>
      <trkpt lat="46.14617" lon="3.46406">
        <ele>368.24</ele>
        <time>2017-06-18T08:43:26Z</time>
      </trkpt>
      <trkpt lat="46.1461" lon="3.46431">
        <ele>367.56</ele>
        <time>2017-06-18T08:43:33Z</time>
      </trkpt>
      <trkpt lat="46.14604" lon="3.46458">
        <ele>366.85</ele>
        <time>2017-06-18T08:43:41Z</time>
      </trkpt>
      <trkpt lat="46.14592" lon="3.4648">
        <ele>368.54</ele>
        <time>2017-06-18T08:43:49Z</time>
      </trkpt>
      <trkpt lat="46.14577" lon="3.46496">
        <ele>368.58</ele>
        <time>2017-06-18T08:43:57Z</time>
      </trkpt>
      <trkpt lat="46.14561" lon="3.4651">
        <ele>365.95</ele>
        <time>2017-06-18T08:44:04Z</time>
      </trkpt>
      <trkpt lat="46.14545" lon="3.46526">
        <ele>364.85</ele>
        <time>2017-06-18T08:44:12Z</time>
      </trkpt>
      <trkpt lat="46.14528" lon="3.46544">
        <ele>362.86</ele>
        <time>2017-06-18T08:44:19Z</time>
      </trkpt>
      <trkpt lat="46.14512" lon="3.46563">
        <ele>360.64</ele>
        <time>2017-06-18T08:44:26Z</time>
      </trkpt>
      <trkpt lat="46.14504" lon="3.46588">
        <ele>356.86</ele>
        <time>2017-06-18T08:44:33Z</time>
      </trkpt>
      <trkpt lat="46.1451" lon="3.46614">
        <ele>356.25</ele>
        <time>2017-06-18T08:44:42Z</time>
      </trkpt>
      <trkpt lat="46.14518" lon="3.46642">
        <ele>354.86</ele>
        <time>2017-06-18T08:44:49Z</time>
      </trkpt>
      <trkpt lat="46.14523" lon="3.4667">
        <ele>354.45</ele>
        <time>2017-06-18T08:44:56Z</time>
      </trkpt>
      <trkpt lat="46.14529" lon="3.46699">
        <ele>355.15</ele>
        <time>2017-06-18T08:45:03Z</time>
      </trkpt>
      <trkpt lat="46.14537" lon="3.46723">
        <ele>352.65</ele>
        <time>2017-06-18T08:45:10Z</time>
      </trkpt>
      <trkpt lat="46.14546" lon="3.46746">
        <ele>353.5</ele>
        <time>2017-06-18T08:45:18Z</time>
      </trkpt>
      <trkpt lat="46.14556" lon="3.46768">
        <ele>355.53</ele>
        <time>2017-06-18T08:45:24Z</time>
      </trkpt>
      <trkpt lat="46.14567" lon="3.4679">
        <ele>352.58</ele>
        <time>2017-06-18T08:45:30Z</time>
      </trkpt>
      <trkpt lat="46.14576" lon="3.46814">
        <ele>352.53</ele>
        <time>2017-06-18T08:45:37Z</time>
      </trkpt>
      <trkpt lat="46.1458" lon="3.46843">
        <ele>351.64</ele>
        <time>2017-06-18T08:45:45Z</time>
      </trkpt>
      <trkpt lat="46.14571" lon="3.46869">
        <ele>351.63</ele>
        <time>2017-06-18T08:45:54Z</time>
      </trkpt>
      <trkpt lat="46.14572" lon="3.469">
        <ele>351.55</ele>
        <time>2017-06-18T08:46:02Z</time>
      </trkpt>
      <trkpt lat="46.14587" lon="3.46916">
        <ele>353.53</ele>
        <time>2017-06-18T08:46:10Z</time>
      </trkpt>
      <trkpt lat="46.14585" lon="3.46942">
        <ele>353.85</ele>
        <time>2017-06-18T08:46:18Z</time>
      </trkpt>
      <trkpt lat="46.14574" lon="3.46967">
        <ele>351.85</ele>
        <time>2017-06-18T08:46:26Z</time>
      </trkpt>
      <trkpt lat="46.14567" lon="3.46993">
        <ele>350.64</ele>
        <time>2017-06-18T08:46:33Z</time>
      </trkpt>
      <trkpt lat="46.14561" lon="3.47021">
        <ele>350.53</ele>
        <time>2017-06-18T08:46:40Z</time>
      </trkpt>
      <trkpt lat="46.14557" lon="3.47047">
        <ele>350.76</ele>
        <time>2017-06-18T08:46:47Z</time>
      </trkpt>
      <trkpt lat="46.14552" lon="3.47073">
        <ele>352.46</ele>
        <time>2017-06-18T08:46:55Z</time>
      </trkpt>
      <trkpt lat="46.14542" lon="3.47097">
        <ele>357.43</ele>
        <time>2017-06-18T08:47:04Z</time>
      </trkpt>
      <trkpt lat="46.14529" lon="3.47118">
        <ele>357.47</ele>
        <time>2017-06-18T08:47:12Z</time>
      </trkpt>
      <trkpt lat="46.14517" lon="3.47138">
        <ele>359.53</ele>
        <time>2017-06-18T08:47:20Z</time>
      </trkpt>
      <trkpt lat="46.14505" lon="3.47159">
        <ele>360.55</ele>
        <time>2017-06-18T08:47:28Z</time>
      </trkpt>
      <trkpt lat="46.14494" lon="3.47179">
        <ele>362.33</ele>
        <time>2017-06-18T08:47:36Z</time>
      </trkpt>
      <trkpt lat="46.14481" lon="3.47199">
        <ele>364.95</ele>
        <time>2017-06-18T08:47:44Z</time>
      </trkpt>
      <trkpt lat="46.14464" lon="3.47216">
        <ele>370.8</ele>
        <time>2017-06-18T08:47:54Z</time>
      </trkpt>
      <trkpt lat="46.14459" lon="3.47241">
        <ele>367.58</ele>
        <time>2017-06-18T08:48:00Z</time>
      </trkpt>
      <trkpt lat="46.1447" lon="3.47266">
        <ele>366.58</ele>
        <time>2017-06-18T08:48:07Z</time>
      </trkpt>
      <trkpt lat="46.14488" lon="3.47277">
        <ele>365.56</ele>
        <time>2017-06-18T08:48:14Z</time>
      </trkpt>
      <trkpt lat="46.14503" lon="3.47291">
        <ele>367.54</ele>
        <time>2017-06-18T08:48:21Z</time>
      </trkpt>
      <trkpt lat="46.14517" lon="3.4731">
        <ele>368.55</ele>
        <time>2017-06-18T08:48:28Z</time>
      </trkpt>
      <trkpt lat="46.14528" lon="3.47331">
        <ele>368.55</ele>
        <time>2017-06-18T08:48:35Z</time>
      </trkpt>
      <trkpt lat="46.1454" lon="3.47353">
        <ele>369.76</ele>
        <time>2017-06-18T08:48:42Z</time>
      </trkpt>
      <trkpt lat="46.14554" lon="3.47373">
        <ele>368.94</ele>
        <time>2017-06-18T08:48:48Z</time>
      </trkpt>
      <trkpt lat="46.14571" lon="3.4739">
        <ele>367.53</ele>
        <time>2017-06-18T08:48:55Z</time>
      </trkpt>
      <trkpt lat="46.14588" lon="3.47404">
        <ele>365.85</ele>
        <time>2017-06-18T08:49:02Z</time>
      </trkpt>
      <trkpt lat="46.14592" lon="3.4743">
        <ele>363.57</ele>
        <time>2017-06-18T08:49:10Z</time>
      </trkpt>
      <trkpt lat="46.14586" lon="3.47455">
        <ele>362.56</ele>
        <time>2017-06-18T08:49:17Z</time>
      </trkpt>
      <trkpt lat="46.1457" lon="3.4747">
        <ele>361.64</ele>
        <time>2017-06-18T08:49:25Z</time>
      </trkpt>
      <trkpt lat="46.14553" lon="3.47481">
        <ele>360.78</ele>
        <time>2017-06-18T08:49:33Z</time>
      </trkpt>
      <trkpt lat="46.14534" lon="3.47478">
        <ele>360.34</ele>
        <time>2017-06-18T08:49:40Z</time>
      </trkpt>
      <trkpt lat="46.14515" lon="3.47475">
        <ele>362.56</ele>
        <time>2017-06-18T08:49:47Z</time>
      </trkpt>
      <trkpt lat="46.14497" lon="3.47472">
        <ele>361.5</ele>
        <time>2017-06-18T08:49:54Z</time>
      </trkpt>
      <trkpt lat="46.14482" lon="3.47455">
        <ele>363.75</ele>
        <time>2017-06-18T08:50:03Z</time>
      </trkpt>
      <trkpt lat="46.14467" lon="3.47438">
        <ele>361.58</ele>
        <time>2017-06-18T08:50:10Z</time>
      </trkpt>
      <trkpt lat="46.14449" lon="3.47429">
        <ele>359.27</ele>
        <time>2017-06-18T08:52:35Z</time>
      </trkpt>
      <trkpt lat="46.14431" lon="3.47424">
        <ele>355.59</ele>
        <time>2017-06-18T08:52:41Z</time>
      </trkpt>
      <trkpt lat="46.14413" lon="3.47416">
        <ele>352.97</ele>
        <time>2017-06-18T08:52:47Z</time>
      </trkpt>
      <trkpt lat="46.14394" lon="3.47409">
        <ele>353.25</ele>
        <time>2017-06-18T08:52:54Z</time>
      </trkpt>
      <trkpt lat="46.14377" lon="3.47397">
        <ele>358.42</ele>
        <time>2017-06-18T08:53:03Z</time>
      </trkpt>
      <trkpt lat="46.14359" lon="3.47385">
        <ele>357.88</ele>
        <time>2017-06-18T08:53:10Z</time>
      </trkpt>
      <trkpt lat="46.14341" lon="3.47374">
        <ele>355.28</ele>
        <time>2017-06-18T08:53:16Z</time>
      </trkpt>
      <trkpt lat="46.1432" lon="3.47359">
        <ele>349.76</ele>
        <time>2017-06-18T08:53:24Z</time>
      </trkpt>
      <trkpt lat="46.14299" lon="3.47355">
        <ele>357.9</ele>
        <time>2017-06-18T08:53:37Z</time>
      </trkpt>
      <trkpt lat="46.14279" lon="3.4735">
        <ele>355.84</ele>
        <time>2017-06-18T08:53:44Z</time>
      </trkpt>
      <trkpt lat="46.1426" lon="3.4734">
        <ele>350.19</ele>
        <time>2017-06-18T08:53:50Z</time>
      </trkpt>
      <trkpt lat="46.14242" lon="3.47335">
        <ele>347.68</ele>
        <time>2017-06-18T08:53:55Z</time>
      </trkpt>
      <trkpt lat="46.14224" lon="3.47322">
        <ele>346.79</ele>
        <time>2017-06-18T08:54:02Z</time>
      </trkpt>
      <trkpt lat="46.14204" lon="3.47315">
        <ele>341.16</ele>
        <time>2017-06-18T08:54:09Z</time>
      </trkpt>
      <trkpt lat="46.14185" lon="3.47306">
        <ele>335.47</ele>
        <time>2017-06-18T08:54:15Z</time>
      </trkpt>
      <trkpt lat="46.14165" lon="3.47298">
        <ele>336.92</ele>
        <time>2017-06-18T08:54:25Z</time>
      </trkpt>
      <trkpt lat="46.14148" lon="3.47303">
        <ele>332.78</ele>
        <time>2017-06-18T08:54:31Z</time>
      </trkpt>
      <trkpt lat="46.1413" lon="3.47312">
        <ele>328.6</ele>
        <time>2017-06-18T08:54:37Z</time>
      </trkpt>
      <trkpt lat="46.14112" lon="3.47321">
        <ele>326.61</ele>
        <time>2017-06-18T08:54:43Z</time>
      </trkpt>
      <trkpt lat="46.14093" lon="3.47326">
        <ele>330.57</ele>
        <time>2017-06-18T08:54:52Z</time>
      </trkpt>
      <trkpt lat="46.14074" lon="3.47331">
        <ele>325.75</ele>
        <time>2017-06-18T08:54:56Z</time>
      </trkpt>
      <trkpt lat="46.14056" lon="3.47342">
        <ele>319.1</ele>
        <time>2017-06-18T08:55:02Z</time>
      </trkpt>
      <trkpt lat="46.14041" lon="3.47362">
        <ele>314.89</ele>
        <time>2017-06-18T08:55:08Z</time>
      </trkpt>
      <trkpt lat="46.1403" lon="3.47385">
        <ele>312.65</ele>
        <time>2017-06-18T08:55:14Z</time>
      </trkpt>
      <trkpt lat="46.1402" lon="3.47412">
        <ele>310.64</ele>
        <time>2017-06-18T08:55:21Z</time>
      </trkpt>
      <trkpt lat="46.14011" lon="3.47437">
        <ele>314.02</ele>
        <time>2017-06-18T08:55:29Z</time>
      </trkpt>
      <trkpt lat="46.14003" lon="3.47462">
        <ele>315.46</ele>
        <time>2017-06-18T08:55:36Z</time>
      </trkpt>
      <trkpt lat="46.13994" lon="3.47486">
        <ele>318.45</ele>
        <time>2017-06-18T08:55:43Z</time>
      </trkpt>
      <trkpt lat="46.13979" lon="3.47499">
        <ele>317.61</ele>
        <time>2017-06-18T08:55:51Z</time>
      </trkpt>
      <trkpt lat="46.1396" lon="3.47493">
        <ele>316.58</ele>
        <time>2017-06-18T08:55:59Z</time>
      </trkpt>
      <trkpt lat="46.13941" lon="3.47485">
        <ele>316.47</ele>
        <time>2017-06-18T08:56:06Z</time>
      </trkpt>
      <trkpt lat="46.13923" lon="3.47485">
        <ele>319.31</ele>
        <time>2017-06-18T08:56:13Z</time>
      </trkpt>
      <trkpt lat="46.13905" lon="3.4749">
        <ele>324.76</ele>
        <time>2017-06-18T08:56:24Z</time>
      </trkpt>
      <trkpt lat="46.13886" lon="3.47492">
        <ele>323.57</ele>
        <time>2017-06-18T08:56:34Z</time>
      </trkpt>
      <trkpt lat="46.1387" lon="3.47479">
        <ele>320.12</ele>
        <time>2017-06-18T08:56:41Z</time>
      </trkpt>
      <trkpt lat="46.13854" lon="3.47463">
        <ele>315.64</ele>
        <time>2017-06-18T08:56:48Z</time>
      </trkpt>
      <trkpt lat="46.13834" lon="3.47456">
        <ele>314.92</ele>
        <time>2017-06-18T08:56:56Z</time>
      </trkpt>
      <trkpt lat="46.13816" lon="3.47452">
        <ele>312.03</ele>
        <time>2017-06-18T08:57:01Z</time>
      </trkpt>
      <trkpt lat="46.13801" lon="3.47432">
        <ele>307.74</ele>
        <time>2017-06-18T08:57:09Z</time>
      </trkpt>
      <trkpt lat="46.13787" lon="3.47413">
        <ele>306.96</ele>
        <time>2017-06-18T08:57:16Z</time>
      </trkpt>
      <trkpt lat="46.13776" lon="3.47391">
        <ele>309.44</ele>
        <time>2017-06-18T08:57:22Z</time>
      </trkpt>
      <trkpt lat="46.13765" lon="3.47369">
        <ele>307.45</ele>
        <time>2017-06-18T08:57:27Z</time>
      </trkpt>
      <trkpt lat="46.13753" lon="3.47344">
        <ele>304.16</ele>
        <time>2017-06-18T08:57:34Z</time>
      </trkpt>
      <trkpt lat="46.13735" lon="3.47355">
        <ele>301.63</ele>
        <time>2017-06-18T08:57:43Z</time>
      </trkpt>
      <trkpt lat="46.13722" lon="3.47374">
        <ele>304.53</ele>
        <time>2017-06-18T08:57:52Z</time>
      </trkpt>
      <trkpt lat="46.13713" lon="3.47397">
        <ele>307.24</ele>
        <time>2017-06-18T08:58:00Z</time>
      </trkpt>
      <trkpt lat="46.13702" lon="3.47417">
        <ele>300.24</ele>
        <time>2017-06-18T08:58:05Z</time>
      </trkpt>
      <trkpt lat="46.1369" lon="3.47438">
        <ele>296.55</ele>
        <time>2017-06-18T08:58:12Z</time>
      </trkpt>
      <trkpt lat="46.13678" lon="3.47458">
        <ele>302.38</ele>
        <time>2017-06-18T08:58:20Z</time>
      </trkpt>
      <trkpt lat="46.13667" lon="3.47479">
        <ele>306.45</ele>
        <time>2017-06-18T08:58:27Z</time>
      </trkpt>
      <trkpt lat="46.13657" lon="3.47505">
        <ele>309.25</ele>
        <time>2017-06-18T08:58:36Z</time>
      </trkpt>
      <trkpt lat="46.13655" lon="3.47531">
        <ele>309.55</ele>
        <time>2017-06-18T08:58:45Z</time>
      </trkpt>
      <trkpt lat="46.13659" lon="3.47557">
        <ele>307.88</ele>
        <time>2017-06-18T08:58:52Z</time>
      </trkpt>
      <trkpt lat="46.1366" lon="3.47583">
        <ele>304.36</ele>
        <time>2017-06-18T08:58:59Z</time>
      </trkpt>
      <trkpt lat="46.13663" lon="3.47611">
        <ele>302.64</ele>
        <time>2017-06-18T08:59:06Z</time>
      </trkpt>
      <trkpt lat="46.13667" lon="3.47641">
        <ele>298.37</ele>
        <time>2017-06-18T08:59:13Z</time>
      </trkpt>
      <trkpt lat="46.13672" lon="3.47667">
        <ele>301.52</ele>
        <time>2017-06-18T08:59:20Z</time>
      </trkpt>
      <trkpt lat="46.13668" lon="3.47694">
        <ele>302.25</ele>
        <time>2017-06-18T08:59:27Z</time>
      </trkpt>
      <trkpt lat="46.13654" lon="3.47713">
        <ele>307.4</ele>
        <time>2017-06-18T08:59:36Z</time>
      </trkpt>
      <trkpt lat="46.13636" lon="3.47726">
        <ele>310.37</ele>
        <time>2017-06-18T08:59:54Z</time>
      </trkpt>
      <trkpt lat="46.13618" lon="3.47731">
        <ele>315.52</ele>
        <time>2017-06-18T09:00:02Z</time>
      </trkpt>
      <trkpt lat="46.13599" lon="3.47736">
        <ele>317.47</ele>
        <time>2017-06-18T09:00:10Z</time>
      </trkpt>
      <trkpt lat="46.1358" lon="3.47743">
        <ele>322.48</ele>
        <time>2017-06-18T09:00:18Z</time>
      </trkpt>
      <trkpt lat="46.13562" lon="3.47753">
        <ele>328.15</ele>
        <time>2017-06-18T09:00:26Z</time>
      </trkpt>
      <trkpt lat="46.13545" lon="3.4777">
        <ele>333.12</ele>
        <time>2017-06-18T09:00:35Z</time>
      </trkpt>
      <trkpt lat="46.13529" lon="3.47784">
        <ele>336.82</ele>
        <time>2017-06-18T09:00:44Z</time>
      </trkpt>
      <trkpt lat="46.1351" lon="3.47789">
        <ele>338.46</ele>
        <time>2017-06-18T09:00:53Z</time>
      </trkpt>
      <trkpt lat="46.13491" lon="3.47796">
        <ele>341.22</ele>
        <time>2017-06-18T09:01:01Z</time>
      </trkpt>
      <trkpt lat="46.13474" lon="3.47806">
        <ele>342.56</ele>
        <time>2017-06-18T09:01:09Z</time>
      </trkpt>
      <trkpt lat="46.13453" lon="3.4782">
        <ele>343.05</ele>
        <time>2017-06-18T09:01:18Z</time>
      </trkpt>
      <trkpt lat="46.13439" lon="3.47837">
        <ele>347.21</ele>
        <time>2017-06-18T09:01:28Z</time>
      </trkpt>
      <trkpt lat="46.13424" lon="3.47855">
        <ele>357.45</ele>
        <time>2017-06-18T09:01:41Z</time>
      </trkpt>
      <trkpt lat="46.13409" lon="3.47871">
        <ele>359.45</ele>
        <time>2017-06-18T09:01:50Z</time>
      </trkpt>
      <trkpt lat="46.13395" lon="3.47889">
        <ele>361.53</ele>
        <time>2017-06-18T09:02:00Z</time>
      </trkpt>
      <trkpt lat="46.13384" lon="3.4791">
        <ele>359.47</ele>
        <time>2017-06-18T09:02:08Z</time>
      </trkpt>
      <trkpt lat="46.1337" lon="3.47927">
        <ele>362.13</ele>
        <time>2017-06-18T09:02:17Z</time>
      </trkpt>
      <trkpt lat="46.13354" lon="3.47942">
        <ele>366.23</ele>
        <time>2017-06-18T09:02:26Z</time>
      </trkpt>
      <trkpt lat="46.13338" lon="3.47954">
        <ele>365.38</ele>
        <time>2017-06-18T09:02:33Z</time>
      </trkpt>
      <trkpt lat="46.13321" lon="3.47963">
        <ele>364.22</ele>
        <time>2017-06-18T09:02:40Z</time>
      </trkpt>
      <trkpt lat="46.13304" lon="3.47975">
        <ele>365.5</ele>
        <time>2017-06-18T09:02:51Z</time>
      </trkpt>
      <trkpt lat="46.13283" lon="3.47982">
        <ele>365.77</ele>
        <time>2017-06-18T09:02:59Z</time>
      </trkpt>
      <trkpt lat="46.13264" lon="3.47986">
        <ele>367.86</ele>
        <time>2017-06-18T09:03:08Z</time>
      </trkpt>
      <trkpt lat="46.13245" lon="3.47996">
        <ele>368.75</ele>
        <time>2017-06-18T09:03:17Z</time>
      </trkpt>
      <trkpt lat="46.13227" lon="3.48004">
        <ele>375.13</ele>
        <time>2017-06-18T09:03:28Z</time>
      </trkpt>
      <trkpt lat="46.13207" lon="3.48012">
        <ele>376.06</ele>
        <time>2017-06-18T09:03:36Z</time>
      </trkpt>
      <trkpt lat="46.13188" lon="3.4802">
        <ele>379.2</ele>
        <time>2017-06-18T09:03:45Z</time>
      </trkpt>
      <trkpt lat="46.13169" lon="3.48028">
        <ele>378.75</ele>
        <time>2017-06-18T09:03:53Z</time>
      </trkpt>
      <trkpt lat="46.13151" lon="3.48033">
        <ele>382.88</ele>
        <time>2017-06-18T09:04:02Z</time>
      </trkpt>
      <trkpt lat="46.13132" lon="3.48037">
        <ele>384.23</ele>
        <time>2017-06-18T09:04:10Z</time>
      </trkpt>
      <trkpt lat="46.13109" lon="3.48046">
        <ele>381.29</ele>
        <time>2017-06-18T09:04:16Z</time>
      </trkpt>
      <trkpt lat="46.1309" lon="3.48049">
        <ele>384.76</ele>
        <time>2017-06-18T09:04:25Z</time>
      </trkpt>
      <trkpt lat="46.13072" lon="3.48044">
        <ele>380.86</ele>
        <time>2017-06-18T09:04:33Z</time>
      </trkpt>
      <trkpt lat="46.13063" lon="3.48022">
        <ele>375.55</ele>
        <time>2017-06-18T09:04:59Z</time>
      </trkpt>
      <trkpt lat="46.13056" lon="3.47996">
        <ele>374.88</ele>
        <time>2017-06-18T09:05:19Z</time>
      </trkpt>
      <trkpt lat="46.13053" lon="3.47968">
        <ele>377.54</ele>
        <time>2017-06-18T09:05:28Z</time>
      </trkpt>
      <trkpt lat="46.13048" lon="3.47941">
        <ele>376.55</ele>
        <time>2017-06-18T09:05:36Z</time>
      </trkpt>
      <trkpt lat="46.13044" lon="3.47913">
        <ele>374.62</ele>
        <time>2017-06-18T09:05:43Z</time>
      </trkpt>
      <trkpt lat="46.13038" lon="3.47886">
        <ele>374.28</ele>
        <time>2017-06-18T09:05:50Z</time>
      </trkpt>
      <trkpt lat="46.13031" lon="3.4786">
        <ele>376.24</ele>
        <time>2017-06-18T09:05:58Z</time>
      </trkpt>
      <trkpt lat="46.1303" lon="3.47831">
        <ele>381.54</ele>
        <time>2017-06-18T09:06:07Z</time>
      </trkpt>
      <trkpt lat="46.13016" lon="3.47813">
        <ele>375.16</ele>
        <time>2017-06-18T09:06:12Z</time>
      </trkpt>
      <trkpt lat="46.12997" lon="3.47812">
        <ele>374.46</ele>
        <time>2017-06-18T09:06:21Z</time>
      </trkpt>
      <trkpt lat="46.12979" lon="3.47822">
        <ele>379.46</ele>
        <time>2017-06-18T09:06:29Z</time>
      </trkpt>
      <trkpt lat="46.12964" lon="3.4784">
        <ele>378.43</ele>
        <time>2017-06-18T09:06:36Z</time>
      </trkpt>
      <trkpt lat="46.12945" lon="3.47845">
        <ele>384.52</ele>
        <time>2017-06-18T09:06:46Z</time>
      </trkpt>
      <trkpt lat="46.12927" lon="3.47842">
        <ele>382.59</ele>
        <time>2017-06-18T09:06:53Z</time>
      </trkpt>
      <trkpt lat="46.12907" lon="3.47836">
        <ele>385.54</ele>
        <time>2017-06-18T09:07:02Z</time>
      </trkpt>
      <trkpt lat="46.12889" lon="3.47831">
        <ele>389.5</ele>
        <time>2017-06-18T09:07:10Z</time>
      </trkpt>
      <trkpt lat="46.12871" lon="3.47835">
        <ele>392.41</ele>
        <time>2017-06-18T09:07:18Z</time>
      </trkpt>
      <trkpt lat="46.12852" lon="3.47839">
        <ele>394.53</ele>
        <time>2017-06-18T09:07:26Z</time>
      </trkpt>
      <trkpt lat="46.12834" lon="3.47841">
        <ele>394.55</ele>
        <time>2017-06-18T09:07:33Z</time>
      </trkpt>
      <trkpt lat="46.12816" lon="3.47847">
        <ele>394.57</ele>
        <time>2017-06-18T09:07:40Z</time>
      </trkpt>
      <trkpt lat="46.12798" lon="3.47851">
        <ele>397.55</ele>
        <time>2017-06-18T09:07:48Z</time>
      </trkpt>
      <trkpt lat="46.12778" lon="3.47857">
        <ele>397.84</ele>
        <time>2017-06-18T09:07:56Z</time>
      </trkpt>
      <trkpt lat="46.12758" lon="3.47859">
        <ele>399.53</ele>
        <time>2017-06-18T09:08:04Z</time>
      </trkpt>
      <trkpt lat="46.12739" lon="3.4786">
        <ele>395.94</ele>
        <time>2017-06-18T09:08:11Z</time>
      </trkpt>
      <trkpt lat="46.12719" lon="3.47861">
        <ele>399.45</ele>
        <time>2017-06-18T09:08:20Z</time>
      </trkpt>
      <trkpt lat="46.12698" lon="3.4786">
        <ele>402.82</ele>
        <time>2017-06-18T09:08:31Z</time>
      </trkpt>
      <trkpt lat="46.12679" lon="3.47866">
        <ele>405.22</ele>
        <time>2017-06-18T09:08:40Z</time>
      </trkpt>
      <trkpt lat="46.12659" lon="3.47869">
        <ele>407.48</ele>
        <time>2017-06-18T09:08:49Z</time>
      </trkpt>
      <trkpt lat="46.12641" lon="3.47874">
        <ele>409.46</ele>
        <time>2017-06-18T09:08:57Z</time>
      </trkpt>
      <trkpt lat="46.12624" lon="3.47881">
        <ele>410.55</ele>
        <time>2017-06-18T09:09:05Z</time>
      </trkpt>
      <trkpt lat="46.12609" lon="3.47901">
        <ele>414.46</ele>
        <time>2017-06-18T09:09:16Z</time>
      </trkpt>
      <trkpt lat="46.12599" lon="3.47925">
        <ele>408.94</ele>
        <time>2017-06-18T09:09:25Z</time>
      </trkpt>
      <trkpt lat="46.12594" lon="3.47951">
        <ele>411.5</ele>
        <time>2017-06-18T09:09:36Z</time>
      </trkpt>
      <trkpt lat="46.12588" lon="3.47975">
        <ele>413.28</ele>
        <time>2017-06-18T09:09:45Z</time>
      </trkpt>
      <trkpt lat="46.12586" lon="3.48002">
        <ele>413.53</ele>
        <time>2017-06-18T09:09:53Z</time>
      </trkpt>
      <trkpt lat="46.1258" lon="3.48027">
        <ele>418.25</ele>
        <time>2017-06-18T09:10:04Z</time>
      </trkpt>
      <trkpt lat="46.12575" lon="3.48054">
        <ele>419.46</ele>
        <time>2017-06-18T09:10:14Z</time>
      </trkpt>
      <trkpt lat="46.12569" lon="3.48082">
        <ele>421.25</ele>
        <time>2017-06-18T09:10:24Z</time>
      </trkpt>
      <trkpt lat="46.12558" lon="3.48103">
        <ele>426.01</ele>
        <time>2017-06-18T09:10:33Z</time>
      </trkpt>
      <trkpt lat="46.12553" lon="3.4813">
        <ele>429.27</ele>
        <time>2017-06-18T09:10:43Z</time>
      </trkpt>
      <trkpt lat="46.12556" lon="3.48157">
        <ele>432.52</ele>
        <time>2017-06-18T09:10:52Z</time>
      </trkpt>
      <trkpt lat="46.12558" lon="3.48183">
        <ele>434.53</ele>
        <time>2017-06-18T09:11:01Z</time>
      </trkpt>
      <trkpt lat="46.12555" lon="3.4821">
        <ele>438.22</ele>
        <time>2017-06-18T09:11:09Z</time>
      </trkpt>
      <trkpt lat="46.1255" lon="3.48236">
        <ele>439.25</ele>
        <time>2017-06-18T09:11:17Z</time>
      </trkpt>
      <trkpt lat="46.12543" lon="3.48264">
        <ele>440.53</ele>
        <time>2017-06-18T09:11:26Z</time>
      </trkpt>
      <trkpt lat="46.12535" lon="3.48289">
        <ele>443.46</ele>
        <time>2017-06-18T09:11:35Z</time>
      </trkpt>
      <trkpt lat="46.12527" lon="3.48315">
        <ele>445.54</ele>
        <time>2017-06-18T09:11:44Z</time>
      </trkpt>
      <trkpt lat="46.12521" lon="3.48342">
        <ele>448.46</ele>
        <time>2017-06-18T09:11:53Z</time>
      </trkpt>
      <trkpt lat="46.12513" lon="3.48368">
        <ele>451.24</ele>
        <time>2017-06-18T09:12:02Z</time>
      </trkpt>
      <trkpt lat="46.12506" lon="3.48394">
        <ele>452.55</ele>
        <time>2017-06-18T09:12:10Z</time>
      </trkpt>
      <trkpt lat="46.12499" lon="3.48419">
        <ele>454.53</ele>
        <time>2017-06-18T09:12:18Z</time>
      </trkpt>
      <trkpt lat="46.12489" lon="3.48444">
        <ele>460.52</ele>
        <time>2017-06-18T09:12:28Z</time>
      </trkpt>
      <trkpt lat="46.1248" lon="3.4847">
        <ele>462.53</ele>
        <time>2017-06-18T09:12:37Z</time>
      </trkpt>
      <trkpt lat="46.12474" lon="3.48496">
        <ele>464.53</ele>
        <time>2017-06-18T09:12:46Z</time>
      </trkpt>
      <trkpt lat="46.12467" lon="3.48523">
        <ele>468.24</ele>
        <time>2017-06-18T09:12:55Z</time>
      </trkpt>
      <trkpt lat="46.12458" lon="3.48546">
        <ele>470.25</ele>
        <time>2017-06-18T09:13:03Z</time>
      </trkpt>
      <trkpt lat="46.12449" lon="3.48569">
        <ele>471.26</ele>
        <time>2017-06-18T09:13:10Z</time>
      </trkpt>
      <trkpt lat="46.12438" lon="3.48592">
        <ele>472.63</ele>
        <time>2017-06-18T09:13:18Z</time>
      </trkpt>
      <trkpt lat="46.12424" lon="3.48612">
        <ele>475.46</ele>
        <time>2017-06-18T09:13:26Z</time>
      </trkpt>
      <trkpt lat="46.1241" lon="3.48628">
        <ele>477.54</ele>
        <time>2017-06-18T09:13:34Z</time>
      </trkpt>
      <trkpt lat="46.12393" lon="3.48642">
        <ele>478.53</ele>
        <time>2017-06-18T09:13:42Z</time>
      </trkpt>
      <trkpt lat="46.12376" lon="3.48656">
        <ele>479.54</ele>
        <time>2017-06-18T09:13:50Z</time>
      </trkpt>
      <trkpt lat="46.12363" lon="3.48673">
        <ele>483.24</ele>
        <time>2017-06-18T09:13:58Z</time>
      </trkpt>
      <trkpt lat="46.1235" lon="3.48695">
        <ele>486.16</ele>
        <time>2017-06-18T09:14:07Z</time>
      </trkpt>
      <trkpt lat="46.12335" lon="3.48714">
        <ele>486.56</ele>
        <time>2017-06-18T09:14:15Z</time>
      </trkpt>
      <trkpt lat="46.12319" lon="3.48732">
        <ele>487.82</ele>
        <time>2017-06-18T09:14:23Z</time>
      </trkpt>
      <trkpt lat="46.12306" lon="3.48751">
        <ele>491.31</ele>
        <time>2017-06-18T09:14:31Z</time>
      </trkpt>
      <trkpt lat="46.12291" lon="3.48767">
        <ele>491.55</ele>
        <time>2017-06-18T09:14:38Z</time>
      </trkpt>
      <trkpt lat="46.12276" lon="3.48783">
        <ele>492.46</ele>
        <time>2017-06-18T09:14:45Z</time>
      </trkpt>
      <trkpt lat="46.12262" lon="3.48801">
        <ele>494.24</ele>
        <time>2017-06-18T09:14:53Z</time>
      </trkpt>
      <trkpt lat="46.12248" lon="3.48821">
        <ele>494.35</ele>
        <time>2017-06-18T09:15:00Z</time>
      </trkpt>
      <trkpt lat="46.12234" lon="3.48843">
        <ele>492.12</ele>
        <time>2017-06-18T09:15:07Z</time>
      </trkpt>
      <trkpt lat="46.12223" lon="3.48866">
        <ele>491.55</ele>
        <time>2017-06-18T09:15:14Z</time>
      </trkpt>
      <trkpt lat="46.12209" lon="3.48887">
        <ele>486</ele>
        <time>2017-06-18T09:15:21Z</time>
      </trkpt>
      <trkpt lat="46.12198" lon="3.48909">
        <ele>485.58</ele>
        <time>2017-06-18T09:15:29Z</time>
      </trkpt>
      <trkpt lat="46.12191" lon="3.48935">
        <ele>485.35</ele>
        <time>2017-06-18T09:15:38Z</time>
      </trkpt>
      <trkpt lat="46.12182" lon="3.48961">
        <ele>481.65</ele>
        <time>2017-06-18T09:15:45Z</time>
      </trkpt>
      <trkpt lat="46.12175" lon="3.4899">
        <ele>479.56</ele>
        <time>2017-06-18T09:15:52Z</time>
      </trkpt>
      <trkpt lat="46.12166" lon="3.49016">
        <ele>477.86</ele>
        <time>2017-06-18T09:15:59Z</time>
      </trkpt>
      <trkpt lat="46.12169" lon="3.49043">
        <ele>475.86</ele>
        <time>2017-06-18T09:16:07Z</time>
      </trkpt>
      <trkpt lat="46.12169" lon="3.49069">
        <ele>474.62</ele>
        <time>2017-06-18T09:16:13Z</time>
      </trkpt>
      <trkpt lat="46.12162" lon="3.49097">
        <ele>472.56</ele>
        <time>2017-06-18T09:16:20Z</time>
      </trkpt>
      <trkpt lat="46.12149" lon="3.4912">
        <ele>471.49</ele>
        <time>2017-06-18T09:16:27Z</time>
      </trkpt>
      <trkpt lat="46.12138" lon="3.49145">
        <ele>470.79</ele>
        <time>2017-06-18T09:16:33Z</time>
      </trkpt>
      <trkpt lat="46.12126" lon="3.49165">
        <ele>468.58</ele>
        <time>2017-06-18T09:16:39Z</time>
      </trkpt>
      <trkpt lat="46.12114" lon="3.49187">
        <ele>470.46</ele>
        <time>2017-06-18T09:16:46Z</time>
      </trkpt>
      <trkpt lat="46.12099" lon="3.49207">
        <ele>474.52</ele>
        <time>2017-06-18T09:16:54Z</time>
      </trkpt>
      <trkpt lat="46.12085" lon="3.49224">
        <ele>477.95</ele>
        <time>2017-06-18T09:17:01Z</time>
      </trkpt>
      <trkpt lat="46.12072" lon="3.49243">
        <ele>485.12</ele>
        <time>2017-06-18T09:17:09Z</time>
      </trkpt>
      <trkpt lat="46.12055" lon="3.4926">
        <ele>487.55</ele>
        <time>2017-06-18T09:17:16Z</time>
      </trkpt>
      <trkpt lat="46.12039" lon="3.49278">
        <ele>487.47</ele>
        <time>2017-06-18T09:17:23Z</time>
      </trkpt>
      <trkpt lat="46.12023" lon="3.49295">
        <ele>489.53</ele>
        <time>2017-06-18T09:17:30Z</time>
      </trkpt>
      <trkpt lat="46.12009" lon="3.49311">
        <ele>490.74</ele>
        <time>2017-06-18T09:17:37Z</time>
      </trkpt>
      <trkpt lat="46.1199" lon="3.49324">
        <ele>491.27</ele>
        <time>2017-06-18T09:17:44Z</time>
      </trkpt>
      <trkpt lat="46.11973" lon="3.49335">
        <ele>493.45</ele>
        <time>2017-06-18T09:17:51Z</time>
      </trkpt>
      <trkpt lat="46.11955" lon="3.49345">
        <ele>495.24</ele>
        <time>2017-06-18T09:17:58Z</time>
      </trkpt>
      <trkpt lat="46.11937" lon="3.49345">
        <ele>490.3</ele>
        <time>2017-06-18T09:18:04Z</time>
      </trkpt>
      <trkpt lat="46.11925" lon="3.49326">
        <ele>485.57</ele>
        <time>2017-06-18T09:18:11Z</time>
      </trkpt>
      <trkpt lat="46.11914" lon="3.49303">
        <ele>484.57</ele>
        <time>2017-06-18T09:18:19Z</time>
      </trkpt>
      <trkpt lat="46.11905" lon="3.49278">
        <ele>482.64</ele>
        <time>2017-06-18T09:18:27Z</time>
      </trkpt>
      <trkpt lat="46.11897" lon="3.49253">
        <ele>481.58</ele>
        <time>2017-06-18T09:18:34Z</time>
      </trkpt>
      <trkpt lat="46.11888" lon="3.49227">
        <ele>480.56</ele>
        <time>2017-06-18T09:18:42Z</time>
      </trkpt>
      <trkpt lat="46.11881" lon="3.49201">
        <ele>481.55</ele>
        <time>2017-06-18T09:18:50Z</time>
      </trkpt>
      <trkpt lat="46.11874" lon="3.49175">
        <ele>482.24</ele>
        <time>2017-06-18T09:18:58Z</time>
      </trkpt>
      <trkpt lat="46.11868" lon="3.49149">
        <ele>484.54</ele>
        <time>2017-06-18T09:19:06Z</time>
      </trkpt>
      <trkpt lat="46.11862" lon="3.49123">
        <ele>487.22</ele>
        <time>2017-06-18T09:19:14Z</time>
      </trkpt>
      <trkpt lat="46.11855" lon="3.49097">
        <ele>487.55</ele>
        <time>2017-06-18T09:19:22Z</time>
      </trkpt>
      <trkpt lat="46.11849" lon="3.4907">
        <ele>487.55</ele>
        <time>2017-06-18T09:19:30Z</time>
      </trkpt>
      <trkpt lat="46.11845" lon="3.49042">
        <ele>487.55</ele>
        <time>2017-06-18T09:19:38Z</time>
      </trkpt>
      <trkpt lat="46.11841" lon="3.49014">
        <ele>487.55</ele>
        <time>2017-06-18T09:19:46Z</time>
      </trkpt>
      <trkpt lat="46.11837" lon="3.48987">
        <ele>486.64</ele>
        <time>2017-06-18T09:19:53Z</time>
      </trkpt>
      <trkpt lat="46.11833" lon="3.48961">
        <ele>487.53</ele>
        <time>2017-06-18T09:20:00Z</time>
      </trkpt>
      <trkpt lat="46.11826" lon="3.48936">
        <ele>487.79</ele>
        <time>2017-06-18T09:20:07Z</time>
      </trkpt>
      <trkpt lat="46.11816" lon="3.48912">
        <ele>486.87</ele>
        <time>2017-06-18T09:20:14Z</time>
      </trkpt>
      <trkpt lat="46.11806" lon="3.48887">
        <ele>483.75</ele>
        <time>2017-06-18T09:20:22Z</time>
      </trkpt>
      <trkpt lat="46.11796" lon="3.48864">
        <ele>478.65</ele>
        <time>2017-06-18T09:21:09Z</time>
      </trkpt>
      <trkpt lat="46.1179" lon="3.4884">
        <ele>474.88</ele>
        <time>2017-06-18T09:21:16Z</time>
      </trkpt>
      <trkpt lat="46.11783" lon="3.48814">
        <ele>471.65</ele>
        <time>2017-06-18T09:21:23Z</time>
      </trkpt>
      <trkpt lat="46.11776" lon="3.4879">
        <ele>469.86</ele>
        <time>2017-06-18T09:21:30Z</time>
      </trkpt>
      <trkpt lat="46.11768" lon="3.48764">
        <ele>466.88</ele>
        <time>2017-06-18T09:21:37Z</time>
      </trkpt>
      <trkpt lat="46.11757" lon="3.48744">
        <ele>464.86</ele>
        <time>2017-06-18T09:21:44Z</time>
      </trkpt>
      <trkpt lat="46.11746" lon="3.48723">
        <ele>461.86</ele>
        <time>2017-06-18T09:21:52Z</time>
      </trkpt>
      <trkpt lat="46.11742" lon="3.48695">
        <ele>457.88</ele>
        <time>2017-06-18T09:22:01Z</time>
      </trkpt>
      <trkpt lat="46.11742" lon="3.48667">
        <ele>452.81</ele>
        <time>2017-06-18T09:22:08Z</time>
      </trkpt>
      <trkpt lat="46.11743" lon="3.4864">
        <ele>447.62</ele>
        <time>2017-06-18T09:22:15Z</time>
      </trkpt>
      <trkpt lat="46.11742" lon="3.48613">
        <ele>443.66</ele>
        <time>2017-06-18T09:22:23Z</time>
      </trkpt>
      <trkpt lat="46.11744" lon="3.48586">
        <ele>441.75</ele>
        <time>2017-06-18T09:22:31Z</time>
      </trkpt>
      <trkpt lat="46.11745" lon="3.48556">
        <ele>439.55</ele>
        <time>2017-06-18T09:22:39Z</time>
      </trkpt>
      <trkpt lat="46.11743" lon="3.48523">
        <ele>441.82</ele>
        <time>2017-06-18T09:22:48Z</time>
      </trkpt>
      <trkpt lat="46.11734" lon="3.48501">
        <ele>438.86</ele>
        <time>2017-06-18T09:22:55Z</time>
      </trkpt>
      <trkpt lat="46.11724" lon="3.48478">
        <ele>434.88</ele>
        <time>2017-06-18T09:23:02Z</time>
      </trkpt>
      <trkpt lat="46.11714" lon="3.48453">
        <ele>433.56</ele>
        <time>2017-06-18T09:23:10Z</time>
      </trkpt>
      <trkpt lat="46.11708" lon="3.48426">
        <ele>431.55</ele>
        <time>2017-06-18T09:23:19Z</time>
      </trkpt>
      <trkpt lat="46.11705" lon="3.48398">
        <ele>428.44</ele>
        <time>2017-06-18T09:23:25Z</time>
      </trkpt>
      <trkpt lat="46.11706" lon="3.48371">
        <ele>428.53</ele>
        <time>2017-06-18T09:23:33Z</time>
      </trkpt>
      <trkpt lat="46.11706" lon="3.48345">
        <ele>430.17</ele>
        <time>2017-06-18T09:23:42Z</time>
      </trkpt>
      <trkpt lat="46.11705" lon="3.48317">
        <ele>428.66</ele>
        <time>2017-06-18T09:23:47Z</time>
      </trkpt>
      <trkpt lat="46.11705" lon="3.48287">
        <ele>426</ele>
        <time>2017-06-18T09:23:53Z</time>
      </trkpt>
      <trkpt lat="46.11707" lon="3.48259">
        <ele>421.58</ele>
        <time>2017-06-18T09:23:59Z</time>
      </trkpt>
      <trkpt lat="46.11708" lon="3.48233">
        <ele>419.56</ele>
        <time>2017-06-18T09:24:07Z</time>
      </trkpt>
      <trkpt lat="46.11708" lon="3.48205">
        <ele>414.64</ele>
        <time>2017-06-18T09:24:13Z</time>
      </trkpt>
      <trkpt lat="46.11709" lon="3.48176">
        <ele>409.58</ele>
        <time>2017-06-18T09:24:20Z</time>
      </trkpt>
      <trkpt lat="46.11706" lon="3.4815">
        <ele>409.64</ele>
        <time>2017-06-18T09:24:28Z</time>
      </trkpt>
      <trkpt lat="46.11701" lon="3.48125">
        <ele>411.45</ele>
        <time>2017-06-18T09:24:37Z</time>
      </trkpt>
      <trkpt lat="46.11695" lon="3.48098">
        <ele>409.65</ele>
        <time>2017-06-18T09:24:44Z</time>
      </trkpt>
      <trkpt lat="46.11684" lon="3.48061">
        <ele>402.85</ele>
        <time>2017-06-18T09:24:52Z</time>
      </trkpt>
      <trkpt lat="46.11674" lon="3.48037">
        <ele>396.67</ele>
        <time>2017-06-18T09:24:59Z</time>
      </trkpt>
      <trkpt lat="46.11661" lon="3.48016">
        <ele>394.58</ele>
        <time>2017-06-18T09:25:08Z</time>
      </trkpt>
      <trkpt lat="46.11646" lon="3.47996">
        <ele>389.74</ele>
        <time>2017-06-18T09:25:16Z</time>
      </trkpt>
      <trkpt lat="46.11628" lon="3.47986">
        <ele>386.25</ele>
        <time>2017-06-18T09:25:27Z</time>
      </trkpt>
      <trkpt lat="46.11611" lon="3.47999">
        <ele>389.45</ele>
        <time>2017-06-18T09:25:35Z</time>
      </trkpt>
      <trkpt lat="46.11592" lon="3.48009">
        <ele>388.46</ele>
        <time>2017-06-18T09:25:42Z</time>
      </trkpt>
      <trkpt lat="46.11575" lon="3.48001">
        <ele>382.58</ele>
        <time>2017-06-18T09:25:54Z</time>
      </trkpt>
      <trkpt lat="46.11574" lon="3.47972">
        <ele>370.18</ele>
        <time>2017-06-18T09:26:06Z</time>
      </trkpt>
      <trkpt lat="46.11567" lon="3.47947">
        <ele>367.23</ele>
        <time>2017-06-18T09:26:15Z</time>
      </trkpt>
      <trkpt lat="46.11565" lon="3.47917">
        <ele>362.56</ele>
        <time>2017-06-18T09:26:23Z</time>
      </trkpt>
      <trkpt lat="46.11559" lon="3.47887">
        <ele>358.05</ele>
        <time>2017-06-18T09:26:29Z</time>
      </trkpt>
      <trkpt lat="46.11561" lon="3.47859">
        <ele>348.99</ele>
        <time>2017-06-18T09:26:35Z</time>
      </trkpt>
      <trkpt lat="46.11573" lon="3.4784">
        <ele>343.64</ele>
        <time>2017-06-18T09:26:45Z</time>
      </trkpt>
      <trkpt lat="46.11589" lon="3.47824">
        <ele>342.6</ele>
        <time>2017-06-18T09:26:54Z</time>
      </trkpt>
      <trkpt lat="46.11601" lon="3.47803">
        <ele>338.49</ele>
        <time>2017-06-18T09:27:01Z</time>
      </trkpt>
      <trkpt lat="46.11616" lon="3.47782">
        <ele>333.79</ele>
        <time>2017-06-18T09:27:11Z</time>
      </trkpt>
      <trkpt lat="46.1163" lon="3.4776">
        <ele>331.92</ele>
        <time>2017-06-18T09:27:19Z</time>
      </trkpt>
      <trkpt lat="46.11642" lon="3.47739">
        <ele>330.12</ele>
        <time>2017-06-18T09:27:25Z</time>
      </trkpt>
      <trkpt lat="46.11651" lon="3.47716">
        <ele>327.62</ele>
        <time>2017-06-18T09:27:33Z</time>
      </trkpt>
      <trkpt lat="46.11654" lon="3.47688">
        <ele>326.86</ele>
        <time>2017-06-18T09:27:40Z</time>
      </trkpt>
      <trkpt lat="46.11664" lon="3.47659">
        <ele>318.02</ele>
        <time>2017-06-18T09:27:50Z</time>
      </trkpt>
      <trkpt lat="46.11675" lon="3.47636">
        <ele>318.2</ele>
        <time>2017-06-18T09:27:55Z</time>
      </trkpt>
      <trkpt lat="46.11685" lon="3.47612">
        <ele>312.56</ele>
        <time>2017-06-18T09:28:02Z</time>
      </trkpt>
      <trkpt lat="46.11696" lon="3.47591">
        <ele>309.89</ele>
        <time>2017-06-18T09:28:13Z</time>
      </trkpt>
      <trkpt lat="46.11703" lon="3.47567">
        <ele>306.37</ele>
        <time>2017-06-18T09:28:21Z</time>
      </trkpt>
      <trkpt lat="46.11691" lon="3.47539">
        <ele>306.34</ele>
        <time>2017-06-18T09:28:30Z</time>
      </trkpt>
      <trkpt lat="46.11673" lon="3.4753">
        <ele>303.9</ele>
        <time>2017-06-18T09:28:39Z</time>
      </trkpt>
      <trkpt lat="46.11657" lon="3.47512">
        <ele>304.28</ele>
        <time>2017-06-18T09:28:46Z</time>
      </trkpt>
      <trkpt lat="46.11641" lon="3.47498">
        <ele>314.19</ele>
        <time>2017-06-18T09:28:55Z</time>
      </trkpt>
      <trkpt lat="46.11627" lon="3.47481">
        <ele>307.55</ele>
        <time>2017-06-18T09:29:21Z</time>
      </trkpt>
      <trkpt lat="46.11609" lon="3.47488">
        <ele>318.34</ele>
        <time>2017-06-18T09:30:03Z</time>
      </trkpt>
      <trkpt lat="46.1159" lon="3.47493">
        <ele>314.7</ele>
        <time>2017-06-18T09:30:06Z</time>
      </trkpt>
      <trkpt lat="46.11581" lon="3.4747">
        <ele>317.55</ele>
        <time>2017-06-18T09:30:18Z</time>
      </trkpt>
      <trkpt lat="46.11568" lon="3.47451">
        <ele>322.63</ele>
        <time>2017-06-18T09:30:30Z</time>
      </trkpt>
      <trkpt lat="46.11552" lon="3.47438">
        <ele>326.36</ele>
        <time>2017-06-18T09:30:41Z</time>
      </trkpt>
      <trkpt lat="46.11546" lon="3.47463">
        <ele>323.62</ele>
        <time>2017-06-18T09:31:02Z</time>
      </trkpt>
      <trkpt lat="46.11547" lon="3.47489">
        <ele>325.17</ele>
        <time>2017-06-18T09:31:11Z</time>
      </trkpt>
      <trkpt lat="46.11541" lon="3.47515">
        <ele>333.24</ele>
        <time>2017-06-18T09:31:24Z</time>
      </trkpt>
      <trkpt lat="46.11531" lon="3.47537">
        <ele>338.5</ele>
        <time>2017-06-18T09:31:35Z</time>
      </trkpt>
      <trkpt lat="46.11526" lon="3.47565">
        <ele>353.12</ele>
        <time>2017-06-18T09:31:48Z</time>
      </trkpt>
      <trkpt lat="46.11512" lon="3.47586">
        <ele>358.42</ele>
        <time>2017-06-18T09:31:59Z</time>
      </trkpt>
      <trkpt lat="46.115" lon="3.47609">
        <ele>354.53</ele>
        <time>2017-06-18T09:32:07Z</time>
      </trkpt>
      <trkpt lat="46.1149" lon="3.47631">
        <ele>362.55</ele>
        <time>2017-06-18T09:32:16Z</time>
      </trkpt>
      <trkpt lat="46.11483" lon="3.47657">
        <ele>372.09</ele>
        <time>2017-06-18T09:32:29Z</time>
      </trkpt>
      <trkpt lat="46.1147" lon="3.47676">
        <ele>372.76</ele>
        <time>2017-06-18T09:32:38Z</time>
      </trkpt>
      <trkpt lat="46.11457" lon="3.47695">
        <ele>370.7</ele>
        <time>2017-06-18T09:32:46Z</time>
      </trkpt>
      <trkpt lat="46.11445" lon="3.47715">
        <ele>368.17</ele>
        <time>2017-06-18T09:32:53Z</time>
      </trkpt>
      <trkpt lat="46.11429" lon="3.47731">
        <ele>366.53</ele>
        <time>2017-06-18T09:33:00Z</time>
      </trkpt>
      <trkpt lat="46.11417" lon="3.47754">
        <ele>371.45</ele>
        <time>2017-06-18T09:33:12Z</time>
      </trkpt>
      <trkpt lat="46.11405" lon="3.47775">
        <ele>372.92</ele>
        <time>2017-06-18T09:33:20Z</time>
      </trkpt>
      <trkpt lat="46.11395" lon="3.47797">
        <ele>378.92</ele>
        <time>2017-06-18T09:33:29Z</time>
      </trkpt>
      <trkpt lat="46.11377" lon="3.47809">
        <ele>376.33</ele>
        <time>2017-06-18T09:33:36Z</time>
      </trkpt>
      <trkpt lat="46.11379" lon="3.47779">
        <ele>374.15</ele>
        <time>2017-06-18T09:34:03Z</time>
      </trkpt>
      <trkpt lat="46.11376" lon="3.47752">
        <ele>374.84</ele>
        <time>2017-06-18T09:34:11Z</time>
      </trkpt>
      <trkpt lat="46.11374" lon="3.47724">
        <ele>374.93</ele>
        <time>2017-06-18T09:34:20Z</time>
      </trkpt>
      <trkpt lat="46.11388" lon="3.47702">
        <ele>374.27</ele>
        <time>2017-06-18T09:34:31Z</time>
      </trkpt>
      <trkpt lat="46.11404" lon="3.4769">
        <ele>381.97</ele>
        <time>2017-06-18T09:34:39Z</time>
      </trkpt>
      <trkpt lat="46.11418" lon="3.47658">
        <ele>380.14</ele>
        <time>2017-06-18T09:34:49Z</time>
      </trkpt>
      <trkpt lat="46.11424" lon="3.47629">
        <ele>375.78</ele>
        <time>2017-06-18T09:34:57Z</time>
      </trkpt>
      <trkpt lat="46.11413" lon="3.47609">
        <ele>371.37</ele>
        <time>2017-06-18T09:35:04Z</time>
      </trkpt>
      <trkpt lat="46.11402" lon="3.47588">
        <ele>379.39</ele>
        <time>2017-06-18T09:35:16Z</time>
      </trkpt>
      <trkpt lat="46.11383" lon="3.47576">
        <ele>385.55</ele>
        <time>2017-06-18T09:35:29Z</time>
      </trkpt>
      <trkpt lat="46.11365" lon="3.47565">
        <ele>399.9</ele>
        <time>2017-06-18T09:35:38Z</time>
      </trkpt>
      <trkpt lat="46.11347" lon="3.47564">
        <ele>402.37</ele>
        <time>2017-06-18T09:35:47Z</time>
      </trkpt>
      <trkpt lat="46.1133" lon="3.47556">
        <ele>396.1</ele>
        <time>2017-06-18T09:35:56Z</time>
      </trkpt>
      <trkpt lat="46.11309" lon="3.47552">
        <ele>397.47</ele>
        <time>2017-06-18T09:36:04Z</time>
      </trkpt>
      <trkpt lat="46.11292" lon="3.47544">
        <ele>398.48</ele>
        <time>2017-06-18T09:36:16Z</time>
      </trkpt>
      <trkpt lat="46.11272" lon="3.47539">
        <ele>397.64</ele>
        <time>2017-06-18T09:36:27Z</time>
      </trkpt>
      <trkpt lat="46.1125" lon="3.4754">
        <ele>396.9</ele>
        <time>2017-06-18T09:36:32Z</time>
      </trkpt>
      <trkpt lat="46.11232" lon="3.47532">
        <ele>398.42</ele>
        <time>2017-06-18T09:36:40Z</time>
      </trkpt>
      <trkpt lat="46.11215" lon="3.47522">
        <ele>404.33</ele>
        <time>2017-06-18T09:36:47Z</time>
      </trkpt>
      <trkpt lat="46.11198" lon="3.47504">
        <ele>413.3</ele>
        <time>2017-06-18T09:36:56Z</time>
      </trkpt>
      <trkpt lat="46.11176" lon="3.47492">
        <ele>412.22</ele>
        <time>2017-06-18T09:37:02Z</time>
      </trkpt>
      <trkpt lat="46.11158" lon="3.47479">
        <ele>416.32</ele>
        <time>2017-06-18T09:37:08Z</time>
      </trkpt>
      <trkpt lat="46.11142" lon="3.47466">
        <ele>412.96</ele>
        <time>2017-06-18T09:37:18Z</time>
      </trkpt>
      <trkpt lat="46.11127" lon="3.47452">
        <ele>406.58</ele>
        <time>2017-06-18T09:37:32Z</time>
      </trkpt>
      <trkpt lat="46.1111" lon="3.47437">
        <ele>403.76</ele>
        <time>2017-06-18T09:37:48Z</time>
      </trkpt>
      <trkpt lat="46.1109" lon="3.47431">
        <ele>399.01</ele>
        <time>2017-06-18T09:37:53Z</time>
      </trkpt>
      <trkpt lat="46.11073" lon="3.47421">
        <ele>402.15</ele>
        <time>2017-06-18T09:38:01Z</time>
      </trkpt>
      <trkpt lat="46.11053" lon="3.47414">
        <ele>401.04</ele>
        <time>2017-06-18T09:38:08Z</time>
      </trkpt>
      <trkpt lat="46.11035" lon="3.47406">
        <ele>398.39</ele>
        <time>2017-06-18T09:38:14Z</time>
      </trkpt>
      <trkpt lat="46.11016" lon="3.47404">
        <ele>390.19</ele>
        <time>2017-06-18T09:38:25Z</time>
      </trkpt>
      <trkpt lat="46.10998" lon="3.47396">
        <ele>390.57</ele>
        <time>2017-06-18T09:38:32Z</time>
      </trkpt>
      <trkpt lat="46.10979" lon="3.47387">
        <ele>391.55</ele>
        <time>2017-06-18T09:38:38Z</time>
      </trkpt>
      <trkpt lat="46.10961" lon="3.47373">
        <ele>388.18</ele>
        <time>2017-06-18T09:38:44Z</time>
      </trkpt>
      <trkpt lat="46.10943" lon="3.4736">
        <ele>384.88</ele>
        <time>2017-06-18T09:38:52Z</time>
      </trkpt>
      <trkpt lat="46.10926" lon="3.4734">
        <ele>384.5</ele>
        <time>2017-06-18T09:39:00Z</time>
      </trkpt>
      <trkpt lat="46.10908" lon="3.47338">
        <ele>381.29</ele>
        <time>2017-06-18T09:39:06Z</time>
      </trkpt>
      <trkpt lat="46.10891" lon="3.47324">
        <ele>383.56</ele>
        <time>2017-06-18T09:39:15Z</time>
      </trkpt>
      <trkpt lat="46.10878" lon="3.47305">
        <ele>382.56</ele>
        <time>2017-06-18T09:39:21Z</time>
      </trkpt>
      <trkpt lat="46.10864" lon="3.47286">
        <ele>373.98</ele>
        <time>2017-06-18T09:39:30Z</time>
      </trkpt>
      <trkpt lat="46.10851" lon="3.47264">
        <ele>371.59</ele>
        <time>2017-06-18T09:39:37Z</time>
      </trkpt>
      <trkpt lat="46.10835" lon="3.47247">
        <ele>369.67</ele>
        <time>2017-06-18T09:39:44Z</time>
      </trkpt>
      <trkpt lat="46.10817" lon="3.47231">
        <ele>366.86</ele>
        <time>2017-06-18T09:39:51Z</time>
      </trkpt>
      <trkpt lat="46.10797" lon="3.47227">
        <ele>368.37</ele>
        <time>2017-06-18T09:39:58Z</time>
      </trkpt>
      <trkpt lat="46.10786" lon="3.47206">
        <ele>365.49</ele>
        <time>2017-06-18T09:40:06Z</time>
      </trkpt>
      <trkpt lat="46.10791" lon="3.47178">
        <ele>360.57</ele>
        <time>2017-06-18T09:40:14Z</time>
      </trkpt>
      <trkpt lat="46.10803" lon="3.47156">
        <ele>360.7</ele>
        <time>2017-06-18T09:40:24Z</time>
      </trkpt>
      <trkpt lat="46.10815" lon="3.47136">
        <ele>362.53</ele>
        <time>2017-06-18T09:40:36Z</time>
      </trkpt>
      <trkpt lat="46.10831" lon="3.47118">
        <ele>370.17</ele>
        <time>2017-06-18T09:40:47Z</time>
      </trkpt>
      <trkpt lat="46.10843" lon="3.47099">
        <ele>375.3</ele>
        <time>2017-06-18T09:40:56Z</time>
      </trkpt>
      <trkpt lat="46.10858" lon="3.47082">
        <ele>377.54</ele>
        <time>2017-06-18T09:41:05Z</time>
      </trkpt>
      <trkpt lat="46.10872" lon="3.47065">
        <ele>377.61</ele>
        <time>2017-06-18T09:41:14Z</time>
      </trkpt>
      <trkpt lat="46.10889" lon="3.47052">
        <ele>380.63</ele>
        <time>2017-06-18T09:41:21Z</time>
      </trkpt>
      <trkpt lat="46.10906" lon="3.47039">
        <ele>380.94</ele>
        <time>2017-06-18T09:41:28Z</time>
      </trkpt>
      <trkpt lat="46.1092" lon="3.4702">
        <ele>377.24</ele>
        <time>2017-06-18T09:41:37Z</time>
      </trkpt>
      <trkpt lat="46.10931" lon="3.46999">
        <ele>377.32</ele>
        <time>2017-06-18T09:41:44Z</time>
      </trkpt>
      <trkpt lat="46.10943" lon="3.46979">
        <ele>378.54</ele>
        <time>2017-06-18T09:41:51Z</time>
      </trkpt>
      <trkpt lat="46.10953" lon="3.46954">
        <ele>376.64</ele>
        <time>2017-06-18T09:41:59Z</time>
      </trkpt>
      <trkpt lat="46.10935" lon="3.46946">
        <ele>382.44</ele>
        <time>2017-06-18T09:42:11Z</time>
      </trkpt>
      <trkpt lat="46.10917" lon="3.46952">
        <ele>391.27</ele>
        <time>2017-06-18T09:42:22Z</time>
      </trkpt>
      <trkpt lat="46.10899" lon="3.46957">
        <ele>396.43</ele>
        <time>2017-06-18T09:42:32Z</time>
      </trkpt>
      <trkpt lat="46.1088" lon="3.46956">
        <ele>396.54</ele>
        <time>2017-06-18T09:42:40Z</time>
      </trkpt>
      <trkpt lat="46.10864" lon="3.46944">
        <ele>398.54</ele>
        <time>2017-06-18T09:42:50Z</time>
      </trkpt>
      <trkpt lat="46.10847" lon="3.46931">
        <ele>400.53</ele>
        <time>2017-06-18T09:43:00Z</time>
      </trkpt>
      <trkpt lat="46.10836" lon="3.4691">
        <ele>404.22</ele>
        <time>2017-06-18T09:43:10Z</time>
      </trkpt>
      <trkpt lat="46.10832" lon="3.46882">
        <ele>409.55</ele>
        <time>2017-06-18T09:43:21Z</time>
      </trkpt>
      <trkpt lat="46.10828" lon="3.46855">
        <ele>408.56</ele>
        <time>2017-06-18T09:43:30Z</time>
      </trkpt>
      <trkpt lat="46.10824" lon="3.46828">
        <ele>406.77</ele>
        <time>2017-06-18T09:43:38Z</time>
      </trkpt>
      <trkpt lat="46.10821" lon="3.46802">
        <ele>408.52</ele>
        <time>2017-06-18T09:43:47Z</time>
      </trkpt>
      <trkpt lat="46.10814" lon="3.46776">
        <ele>418.13</ele>
        <time>2017-06-18T09:44:01Z</time>
      </trkpt>
      <trkpt lat="46.10812" lon="3.4675">
        <ele>420.42</ele>
        <time>2017-06-18T09:44:12Z</time>
      </trkpt>
      <trkpt lat="46.10807" lon="3.46724">
        <ele>422.53</ele>
        <time>2017-06-18T09:44:19Z</time>
      </trkpt>
      <trkpt lat="46.10803" lon="3.46699">
        <ele>428.3</ele>
        <time>2017-06-18T09:44:28Z</time>
      </trkpt>
      <trkpt lat="46.10797" lon="3.46673">
        <ele>433.22</ele>
        <time>2017-06-18T09:44:37Z</time>
      </trkpt>
      <trkpt lat="46.10793" lon="3.46646">
        <ele>437.24</ele>
        <time>2017-06-18T09:44:46Z</time>
      </trkpt>
      <trkpt lat="46.10787" lon="3.46619">
        <ele>442.71</ele>
        <time>2017-06-18T09:44:55Z</time>
      </trkpt>
      <trkpt lat="46.10782" lon="3.46591">
        <ele>436.2</ele>
        <time>2017-06-18T09:45:00Z</time>
      </trkpt>
      <trkpt lat="46.10777" lon="3.46562">
        <ele>436.55</ele>
        <time>2017-06-18T09:45:08Z</time>
      </trkpt>
      <trkpt lat="46.10774" lon="3.46534">
        <ele>434.08</ele>
        <time>2017-06-18T09:45:14Z</time>
      </trkpt>
      <trkpt lat="46.10778" lon="3.46508">
        <ele>430.97</ele>
        <time>2017-06-18T09:45:23Z</time>
      </trkpt>
      <trkpt lat="46.10799" lon="3.46506">
        <ele>423.65</ele>
        <time>2017-06-18T09:45:34Z</time>
      </trkpt>
      <trkpt lat="46.10819" lon="3.46498">
        <ele>422.67</ele>
        <time>2017-06-18T09:45:41Z</time>
      </trkpt>
      <trkpt lat="46.10838" lon="3.46491">
        <ele>420.63</ele>
        <time>2017-06-18T09:45:48Z</time>
      </trkpt>
      <trkpt lat="46.10858" lon="3.46485">
        <ele>420.53</ele>
        <time>2017-06-18T09:45:55Z</time>
      </trkpt>
      <trkpt lat="46.10876" lon="3.46482">
        <ele>420.55</ele>
        <time>2017-06-18T09:46:02Z</time>
      </trkpt>
      <trkpt lat="46.10894" lon="3.46477">
        <ele>419.58</ele>
        <time>2017-06-18T09:46:08Z</time>
      </trkpt>
      <trkpt lat="46.10915" lon="3.4647">
        <ele>417.5</ele>
        <time>2017-06-18T09:46:14Z</time>
      </trkpt>
      <trkpt lat="46.10933" lon="3.46465">
        <ele>416.61</ele>
        <time>2017-06-18T09:46:21Z</time>
      </trkpt>
      <trkpt lat="46.10952" lon="3.46463">
        <ele>413.59</ele>
        <time>2017-06-18T09:46:28Z</time>
      </trkpt>
      <trkpt lat="46.10971" lon="3.4646">
        <ele>411.67</ele>
        <time>2017-06-18T09:46:34Z</time>
      </trkpt>
      <trkpt lat="46.1099" lon="3.46458">
        <ele>409.13</ele>
        <time>2017-06-18T09:46:40Z</time>
      </trkpt>
      <trkpt lat="46.11008" lon="3.46458">
        <ele>408.63</ele>
        <time>2017-06-18T09:46:47Z</time>
      </trkpt>
      <trkpt lat="46.11027" lon="3.46456">
        <ele>411.55</ele>
        <time>2017-06-18T09:47:00Z</time>
      </trkpt>
      <trkpt lat="46.11046" lon="3.4646">
        <ele>412.54</ele>
        <time>2017-06-18T09:48:34Z</time>
      </trkpt>
      <trkpt lat="46.11065" lon="3.46458">
        <ele>412.53</ele>
        <time>2017-06-18T09:48:50Z</time>
      </trkpt>
      <trkpt lat="46.11083" lon="3.46461">
        <ele>412.82</ele>
        <time>2017-06-18T09:49:05Z</time>
      </trkpt>
      <trkpt lat="46.11105" lon="3.46467">
        <ele>412.15</ele>
        <time>2017-06-18T09:50:17Z</time>
      </trkpt>
      <trkpt lat="46.11124" lon="3.46468">
        <ele>410.86</ele>
        <time>2017-06-18T09:50:23Z</time>
      </trkpt>
      <trkpt lat="46.11142" lon="3.46475">
        <ele>408.03</ele>
        <time>2017-06-18T09:50:30Z</time>
      </trkpt>
      <trkpt lat="46.11161" lon="3.46476">
        <ele>404.24</ele>
        <time>2017-06-18T09:50:37Z</time>
      </trkpt>
      <trkpt lat="46.1118" lon="3.46476">
        <ele>403.11</ele>
        <time>2017-06-18T09:50:46Z</time>
      </trkpt>
      <trkpt lat="46.11199" lon="3.46478">
        <ele>410.37</ele>
        <time>2017-06-18T09:50:55Z</time>
      </trkpt>
      <trkpt lat="46.11219" lon="3.46473">
        <ele>409.92</ele>
        <time>2017-06-18T09:51:03Z</time>
      </trkpt>
      <trkpt lat="46.11239" lon="3.46473">
        <ele>404.33</ele>
        <time>2017-06-18T09:51:09Z</time>
      </trkpt>
      <trkpt lat="46.11258" lon="3.46475">
        <ele>403.91</ele>
        <time>2017-06-18T09:51:17Z</time>
      </trkpt>
      <trkpt lat="46.1128" lon="3.4647">
        <ele>402.98</ele>
        <time>2017-06-18T09:51:22Z</time>
      </trkpt>
      <trkpt lat="46.113" lon="3.46474">
        <ele>401.45</ele>
        <time>2017-06-18T09:51:31Z</time>
      </trkpt>
      <trkpt lat="46.11318" lon="3.46473">
        <ele>396.59</ele>
        <time>2017-06-18T09:51:37Z</time>
      </trkpt>
      <trkpt lat="46.11338" lon="3.46473">
        <ele>393.37</ele>
        <time>2017-06-18T09:51:43Z</time>
      </trkpt>
      <trkpt lat="46.11357" lon="3.46475">
        <ele>395.31</ele>
        <time>2017-06-18T09:51:51Z</time>
      </trkpt>
      <trkpt lat="46.11376" lon="3.46479">
        <ele>395.84</ele>
        <time>2017-06-18T09:51:58Z</time>
      </trkpt>
      <trkpt lat="46.11395" lon="3.4649">
        <ele>397.73</ele>
        <time>2017-06-18T09:52:07Z</time>
      </trkpt>
      <trkpt lat="46.11412" lon="3.46506">
        <ele>396.55</ele>
        <time>2017-06-18T09:52:15Z</time>
      </trkpt>
      <trkpt lat="46.11431" lon="3.46514">
        <ele>394.23</ele>
        <time>2017-06-18T09:52:22Z</time>
      </trkpt>
      <trkpt lat="46.11451" lon="3.4651">
        <ele>392.61</ele>
        <time>2017-06-18T09:52:29Z</time>
      </trkpt>
      <trkpt lat="46.11469" lon="3.46505">
        <ele>397.51</ele>
        <time>2017-06-18T09:52:39Z</time>
      </trkpt>
      <trkpt lat="46.11487" lon="3.46494">
        <ele>394.67</ele>
        <time>2017-06-18T09:52:47Z</time>
      </trkpt>
      <trkpt lat="46.11502" lon="3.46481">
        <ele>397.2</ele>
        <time>2017-06-18T09:52:51Z</time>
      </trkpt>
      <trkpt lat="46.11517" lon="3.46462">
        <ele>394.95</ele>
        <time>2017-06-18T09:52:59Z</time>
      </trkpt>
      <trkpt lat="46.11532" lon="3.46444">
        <ele>395.64</ele>
        <time>2017-06-18T09:53:06Z</time>
      </trkpt>
      <trkpt lat="46.11545" lon="3.46426">
        <ele>393.59</ele>
        <time>2017-06-18T09:53:13Z</time>
      </trkpt>
      <trkpt lat="46.11561" lon="3.46409">
        <ele>390.77</ele>
        <time>2017-06-18T09:53:21Z</time>
      </trkpt>
      <trkpt lat="46.11577" lon="3.46393">
        <ele>390.23</ele>
        <time>2017-06-18T09:53:28Z</time>
      </trkpt>
      <trkpt lat="46.11595" lon="3.46379">
        <ele>392.49</ele>
        <time>2017-06-18T09:53:37Z</time>
      </trkpt>
      <trkpt lat="46.11611" lon="3.46364">
        <ele>395.85</ele>
        <time>2017-06-18T09:53:46Z</time>
      </trkpt>
      <trkpt lat="46.1163" lon="3.46351">
        <ele>396.95</ele>
        <time>2017-06-18T09:53:52Z</time>
      </trkpt>
      <trkpt lat="46.11648" lon="3.46347">
        <ele>398.53</ele>
        <time>2017-06-18T09:54:01Z</time>
      </trkpt>
      <trkpt lat="46.11668" lon="3.46345">
        <ele>396.67</ele>
        <time>2017-06-18T09:54:09Z</time>
      </trkpt>
      <trkpt lat="46.11687" lon="3.46342">
        <ele>393.33</ele>
        <time>2017-06-18T09:54:15Z</time>
      </trkpt>
      <trkpt lat="46.11708" lon="3.46338">
        <ele>392.58</ele>
        <time>2017-06-18T09:54:22Z</time>
      </trkpt>
      <trkpt lat="46.11727" lon="3.46338">
        <ele>384.56</ele>
        <time>2017-06-18T09:54:29Z</time>
      </trkpt>
      <trkpt lat="46.11747" lon="3.46337">
        <ele>378.94</ele>
        <time>2017-06-18T09:54:38Z</time>
      </trkpt>
      <trkpt lat="46.11766" lon="3.4633">
        <ele>371.89</ele>
        <time>2017-06-18T09:54:46Z</time>
      </trkpt>
      <trkpt lat="46.11786" lon="3.46319">
        <ele>369.67</ele>
        <time>2017-06-18T09:54:54Z</time>
      </trkpt>
      <trkpt lat="46.11804" lon="3.46312">
        <ele>369.36</ele>
        <time>2017-06-18T09:55:01Z</time>
      </trkpt>
      <trkpt lat="46.11823" lon="3.46304">
        <ele>368.55</ele>
        <time>2017-06-18T09:55:11Z</time>
      </trkpt>
      <trkpt lat="46.11843" lon="3.46296">
        <ele>370.66</ele>
        <time>2017-06-18T09:55:19Z</time>
      </trkpt>
      <trkpt lat="46.1186" lon="3.46288">
        <ele>373.32</ele>
        <time>2017-06-18T09:55:26Z</time>
      </trkpt>
      <trkpt lat="46.11879" lon="3.46277">
        <ele>373.14</ele>
        <time>2017-06-18T09:55:33Z</time>
      </trkpt>
      <trkpt lat="46.11899" lon="3.46267">
        <ele>369.98</ele>
        <time>2017-06-18T09:55:39Z</time>
      </trkpt>
      <trkpt lat="46.11917" lon="3.46258">
        <ele>367.71</ele>
        <time>2017-06-18T09:55:47Z</time>
      </trkpt>
      <trkpt lat="46.11936" lon="3.46248">
        <ele>364.64</ele>
        <time>2017-06-18T09:55:54Z</time>
      </trkpt>
      <trkpt lat="46.11954" lon="3.4624">
        <ele>370.32</ele>
        <time>2017-06-18T09:56:02Z</time>
      </trkpt>
      <trkpt lat="46.11971" lon="3.4623">
        <ele>363.25</ele>
        <time>2017-06-18T09:56:10Z</time>
      </trkpt>
      <trkpt lat="46.11989" lon="3.46224">
        <ele>378.22</ele>
        <time>2017-06-18T09:59:22Z</time>
      </trkpt>
      <trkpt lat="46.12008" lon="3.46222">
        <ele>375.94</ele>
        <time>2017-06-18T09:59:29Z</time>
      </trkpt>
      <trkpt lat="46.12028" lon="3.4622">
        <ele>372.58</ele>
        <time>2017-06-18T09:59:36Z</time>
      </trkpt>
      <trkpt lat="46.12048" lon="3.46216">
        <ele>370.79</ele>
        <time>2017-06-18T09:59:43Z</time>
      </trkpt>
      <trkpt lat="46.12066" lon="3.46215">
        <ele>371.84</ele>
        <time>2017-06-18T09:59:49Z</time>
      </trkpt>
      <trkpt lat="46.12086" lon="3.46213">
        <ele>368.46</ele>
        <time>2017-06-18T09:59:56Z</time>
      </trkpt>
      <trkpt lat="46.12105" lon="3.46212">
        <ele>367.64</ele>
        <time>2017-06-18T10:00:02Z</time>
      </trkpt>
      <trkpt lat="46.12126" lon="3.46212">
        <ele>360.95</ele>
        <time>2017-06-18T10:00:09Z</time>
      </trkpt>
      <trkpt lat="46.12144" lon="3.46213">
        <ele>361.55</ele>
        <time>2017-06-18T10:00:15Z</time>
      </trkpt>
      <trkpt lat="46.12161" lon="3.46222">
        <ele>359.85</ele>
        <time>2017-06-18T10:00:22Z</time>
      </trkpt>
      <trkpt lat="46.12162" lon="3.46249">
        <ele>359.46</ele>
        <time>2017-06-18T10:00:30Z</time>
      </trkpt>
      <trkpt lat="46.12175" lon="3.4627">
        <ele>357.67</ele>
        <time>2017-06-18T10:00:39Z</time>
      </trkpt>
      <trkpt lat="46.12194" lon="3.46271">
        <ele>356.5</ele>
        <time>2017-06-18T10:00:46Z</time>
      </trkpt>
      <trkpt lat="46.12213" lon="3.46266">
        <ele>362.94</ele>
        <time>2017-06-18T10:00:53Z</time>
      </trkpt>
      <trkpt lat="46.12232" lon="3.46265">
        <ele>364.45</ele>
        <time>2017-06-18T10:01:00Z</time>
      </trkpt>
      <trkpt lat="46.12251" lon="3.46265">
        <ele>365.25</ele>
        <time>2017-06-18T10:01:07Z</time>
      </trkpt>
      <trkpt lat="46.1227" lon="3.46258">
        <ele>364.56</ele>
        <time>2017-06-18T10:01:14Z</time>
      </trkpt>
      <trkpt lat="46.12286" lon="3.46239">
        <ele>363.53</ele>
        <time>2017-06-18T10:01:21Z</time>
      </trkpt>
      <trkpt lat="46.12302" lon="3.46221">
        <ele>362.65</ele>
        <time>2017-06-18T10:01:28Z</time>
      </trkpt>
      <trkpt lat="46.12318" lon="3.46204">
        <ele>361.64</ele>
        <time>2017-06-18T10:01:35Z</time>
      </trkpt>
      <trkpt lat="46.12334" lon="3.46185">
        <ele>362.55</ele>
        <time>2017-06-18T10:01:42Z</time>
      </trkpt>
      <trkpt lat="46.12347" lon="3.46168">
        <ele>361.58</ele>
        <time>2017-06-18T10:01:49Z</time>
      </trkpt>
      <trkpt lat="46.12362" lon="3.46152">
        <ele>360.55</ele>
        <time>2017-06-18T10:01:56Z</time>
      </trkpt>
      <trkpt lat="46.1238" lon="3.46139">
        <ele>360.55</ele>
        <time>2017-06-18T10:02:03Z</time>
      </trkpt>
      <trkpt lat="46.12399" lon="3.46128">
        <ele>361.48</ele>
        <time>2017-06-18T10:02:10Z</time>
      </trkpt>
      <trkpt lat="46.12417" lon="3.46118">
        <ele>359.87</ele>
        <time>2017-06-18T10:02:17Z</time>
      </trkpt>
      <trkpt lat="46.12436" lon="3.46114">
        <ele>359.63</ele>
        <time>2017-06-18T10:02:24Z</time>
      </trkpt>
      <trkpt lat="46.12457" lon="3.46112">
        <ele>358.56</ele>
        <time>2017-06-18T10:02:31Z</time>
      </trkpt>
      <trkpt lat="46.12476" lon="3.4611">
        <ele>359.54</ele>
        <time>2017-06-18T10:02:38Z</time>
      </trkpt>
      <trkpt lat="46.12494" lon="3.46102">
        <ele>358.56</ele>
        <time>2017-06-18T10:02:45Z</time>
      </trkpt>
      <trkpt lat="46.12511" lon="3.46089">
        <ele>359.55</ele>
        <time>2017-06-18T10:02:52Z</time>
      </trkpt>
      <trkpt lat="46.12527" lon="3.46072">
        <ele>359.55</ele>
        <time>2017-06-18T10:02:59Z</time>
      </trkpt>
      <trkpt lat="46.12539" lon="3.46052">
        <ele>360.27</ele>
        <time>2017-06-18T10:03:06Z</time>
      </trkpt>
      <trkpt lat="46.12547" lon="3.46026">
        <ele>361.57</ele>
        <time>2017-06-18T10:03:14Z</time>
      </trkpt>
      <trkpt lat="46.12554" lon="3.46">
        <ele>364.54</ele>
        <time>2017-06-18T10:03:22Z</time>
      </trkpt>
      <trkpt lat="46.12572" lon="3.45991">
        <ele>362.66</ele>
        <time>2017-06-18T10:03:32Z</time>
      </trkpt>
      <trkpt lat="46.1259" lon="3.46004">
        <ele>355.71</ele>
        <time>2017-06-18T10:03:40Z</time>
      </trkpt>
      <trkpt lat="46.12609" lon="3.46003">
        <ele>356.25</ele>
        <time>2017-06-18T10:03:48Z</time>
      </trkpt>
      <trkpt lat="46.12628" lon="3.46004">
        <ele>356.32</ele>
        <time>2017-06-18T10:03:57Z</time>
      </trkpt>
      <trkpt lat="46.12646" lon="3.45996">
        <ele>360.45</ele>
        <time>2017-06-18T10:04:06Z</time>
      </trkpt>
      <trkpt lat="46.12664" lon="3.45988">
        <ele>357.56</ele>
        <time>2017-06-18T10:04:19Z</time>
      </trkpt>
      <trkpt lat="46.1268" lon="3.45973">
        <ele>356.28</ele>
        <time>2017-06-18T10:04:31Z</time>
      </trkpt>
      <trkpt lat="46.12693" lon="3.45954">
        <ele>359.15</ele>
        <time>2017-06-18T10:04:40Z</time>
      </trkpt>
      <trkpt lat="46.12707" lon="3.45935">
        <ele>347.6</ele>
        <time>2017-06-18T10:04:47Z</time>
      </trkpt>
      <trkpt lat="46.12725" lon="3.45926">
        <ele>339.33</ele>
        <time>2017-06-18T10:04:55Z</time>
      </trkpt>
      <trkpt lat="46.12739" lon="3.45907">
        <ele>337.89</ele>
        <time>2017-06-18T10:05:05Z</time>
      </trkpt>
      <trkpt lat="46.12757" lon="3.45899">
        <ele>334.55</ele>
        <time>2017-06-18T10:05:15Z</time>
      </trkpt>
      <trkpt lat="46.12776" lon="3.45901">
        <ele>334.28</ele>
        <time>2017-06-18T10:05:25Z</time>
      </trkpt>
      <trkpt lat="46.12793" lon="3.45879">
        <ele>326.33</ele>
        <time>2017-06-18T10:05:31Z</time>
      </trkpt>
      <trkpt lat="46.1281" lon="3.45866">
        <ele>326.25</ele>
        <time>2017-06-18T10:05:46Z</time>
      </trkpt>
      <trkpt lat="46.12824" lon="3.45846">
        <ele>323.22</ele>
        <time>2017-06-18T10:05:55Z</time>
      </trkpt>
      <trkpt lat="46.1284" lon="3.45829">
        <ele>320.99</ele>
        <time>2017-06-18T10:06:06Z</time>
      </trkpt>
      <trkpt lat="46.12858" lon="3.45822">
        <ele>313.99</ele>
        <time>2017-06-18T10:06:17Z</time>
      </trkpt>
      <trkpt lat="46.12875" lon="3.45836">
        <ele>319.73</ele>
        <time>2017-06-18T10:06:30Z</time>
      </trkpt>
      <trkpt lat="46.12891" lon="3.45851">
        <ele>317.57</ele>
        <time>2017-06-18T10:06:37Z</time>
      </trkpt>
      <trkpt lat="46.12904" lon="3.45871">
        <ele>294.25</ele>
        <time>2017-06-18T10:06:46Z</time>
      </trkpt>
      <trkpt lat="46.12917" lon="3.45891">
        <ele>289.31</ele>
        <time>2017-06-18T10:06:52Z</time>
      </trkpt>
      <trkpt lat="46.12932" lon="3.45909">
        <ele>280.88</ele>
        <time>2017-06-18T10:06:56Z</time>
      </trkpt>
      <trkpt lat="46.12948" lon="3.45922">
        <ele>278.71</ele>
        <time>2017-06-18T10:07:02Z</time>
      </trkpt>
      <trkpt lat="46.12966" lon="3.45928">
        <ele>273.71</ele>
        <time>2017-06-18T10:07:13Z</time>
      </trkpt>
      <trkpt lat="46.12984" lon="3.45935">
        <ele>273.94</ele>
        <time>2017-06-18T10:07:20Z</time>
      </trkpt>
      <trkpt lat="46.13002" lon="3.45937">
        <ele>275.79</ele>
        <time>2017-06-18T10:07:25Z</time>
      </trkpt>
      <trkpt lat="46.13024" lon="3.45936">
        <ele>281.97</ele>
        <time>2017-06-18T10:07:31Z</time>
      </trkpt>
      <trkpt lat="46.13043" lon="3.45932">
        <ele>286.24</ele>
        <time>2017-06-18T10:07:38Z</time>
      </trkpt>
      <trkpt lat="46.13061" lon="3.45926">
        <ele>288.25</ele>
        <time>2017-06-18T10:07:45Z</time>
      </trkpt>
      <trkpt lat="46.13078" lon="3.45907">
        <ele>296.41</ele>
        <time>2017-06-18T10:07:52Z</time>
      </trkpt>
      <trkpt lat="46.13098" lon="3.45904">
        <ele>294.5</ele>
        <time>2017-06-18T10:07:59Z</time>
      </trkpt>
      <trkpt lat="46.13116" lon="3.45895">
        <ele>293.62</ele>
        <time>2017-06-18T10:08:09Z</time>
      </trkpt>
      <trkpt lat="46.13133" lon="3.459">
        <ele>289.38</ele>
        <time>2017-06-18T10:08:20Z</time>
      </trkpt>
      <trkpt lat="46.13151" lon="3.45891">
        <ele>290.39</ele>
        <time>2017-06-18T10:08:25Z</time>
      </trkpt>
      <trkpt lat="46.13172" lon="3.45897">
        <ele>292</ele>
        <time>2017-06-18T10:08:32Z</time>
      </trkpt>
      <trkpt lat="46.13192" lon="3.45901">
        <ele>292.55</ele>
        <time>2017-06-18T10:08:39Z</time>
      </trkpt>
      <trkpt lat="46.13211" lon="3.45906">
        <ele>289.96</ele>
        <time>2017-06-18T10:08:46Z</time>
      </trkpt>
      <trkpt lat="46.13232" lon="3.45911">
        <ele>288.34</ele>
        <time>2017-06-18T10:08:56Z</time>
      </trkpt>
      <trkpt lat="46.1325" lon="3.45914">
        <ele>288.78</ele>
        <time>2017-06-18T10:09:04Z</time>
      </trkpt>
      <trkpt lat="46.13269" lon="3.45917">
        <ele>290.53</ele>
        <time>2017-06-18T10:09:11Z</time>
      </trkpt>
      <trkpt lat="46.13288" lon="3.45921">
        <ele>286.23</ele>
        <time>2017-06-18T10:09:19Z</time>
      </trkpt>
      <trkpt lat="46.13309" lon="3.45928">
        <ele>288.86</ele>
        <time>2017-06-18T10:09:24Z</time>
      </trkpt>
      <trkpt lat="46.13328" lon="3.45916">
        <ele>296.04</ele>
        <time>2017-06-18T10:09:30Z</time>
      </trkpt>
      <trkpt lat="46.13341" lon="3.45898">
        <ele>293.54</ele>
        <time>2017-06-18T10:09:36Z</time>
      </trkpt>
      <trkpt lat="46.13356" lon="3.45877">
        <ele>293.55</ele>
        <time>2017-06-18T10:09:43Z</time>
      </trkpt>
      <trkpt lat="46.13368" lon="3.45856">
        <ele>294.84</ele>
        <time>2017-06-18T10:09:50Z</time>
      </trkpt>
      <trkpt lat="46.13379" lon="3.45832">
        <ele>294.55</ele>
        <time>2017-06-18T10:09:57Z</time>
      </trkpt>
      <trkpt lat="46.1339" lon="3.45809">
        <ele>297.09</ele>
        <time>2017-06-18T10:10:04Z</time>
      </trkpt>
      <trkpt lat="46.13401" lon="3.45786">
        <ele>298.53</ele>
        <time>2017-06-18T10:10:11Z</time>
      </trkpt>
      <trkpt lat="46.13412" lon="3.45763">
        <ele>298.58</ele>
        <time>2017-06-18T10:10:18Z</time>
      </trkpt>
      <trkpt lat="46.13429" lon="3.45748">
        <ele>300.52</ele>
        <time>2017-06-18T10:10:26Z</time>
      </trkpt>
      <trkpt lat="46.13446" lon="3.45741">
        <ele>301.3</ele>
        <time>2017-06-18T10:10:33Z</time>
      </trkpt>
      <trkpt lat="46.13451" lon="3.45715">
        <ele>308.13</ele>
        <time>2017-06-18T10:10:43Z</time>
      </trkpt>
      <trkpt lat="46.13461" lon="3.45688">
        <ele>311.59</ele>
        <time>2017-06-18T10:10:58Z</time>
      </trkpt>
      <trkpt lat="46.1347" lon="3.45663">
        <ele>308.08</ele>
        <time>2017-06-18T10:11:04Z</time>
      </trkpt>
      <trkpt lat="46.13481" lon="3.45636">
        <ele>304.24</ele>
        <time>2017-06-18T10:11:11Z</time>
      </trkpt>
      <trkpt lat="46.13491" lon="3.45613">
        <ele>302.46</ele>
        <time>2017-06-18T10:11:18Z</time>
      </trkpt>
      <trkpt lat="46.13511" lon="3.45606">
        <ele>303.53</ele>
        <time>2017-06-18T10:11:26Z</time>
      </trkpt>
      <trkpt lat="46.13527" lon="3.4559">
        <ele>297.32</ele>
        <time>2017-06-18T10:11:32Z</time>
      </trkpt>
      <trkpt lat="46.13544" lon="3.45572">
        <ele>296.22</ele>
        <time>2017-06-18T10:11:42Z</time>
      </trkpt>
      <trkpt lat="46.13563" lon="3.45572">
        <ele>292.64</ele>
        <time>2017-06-18T10:11:50Z</time>
      </trkpt>
      <trkpt lat="46.13582" lon="3.45574">
        <ele>287.4</ele>
        <time>2017-06-18T10:11:57Z</time>
      </trkpt>
      <trkpt lat="46.13602" lon="3.45577">
        <ele>287.26</ele>
        <time>2017-06-18T10:12:04Z</time>
      </trkpt>
      <trkpt lat="46.13621" lon="3.45574">
        <ele>287.96</ele>
        <time>2017-06-18T10:12:12Z</time>
      </trkpt>
      <trkpt lat="46.13638" lon="3.45562">
        <ele>295.34</ele>
        <time>2017-06-18T10:12:22Z</time>
      </trkpt>
      <trkpt lat="46.13645" lon="3.45535">
        <ele>301.63</ele>
        <time>2017-06-18T10:12:30Z</time>
      </trkpt>
      <trkpt lat="46.13649" lon="3.45509">
        <ele>305.52</ele>
        <time>2017-06-18T10:12:37Z</time>
      </trkpt>
      <trkpt lat="46.13655" lon="3.45481">
        <ele>305.63</ele>
        <time>2017-06-18T10:12:45Z</time>
      </trkpt>
      <trkpt lat="46.13661" lon="3.4545">
        <ele>302.15</ele>
        <time>2017-06-18T10:12:53Z</time>
      </trkpt>
      <trkpt lat="46.13668" lon="3.45422">
        <ele>303.54</ele>
        <time>2017-06-18T10:13:01Z</time>
      </trkpt>
      <trkpt lat="46.13678" lon="3.45399">
        <ele>304.47</ele>
        <time>2017-06-18T10:13:08Z</time>
      </trkpt>
      <trkpt lat="46.13688" lon="3.45377">
        <ele>304.64</ele>
        <time>2017-06-18T10:13:15Z</time>
      </trkpt>
      <trkpt lat="46.13698" lon="3.45352">
        <ele>300.98</ele>
        <time>2017-06-18T10:13:22Z</time>
      </trkpt>
      <trkpt lat="46.13717" lon="3.45349">
        <ele>292.89</ele>
        <time>2017-06-18T10:13:31Z</time>
      </trkpt>
      <trkpt lat="46.13735" lon="3.45359">
        <ele>288.65</ele>
        <time>2017-06-18T10:13:39Z</time>
      </trkpt>
      <trkpt lat="46.13752" lon="3.45373">
        <ele>284.59</ele>
        <time>2017-06-18T10:13:47Z</time>
      </trkpt>
      <trkpt lat="46.13768" lon="3.45388">
        <ele>286.25</ele>
        <time>2017-06-18T10:13:55Z</time>
      </trkpt>
      <trkpt lat="46.13783" lon="3.45405">
        <ele>285.73</ele>
        <time>2017-06-18T10:14:02Z</time>
      </trkpt>
      <trkpt lat="46.13799" lon="3.45418">
        <ele>283.56</ele>
        <time>2017-06-18T10:14:09Z</time>
      </trkpt>
      <trkpt lat="46.13817" lon="3.45427">
        <ele>284.17</ele>
        <time>2017-06-18T10:14:16Z</time>
      </trkpt>
      <trkpt lat="46.13834" lon="3.45419">
        <ele>287.48</ele>
        <time>2017-06-18T10:14:23Z</time>
      </trkpt>
      <trkpt lat="46.13839" lon="3.45392">
        <ele>290.47</ele>
        <time>2017-06-18T10:14:31Z</time>
      </trkpt>
      <trkpt lat="46.13841" lon="3.45365">
        <ele>294.16</ele>
        <time>2017-06-18T10:14:39Z</time>
      </trkpt>
      <trkpt lat="46.13845" lon="3.4534">
        <ele>299.22</ele>
        <time>2017-06-18T10:14:47Z</time>
      </trkpt>
      <trkpt lat="46.13847" lon="3.45313">
        <ele>299.26</ele>
        <time>2017-06-18T10:14:54Z</time>
      </trkpt>
      <trkpt lat="46.13852" lon="3.45285">
        <ele>297.49</ele>
        <time>2017-06-18T10:15:01Z</time>
      </trkpt>
      <trkpt lat="46.13855" lon="3.45257">
        <ele>295.56</ele>
        <time>2017-06-18T10:15:08Z</time>
      </trkpt>
      <trkpt lat="46.13859" lon="3.45231">
        <ele>295.55</ele>
        <time>2017-06-18T10:15:15Z</time>
      </trkpt>
      <trkpt lat="46.13864" lon="3.45205">
        <ele>297.37</ele>
        <time>2017-06-18T10:15:24Z</time>
      </trkpt>
      <trkpt lat="46.13868" lon="3.45176">
        <ele>295.94</ele>
        <time>2017-06-18T10:15:31Z</time>
      </trkpt>
      <trkpt lat="46.1387" lon="3.45148">
        <ele>296.47</ele>
        <time>2017-06-18T10:15:39Z</time>
      </trkpt>
      <trkpt lat="46.13872" lon="3.45119">
        <ele>297.76</ele>
        <time>2017-06-18T10:15:47Z</time>
      </trkpt>
      <trkpt lat="46.13874" lon="3.45092">
        <ele>296.85</ele>
        <time>2017-06-18T10:15:54Z</time>
      </trkpt>
      <trkpt lat="46.13877" lon="3.45064">
        <ele>298.46</ele>
        <time>2017-06-18T10:16:02Z</time>
      </trkpt>
      <trkpt lat="46.13876" lon="3.45036">
        <ele>299.65</ele>
        <time>2017-06-18T10:16:09Z</time>
      </trkpt>
      <trkpt lat="46.13873" lon="3.45009">
        <ele>298.53</ele>
        <time>2017-06-18T10:16:16Z</time>
      </trkpt>
      <trkpt lat="46.13884" lon="3.44986">
        <ele>296.65</ele>
        <time>2017-06-18T10:16:24Z</time>
      </trkpt>
      <trkpt lat="46.13903" lon="3.4497">
        <ele>287.56</ele>
        <time>2017-06-18T10:16:32Z</time>
      </trkpt>
      <trkpt lat="46.13923" lon="3.44967">
        <ele>287.82</ele>
        <time>2017-06-18T10:16:40Z</time>
      </trkpt>
      <trkpt lat="46.13942" lon="3.44967">
        <ele>289.54</ele>
        <time>2017-06-18T10:16:48Z</time>
      </trkpt>
      <trkpt lat="46.13961" lon="3.44968">
        <ele>291.55</ele>
        <time>2017-06-18T10:16:55Z</time>
      </trkpt>
      <trkpt lat="46.13981" lon="3.44969">
        <ele>292.54</ele>
        <time>2017-06-18T10:17:03Z</time>
      </trkpt>
      <trkpt lat="46.14001" lon="3.44969">
        <ele>291.83</ele>
        <time>2017-06-18T10:17:11Z</time>
      </trkpt>
      <trkpt lat="46.14019" lon="3.44971">
        <ele>290.73</ele>
        <time>2017-06-18T10:17:17Z</time>
      </trkpt>
      <trkpt lat="46.14038" lon="3.44962">
        <ele>288.21</ele>
        <time>2017-06-18T10:17:25Z</time>
      </trkpt>
      <trkpt lat="46.14057" lon="3.44961">
        <ele>290.83</ele>
        <time>2017-06-18T10:17:33Z</time>
      </trkpt>
      <trkpt lat="46.14076" lon="3.44952">
        <ele>304.48</ele>
        <time>2017-06-18T10:17:42Z</time>
      </trkpt>
      <trkpt lat="46.14096" lon="3.44946">
        <ele>303.55</ele>
        <time>2017-06-18T10:17:50Z</time>
      </trkpt>
      <trkpt lat="46.14114" lon="3.44943">
        <ele>306.53</ele>
        <time>2017-06-18T10:17:58Z</time>
      </trkpt>
      <trkpt lat="46.14134" lon="3.4494">
        <ele>308.45</ele>
        <time>2017-06-18T10:18:07Z</time>
      </trkpt>
      <trkpt lat="46.14153" lon="3.44939">
        <ele>304.68</ele>
        <time>2017-06-18T10:18:14Z</time>
      </trkpt>
      <trkpt lat="46.14172" lon="3.44935">
        <ele>303.86</ele>
        <time>2017-06-18T10:18:22Z</time>
      </trkpt>
      <trkpt lat="46.1419" lon="3.44932">
        <ele>303.56</ele>
        <time>2017-06-18T10:18:30Z</time>
      </trkpt>
      <trkpt lat="46.1421" lon="3.44931">
        <ele>301.65</ele>
        <time>2017-06-18T10:18:39Z</time>
      </trkpt>
      <trkpt lat="46.1423" lon="3.44931">
        <ele>300.83</ele>
        <time>2017-06-18T10:18:47Z</time>
      </trkpt>
      <trkpt lat="46.14249" lon="3.44934">
        <ele>300.53</ele>
        <time>2017-06-18T10:18:56Z</time>
      </trkpt>
      <trkpt lat="46.14268" lon="3.44937">
        <ele>299.76</ele>
        <time>2017-06-18T10:19:04Z</time>
      </trkpt>
      <trkpt lat="46.14286" lon="3.4494">
        <ele>300.55</ele>
        <time>2017-06-18T10:19:12Z</time>
      </trkpt>
      <trkpt lat="46.14305" lon="3.44944">
        <ele>303.16</ele>
        <time>2017-06-18T10:19:20Z</time>
      </trkpt>
      <trkpt lat="46.14323" lon="3.44946">
        <ele>304.55</ele>
        <time>2017-06-18T10:19:28Z</time>
      </trkpt>
      <trkpt lat="46.14342" lon="3.44952">
        <ele>308.82</ele>
        <time>2017-06-18T10:19:41Z</time>
      </trkpt>
      <trkpt lat="46.1436" lon="3.44963">
        <ele>313.24</ele>
        <time>2017-06-18T10:20:09Z</time>
      </trkpt>
      <trkpt lat="46.14378" lon="3.44971">
        <ele>318.25</ele>
        <time>2017-06-18T10:20:24Z</time>
      </trkpt>
      <trkpt lat="46.14396" lon="3.44977">
        <ele>320.55</ele>
        <time>2017-06-18T10:20:39Z</time>
      </trkpt>
      <trkpt lat="46.14415" lon="3.44986">
        <ele>322.55</ele>
        <time>2017-06-18T10:20:51Z</time>
      </trkpt>
      <trkpt lat="46.14432" lon="3.44997">
        <ele>323.55</ele>
        <time>2017-06-18T10:20:59Z</time>
      </trkpt>
      <trkpt lat="46.1445" lon="3.45003">
        <ele>327.24</ele>
        <time>2017-06-18T10:21:08Z</time>
      </trkpt>
      <trkpt lat="46.14467" lon="3.45017">
        <ele>328.47</ele>
        <time>2017-06-18T10:21:17Z</time>
      </trkpt>
      <trkpt lat="46.14478" lon="3.45041">
        <ele>331.15</ele>
        <time>2017-06-18T10:21:26Z</time>
      </trkpt>
      <trkpt lat="46.1449" lon="3.45062">
        <ele>330.57</ele>
        <time>2017-06-18T10:21:34Z</time>
      </trkpt>
      <trkpt lat="46.14502" lon="3.45086">
        <ele>329.18</ele>
        <time>2017-06-18T10:21:43Z</time>
      </trkpt>
      <trkpt lat="46.14512" lon="3.4511">
        <ele>326.49</ele>
        <time>2017-06-18T10:21:51Z</time>
      </trkpt>
      <trkpt lat="46.14531" lon="3.45108">
        <ele>328.53</ele>
        <time>2017-06-18T10:22:00Z</time>
      </trkpt>
      <trkpt lat="46.14549" lon="3.45097">
        <ele>330.53</ele>
        <time>2017-06-18T10:22:09Z</time>
      </trkpt>
      <trkpt lat="46.14567" lon="3.45087">
        <ele>333.45</ele>
        <time>2017-06-18T10:22:18Z</time>
      </trkpt>
      <trkpt lat="46.14584" lon="3.45075">
        <ele>336.24</ele>
        <time>2017-06-18T10:22:27Z</time>
      </trkpt>
      <trkpt lat="46.14598" lon="3.45059">
        <ele>338.53</ele>
        <time>2017-06-18T10:22:36Z</time>
      </trkpt>
      <trkpt lat="46.14614" lon="3.45041">
        <ele>342.46</ele>
        <time>2017-06-18T10:22:46Z</time>
      </trkpt>
      <trkpt lat="46.1463" lon="3.45029">
        <ele>343.53</ele>
        <time>2017-06-18T10:22:55Z</time>
      </trkpt>
      <trkpt lat="46.14648" lon="3.45022">
        <ele>344.25</ele>
        <time>2017-06-18T10:23:04Z</time>
      </trkpt>
      <trkpt lat="46.14666" lon="3.4502">
        <ele>344.55</ele>
        <time>2017-06-18T10:23:13Z</time>
      </trkpt>
      <trkpt lat="46.14685" lon="3.45022">
        <ele>344.46</ele>
        <time>2017-06-18T10:23:23Z</time>
      </trkpt>
      <trkpt lat="46.14703" lon="3.45024">
        <ele>345.54</ele>
        <time>2017-06-18T10:23:32Z</time>
      </trkpt>
      <trkpt lat="46.14722" lon="3.45025">
        <ele>349.45</ele>
        <time>2017-06-18T10:23:41Z</time>
      </trkpt>
      <trkpt lat="46.14739" lon="3.4503">
        <ele>351.53</ele>
        <time>2017-06-18T10:23:50Z</time>
      </trkpt>
      <trkpt lat="46.14757" lon="3.45036">
        <ele>353.53</ele>
        <time>2017-06-18T10:23:58Z</time>
      </trkpt>
      <trkpt lat="46.14776" lon="3.45031">
        <ele>355.25</ele>
        <time>2017-06-18T10:24:06Z</time>
      </trkpt>
      <trkpt lat="46.14782" lon="3.45005">
        <ele>354.56</ele>
        <time>2017-06-18T10:24:16Z</time>
      </trkpt>
      <trkpt lat="46.14784" lon="3.44976">
        <ele>356.53</ele>
        <time>2017-06-18T10:24:26Z</time>
      </trkpt>
      <trkpt lat="46.14787" lon="3.44949">
        <ele>358.55</ele>
        <time>2017-06-18T10:24:35Z</time>
      </trkpt>
      <trkpt lat="46.14797" lon="3.44926">
        <ele>362.23</ele>
        <time>2017-06-18T10:24:45Z</time>
      </trkpt>
      <trkpt lat="46.14808" lon="3.44904">
        <ele>363.55</ele>
        <time>2017-06-18T10:24:55Z</time>
      </trkpt>
      <trkpt lat="46.14816" lon="3.44881">
        <ele>365.55</ele>
        <time>2017-06-18T10:25:05Z</time>
      </trkpt>
      <trkpt lat="46.14824" lon="3.44857">
        <ele>369.16</ele>
        <time>2017-06-18T10:25:16Z</time>
      </trkpt>
      <trkpt lat="46.14834" lon="3.44835">
        <ele>376.43</ele>
        <time>2017-06-18T10:25:29Z</time>
      </trkpt>
      <trkpt lat="46.14845" lon="3.44813">
        <ele>382.74</ele>
        <time>2017-06-18T10:25:43Z</time>
      </trkpt>
      <trkpt lat="46.14862" lon="3.44804">
        <ele>383.31</ele>
        <time>2017-06-18T10:25:52Z</time>
      </trkpt>
      <trkpt lat="46.1488" lon="3.44802">
        <ele>383.66</ele>
        <time>2017-06-18T10:26:01Z</time>
      </trkpt>
      <trkpt lat="46.14899" lon="3.44802">
        <ele>379.58</ele>
        <time>2017-06-18T10:26:09Z</time>
      </trkpt>
      <trkpt lat="46.14918" lon="3.44805">
        <ele>378.83</ele>
        <time>2017-06-18T10:26:18Z</time>
      </trkpt>
      <trkpt lat="46.14937" lon="3.44807">
        <ele>381.44</ele>
        <time>2017-06-18T10:26:27Z</time>
      </trkpt>
      <trkpt lat="46.14955" lon="3.44801">
        <ele>385.16</ele>
        <time>2017-06-18T10:26:37Z</time>
      </trkpt>
      <trkpt lat="46.14974" lon="3.44797">
        <ele>388.46</ele>
        <time>2017-06-18T10:26:46Z</time>
      </trkpt>
      <trkpt lat="46.14993" lon="3.44793">
        <ele>390.46</ele>
        <time>2017-06-18T10:26:55Z</time>
      </trkpt>
      <trkpt lat="46.15012" lon="3.44787">
        <ele>391.5</ele>
        <time>2017-06-18T10:27:04Z</time>
      </trkpt>
      <trkpt lat="46.15031" lon="3.44788">
        <ele>395.22</ele>
        <time>2017-06-18T10:27:14Z</time>
      </trkpt>
      <trkpt lat="46.15049" lon="3.44785">
        <ele>394.86</ele>
        <time>2017-06-18T10:27:23Z</time>
      </trkpt>
      <trkpt lat="46.15069" lon="3.44783">
        <ele>394.58</ele>
        <time>2017-06-18T10:27:32Z</time>
      </trkpt>
      <trkpt lat="46.15089" lon="3.44783">
        <ele>393.55</ele>
        <time>2017-06-18T10:27:40Z</time>
      </trkpt>
      <trkpt lat="46.15109" lon="3.44785">
        <ele>394.25</ele>
        <time>2017-06-18T10:27:48Z</time>
      </trkpt>
      <trkpt lat="46.15128" lon="3.44787">
        <ele>395.54</ele>
        <time>2017-06-18T10:27:56Z</time>
      </trkpt>
      <trkpt lat="46.15146" lon="3.44793">
        <ele>397.45</ele>
        <time>2017-06-18T10:28:04Z</time>
      </trkpt>
      <trkpt lat="46.15165" lon="3.44799">
        <ele>397.55</ele>
        <time>2017-06-18T10:28:12Z</time>
      </trkpt>
      <trkpt lat="46.15183" lon="3.44808">
        <ele>398.47</ele>
        <time>2017-06-18T10:28:20Z</time>
      </trkpt>
      <trkpt lat="46.15199" lon="3.44819">
        <ele>399.53</ele>
        <time>2017-06-18T10:28:29Z</time>
      </trkpt>
      <trkpt lat="46.15217" lon="3.44831">
        <ele>403.24</ele>
        <time>2017-06-18T10:28:38Z</time>
      </trkpt>
      <trkpt lat="46.15234" lon="3.44841">
        <ele>404.55</ele>
        <time>2017-06-18T10:28:46Z</time>
      </trkpt>
      <trkpt lat="46.15253" lon="3.44848">
        <ele>406.55</ele>
        <time>2017-06-18T10:28:54Z</time>
      </trkpt>
      <trkpt lat="46.15272" lon="3.44855">
        <ele>405.85</ele>
        <time>2017-06-18T10:29:02Z</time>
      </trkpt>
      <trkpt lat="46.15291" lon="3.44859">
        <ele>406.55</ele>
        <time>2017-06-18T10:29:10Z</time>
      </trkpt>
      <trkpt lat="46.1531" lon="3.44863">
        <ele>408.53</ele>
        <time>2017-06-18T10:29:18Z</time>
      </trkpt>
      <trkpt lat="46.15328" lon="3.44859">
        <ele>409.55</ele>
        <time>2017-06-18T10:29:25Z</time>
      </trkpt>
      <trkpt lat="46.15347" lon="3.44851">
        <ele>409.55</ele>
        <time>2017-06-18T10:29:32Z</time>
      </trkpt>
      <trkpt lat="46.15366" lon="3.44846">
        <ele>408.56</ele>
        <time>2017-06-18T10:29:39Z</time>
      </trkpt>
      <trkpt lat="46.15384" lon="3.44843">
        <ele>406.64</ele>
        <time>2017-06-18T10:29:46Z</time>
      </trkpt>
      <trkpt lat="46.15403" lon="3.44847">
        <ele>403.67</ele>
        <time>2017-06-18T10:29:54Z</time>
      </trkpt>
      <trkpt lat="46.15421" lon="3.44855">
        <ele>401.07</ele>
        <time>2017-06-18T10:30:01Z</time>
      </trkpt>
      <trkpt lat="46.15438" lon="3.44867">
        <ele>394.66</ele>
        <time>2017-06-18T10:30:08Z</time>
      </trkpt>
      <trkpt lat="46.15452" lon="3.44884">
        <ele>392.55</ele>
        <time>2017-06-18T10:30:17Z</time>
      </trkpt>
      <trkpt lat="46.15467" lon="3.449">
        <ele>397.64</ele>
        <time>2017-06-18T10:30:27Z</time>
      </trkpt>
      <trkpt lat="46.15481" lon="3.44918">
        <ele>398.23</ele>
        <time>2017-06-18T10:30:36Z</time>
      </trkpt>
      <trkpt lat="46.15497" lon="3.4494">
        <ele>392.96</ele>
        <time>2017-06-18T10:30:44Z</time>
      </trkpt>
      <trkpt lat="46.15513" lon="3.44954">
        <ele>387.52</ele>
        <time>2017-06-18T10:30:51Z</time>
      </trkpt>
      <trkpt lat="46.15531" lon="3.44961">
        <ele>384.68</ele>
        <time>2017-06-18T10:30:57Z</time>
      </trkpt>
      <trkpt lat="46.15548" lon="3.44952">
        <ele>382.67</ele>
        <time>2017-06-18T10:31:04Z</time>
      </trkpt>
      <trkpt lat="46.15565" lon="3.4494">
        <ele>382.57</ele>
        <time>2017-06-18T10:31:24Z</time>
      </trkpt>
      <trkpt lat="46.15583" lon="3.44938">
        <ele>389.32</ele>
        <time>2017-06-18T10:32:43Z</time>
      </trkpt>
      <trkpt lat="46.15601" lon="3.44929">
        <ele>395.43</ele>
        <time>2017-06-18T10:32:58Z</time>
      </trkpt>
      <trkpt lat="46.15616" lon="3.44916">
        <ele>396.46</ele>
        <time>2017-06-18T10:33:14Z</time>
      </trkpt>
      <trkpt lat="46.15629" lon="3.44897">
        <ele>398.85</ele>
        <time>2017-06-18T10:33:59Z</time>
      </trkpt>
      <trkpt lat="46.15636" lon="3.44873">
        <ele>394.23</ele>
        <time>2017-06-18T10:34:30Z</time>
      </trkpt>
      <trkpt lat="46.15645" lon="3.44849">
        <ele>398.46</ele>
        <time>2017-06-18T10:34:39Z</time>
      </trkpt>
      <trkpt lat="46.1566" lon="3.44834">
        <ele>401.46</ele>
        <time>2017-06-18T10:34:47Z</time>
      </trkpt>
      <trkpt lat="46.15677" lon="3.44826">
        <ele>404.45</ele>
        <time>2017-06-18T10:34:55Z</time>
      </trkpt>
      <trkpt lat="46.15695" lon="3.44817">
        <ele>409.15</ele>
        <time>2017-06-18T10:35:04Z</time>
      </trkpt>
      <trkpt lat="46.15713" lon="3.44812">
        <ele>410.46</ele>
        <time>2017-06-18T10:35:12Z</time>
      </trkpt>
      <trkpt lat="46.15731" lon="3.44805">
        <ele>410.48</ele>
        <time>2017-06-18T10:35:19Z</time>
      </trkpt>
      <trkpt lat="46.1575" lon="3.44799">
        <ele>411.54</ele>
        <time>2017-06-18T10:35:27Z</time>
      </trkpt>
      <trkpt lat="46.1577" lon="3.44793">
        <ele>413.56</ele>
        <time>2017-06-18T10:35:36Z</time>
      </trkpt>
      <trkpt lat="46.15788" lon="3.44785">
        <ele>419.13</ele>
        <time>2017-06-18T10:35:45Z</time>
      </trkpt>
      <trkpt lat="46.15805" lon="3.44773">
        <ele>420.46</ele>
        <time>2017-06-18T10:35:53Z</time>
      </trkpt>
      <trkpt lat="46.15817" lon="3.4475">
        <ele>420.85</ele>
        <time>2017-06-18T10:36:03Z</time>
      </trkpt>
      <trkpt lat="46.15815" lon="3.44722">
        <ele>423.83</ele>
        <time>2017-06-18T10:36:12Z</time>
      </trkpt>
      <trkpt lat="46.15813" lon="3.44695">
        <ele>419.88</ele>
        <time>2017-06-18T10:36:19Z</time>
      </trkpt>
      <trkpt lat="46.15812" lon="3.44666">
        <ele>415.88</ele>
        <time>2017-06-18T10:36:26Z</time>
      </trkpt>
      <trkpt lat="46.1581" lon="3.44637">
        <ele>414.57</ele>
        <time>2017-06-18T10:36:34Z</time>
      </trkpt>
      <trkpt lat="46.15808" lon="3.4461">
        <ele>413.55</ele>
        <time>2017-06-18T10:36:41Z</time>
      </trkpt>
      <trkpt lat="46.15807" lon="3.44584">
        <ele>413.27</ele>
        <time>2017-06-18T10:36:48Z</time>
      </trkpt>
      <trkpt lat="46.15806" lon="3.44557">
        <ele>413.55</ele>
        <time>2017-06-18T10:36:55Z</time>
      </trkpt>
      <trkpt lat="46.15805" lon="3.4453">
        <ele>413.34</ele>
        <time>2017-06-18T10:37:02Z</time>
      </trkpt>
      <trkpt lat="46.15806" lon="3.44504">
        <ele>412.85</ele>
        <time>2017-06-18T10:37:09Z</time>
      </trkpt>
      <trkpt lat="46.15807" lon="3.44474">
        <ele>411.64</ele>
        <time>2017-06-18T10:37:17Z</time>
      </trkpt>
      <trkpt lat="46.15815" lon="3.44448">
        <ele>410.55</ele>
        <time>2017-06-18T10:37:25Z</time>
      </trkpt>
      <trkpt lat="46.15825" lon="3.44426">
        <ele>408.56</ele>
        <time>2017-06-18T10:37:32Z</time>
      </trkpt>
      <trkpt lat="46.15837" lon="3.44405">
        <ele>406.65</ele>
        <time>2017-06-18T10:37:39Z</time>
      </trkpt>
      <trkpt lat="46.15852" lon="3.44386">
        <ele>402.95</ele>
        <time>2017-06-18T10:37:47Z</time>
      </trkpt>
      <trkpt lat="46.15868" lon="3.44373">
        <ele>399.94</ele>
        <time>2017-06-18T10:37:55Z</time>
      </trkpt>
      <trkpt lat="46.15884" lon="3.44356">
        <ele>394.97</ele>
        <time>2017-06-18T10:38:02Z</time>
      </trkpt>
      <trkpt lat="46.15894" lon="3.44329">
        <ele>395.13</ele>
        <time>2017-06-18T10:38:11Z</time>
      </trkpt>
      <trkpt lat="46.15887" lon="3.44304">
        <ele>390.16</ele>
        <time>2017-06-18T10:38:18Z</time>
      </trkpt>
      <trkpt lat="46.15879" lon="3.44278">
        <ele>386.57</ele>
        <time>2017-06-18T10:38:26Z</time>
      </trkpt>
      <trkpt lat="46.15872" lon="3.4425">
        <ele>384.57</ele>
        <time>2017-06-18T10:38:34Z</time>
      </trkpt>
      <trkpt lat="46.15872" lon="3.44222">
        <ele>378.17</ele>
        <time>2017-06-18T10:38:41Z</time>
      </trkpt>
      <trkpt lat="46.15877" lon="3.44195">
        <ele>376.57</ele>
        <time>2017-06-18T10:38:49Z</time>
      </trkpt>
      <trkpt lat="46.15874" lon="3.44169">
        <ele>378.22</ele>
        <time>2017-06-18T10:38:57Z</time>
      </trkpt>
      <trkpt lat="46.15872" lon="3.44142">
        <ele>375.53</ele>
        <time>2017-06-18T10:39:04Z</time>
      </trkpt>
      <trkpt lat="46.15874" lon="3.44116">
        <ele>378.45</ele>
        <time>2017-06-18T10:39:12Z</time>
      </trkpt>
      <trkpt lat="46.15881" lon="3.44089">
        <ele>378.56</ele>
        <time>2017-06-18T10:39:20Z</time>
      </trkpt>
      <trkpt lat="46.15885" lon="3.44061">
        <ele>381.52</ele>
        <time>2017-06-18T10:39:29Z</time>
      </trkpt>
      <trkpt lat="46.15891" lon="3.44035">
        <ele>379.6</ele>
        <time>2017-06-18T10:39:41Z</time>
      </trkpt>
      <trkpt lat="46.15898" lon="3.44009">
        <ele>376.76</ele>
        <time>2017-06-18T10:39:55Z</time>
      </trkpt>
      <trkpt lat="46.15901" lon="3.43984">
        <ele>377.62</ele>
        <time>2017-06-18T10:40:10Z</time>
      </trkpt>
      <trkpt lat="46.15908" lon="3.43958">
        <ele>381.54</ele>
        <time>2017-06-18T10:40:27Z</time>
      </trkpt>
      <trkpt lat="46.15909" lon="3.43932">
        <ele>382.55</ele>
        <time>2017-06-18T10:40:44Z</time>
      </trkpt>
      <trkpt lat="46.15923" lon="3.43914">
        <ele>391.45</ele>
        <time>2017-06-18T10:41:12Z</time>
      </trkpt>
      <trkpt lat="46.15932" lon="3.43891">
        <ele>396.63</ele>
        <time>2017-06-18T10:41:29Z</time>
      </trkpt>
      <trkpt lat="46.15945" lon="3.43872">
        <ele>397.09</ele>
        <time>2017-06-18T10:41:40Z</time>
      </trkpt>
      <trkpt lat="46.15963" lon="3.43881">
        <ele>391.67</ele>
        <time>2017-06-18T10:41:49Z</time>
      </trkpt>
      <trkpt lat="46.1598" lon="3.43896">
        <ele>389.56</ele>
        <time>2017-06-18T10:41:57Z</time>
      </trkpt>
      <trkpt lat="46.15995" lon="3.43912">
        <ele>388.55</ele>
        <time>2017-06-18T10:42:04Z</time>
      </trkpt>
      <trkpt lat="46.16011" lon="3.43928">
        <ele>386.64</ele>
        <time>2017-06-18T10:42:11Z</time>
      </trkpt>
      <trkpt lat="46.16028" lon="3.43945">
        <ele>385.49</ele>
        <time>2017-06-18T10:42:18Z</time>
      </trkpt>
      <trkpt lat="46.16044" lon="3.43957">
        <ele>385.55</ele>
        <time>2017-06-18T10:42:24Z</time>
      </trkpt>
      <trkpt lat="46.16062" lon="3.43971">
        <ele>384.55</ele>
        <time>2017-06-18T10:42:31Z</time>
      </trkpt>
      <trkpt lat="46.16077" lon="3.43984">
        <ele>385.25</ele>
        <time>2017-06-18T10:42:38Z</time>
      </trkpt>
      <trkpt lat="46.16093" lon="3.44003">
        <ele>388.37</ele>
        <time>2017-06-18T10:42:47Z</time>
      </trkpt>
      <trkpt lat="46.16107" lon="3.44023">
        <ele>389.22</ele>
        <time>2017-06-18T10:42:55Z</time>
      </trkpt>
      <trkpt lat="46.1612" lon="3.44044">
        <ele>388.28</ele>
        <time>2017-06-18T10:43:03Z</time>
      </trkpt>
      <trkpt lat="46.16134" lon="3.44066">
        <ele>389.62</ele>
        <time>2017-06-18T10:43:11Z</time>
      </trkpt>
      <trkpt lat="46.16147" lon="3.44087">
        <ele>387.88</ele>
        <time>2017-06-18T10:43:19Z</time>
      </trkpt>
      <trkpt lat="46.1616" lon="3.44105">
        <ele>388.55</ele>
        <time>2017-06-18T10:43:26Z</time>
      </trkpt>
      <trkpt lat="46.16174" lon="3.44127">
        <ele>390.55</ele>
        <time>2017-06-18T10:43:34Z</time>
      </trkpt>
      <trkpt lat="46.16187" lon="3.44148">
        <ele>391.57</ele>
        <time>2017-06-18T10:43:41Z</time>
      </trkpt>
      <trkpt lat="46.16198" lon="3.44169">
        <ele>393.54</ele>
        <time>2017-06-18T10:43:48Z</time>
      </trkpt>
      <trkpt lat="46.16209" lon="3.44193">
        <ele>392.55</ele>
        <time>2017-06-18T10:43:56Z</time>
      </trkpt>
      <trkpt lat="46.16215" lon="3.44219">
        <ele>393.26</ele>
        <time>2017-06-18T10:44:03Z</time>
      </trkpt>
      <trkpt lat="46.16217" lon="3.44245">
        <ele>394.53</ele>
        <time>2017-06-18T10:44:12Z</time>
      </trkpt>
      <trkpt lat="46.16224" lon="3.44271">
        <ele>394.26</ele>
        <time>2017-06-18T10:44:18Z</time>
      </trkpt>
      <trkpt lat="46.1623" lon="3.44299">
        <ele>394.79</ele>
        <time>2017-06-18T10:44:25Z</time>
      </trkpt>
      <trkpt lat="46.16236" lon="3.44326">
        <ele>393.79</ele>
        <time>2017-06-18T10:44:32Z</time>
      </trkpt>
      <trkpt lat="46.1624" lon="3.44355">
        <ele>392.53</ele>
        <time>2017-06-18T10:44:39Z</time>
      </trkpt>
      <trkpt lat="46.16243" lon="3.4438">
        <ele>393.53</ele>
        <time>2017-06-18T10:44:46Z</time>
      </trkpt>
      <trkpt lat="46.1625" lon="3.44408">
        <ele>393.49</ele>
        <time>2017-06-18T10:44:54Z</time>
      </trkpt>
      <trkpt lat="46.16259" lon="3.44431">
        <ele>393.85</ele>
        <time>2017-06-18T10:45:01Z</time>
      </trkpt>
      <trkpt lat="46.16269" lon="3.44455">
        <ele>393.55</ele>
        <time>2017-06-18T10:45:09Z</time>
      </trkpt>
      <trkpt lat="46.1628" lon="3.44476">
        <ele>394.55</ele>
        <time>2017-06-18T10:45:16Z</time>
      </trkpt>
      <trkpt lat="46.16293" lon="3.44496">
        <ele>395.53</ele>
        <time>2017-06-18T10:45:24Z</time>
      </trkpt>
      <trkpt lat="46.16308" lon="3.44515">
        <ele>397.53</ele>
        <time>2017-06-18T10:45:32Z</time>
      </trkpt>
      <trkpt lat="46.16325" lon="3.44533">
        <ele>399.53</ele>
        <time>2017-06-18T10:45:40Z</time>
      </trkpt>
      <trkpt lat="46.16341" lon="3.4455">
        <ele>398.64</ele>
        <time>2017-06-18T10:45:48Z</time>
      </trkpt>
      <trkpt lat="46.16357" lon="3.44566">
        <ele>396.58</ele>
        <time>2017-06-18T10:45:55Z</time>
      </trkpt>
      <trkpt lat="46.16375" lon="3.4458">
        <ele>395.55</ele>
        <time>2017-06-18T10:46:03Z</time>
      </trkpt>
      <trkpt lat="46.16393" lon="3.44593">
        <ele>394.56</ele>
        <time>2017-06-18T10:46:10Z</time>
      </trkpt>
      <trkpt lat="46.1641" lon="3.44608">
        <ele>392.86</ele>
        <time>2017-06-18T10:46:18Z</time>
      </trkpt>
      <trkpt lat="46.16425" lon="3.44621">
        <ele>393.55</ele>
        <time>2017-06-18T10:46:25Z</time>
      </trkpt>
      <trkpt lat="46.16443" lon="3.44632">
        <ele>394.25</ele>
        <time>2017-06-18T10:46:32Z</time>
      </trkpt>
      <trkpt lat="46.16463" lon="3.44635">
        <ele>394.55</ele>
        <time>2017-06-18T10:46:40Z</time>
      </trkpt>
      <trkpt lat="46.16483" lon="3.44634">
        <ele>395.55</ele>
        <time>2017-06-18T10:46:48Z</time>
      </trkpt>
      <trkpt lat="46.16503" lon="3.44631">
        <ele>395.83</ele>
        <time>2017-06-18T10:46:56Z</time>
      </trkpt>
      <trkpt lat="46.16522" lon="3.4463">
        <ele>394.55</ele>
        <time>2017-06-18T10:47:04Z</time>
      </trkpt>
      <trkpt lat="46.16542" lon="3.44631">
        <ele>393.86</ele>
        <time>2017-06-18T10:47:12Z</time>
      </trkpt>
      <trkpt lat="46.16561" lon="3.44633">
        <ele>391.64</ele>
        <time>2017-06-18T10:47:19Z</time>
      </trkpt>
      <trkpt lat="46.1658" lon="3.4464">
        <ele>391.25</ele>
        <time>2017-06-18T10:47:27Z</time>
      </trkpt>
      <trkpt lat="46.16599" lon="3.44648">
        <ele>387.86</ele>
        <time>2017-06-18T10:47:37Z</time>
      </trkpt>
      <trkpt lat="46.16615" lon="3.44663">
        <ele>385.87</ele>
        <time>2017-06-18T10:47:46Z</time>
      </trkpt>
      <trkpt lat="46.16631" lon="3.44686">
        <ele>382.05</ele>
        <time>2017-06-18T10:47:55Z</time>
      </trkpt>
      <trkpt lat="46.16645" lon="3.44706">
        <ele>378.83</ele>
        <time>2017-06-18T10:48:02Z</time>
      </trkpt>
      <trkpt lat="46.16659" lon="3.44724">
        <ele>375.88</ele>
        <time>2017-06-18T10:48:09Z</time>
      </trkpt>
      <trkpt lat="46.16677" lon="3.44739">
        <ele>373.87</ele>
        <time>2017-06-18T10:48:16Z</time>
      </trkpt>
      <trkpt lat="46.16694" lon="3.44753">
        <ele>372.49</ele>
        <time>2017-06-18T10:48:23Z</time>
      </trkpt>
      <trkpt lat="46.16712" lon="3.44758">
        <ele>369.88</ele>
        <time>2017-06-18T10:48:32Z</time>
      </trkpt>
      <trkpt lat="46.16725" lon="3.44738">
        <ele>369.53</ele>
        <time>2017-06-18T10:48:40Z</time>
      </trkpt>
      <trkpt lat="46.16738" lon="3.44718">
        <ele>371.25</ele>
        <time>2017-06-18T10:48:48Z</time>
      </trkpt>
      <trkpt lat="46.16751" lon="3.44696">
        <ele>374.24</ele>
        <time>2017-06-18T10:48:56Z</time>
      </trkpt>
      <trkpt lat="46.16762" lon="3.44672">
        <ele>375.84</ele>
        <time>2017-06-18T10:49:04Z</time>
      </trkpt>
      <trkpt lat="46.16767" lon="3.44647">
        <ele>375.53</ele>
        <time>2017-06-18T10:49:11Z</time>
      </trkpt>
      <trkpt lat="46.16768" lon="3.44621">
        <ele>375.55</ele>
        <time>2017-06-18T10:49:18Z</time>
      </trkpt>
      <trkpt lat="46.16779" lon="3.44597">
        <ele>374.55</ele>
        <time>2017-06-18T10:49:26Z</time>
      </trkpt>
      <trkpt lat="46.16794" lon="3.44575">
        <ele>371.88</ele>
        <time>2017-06-18T10:49:34Z</time>
      </trkpt>
      <trkpt lat="46.16807" lon="3.44555">
        <ele>372.55</ele>
        <time>2017-06-18T10:49:42Z</time>
      </trkpt>
      <trkpt lat="46.16826" lon="3.44553">
        <ele>366.08</ele>
        <time>2017-06-18T10:49:52Z</time>
      </trkpt>
      <trkpt lat="46.16845" lon="3.44559">
        <ele>363.32</ele>
        <time>2017-06-18T10:50:00Z</time>
      </trkpt>
      <trkpt lat="46.16859" lon="3.44541">
        <ele>363.65</ele>
        <time>2017-06-18T10:50:07Z</time>
      </trkpt>
      <trkpt lat="46.16864" lon="3.44514">
        <ele>366.16</ele>
        <time>2017-06-18T10:50:16Z</time>
      </trkpt>
      <trkpt lat="46.16873" lon="3.44491">
        <ele>367.52</ele>
        <time>2017-06-18T10:50:23Z</time>
      </trkpt>
      <trkpt lat="46.16886" lon="3.4447">
        <ele>367.53</ele>
        <time>2017-06-18T10:50:31Z</time>
      </trkpt>
      <trkpt lat="46.16899" lon="3.44451">
        <ele>368.55</ele>
        <time>2017-06-18T10:50:39Z</time>
      </trkpt>
      <trkpt lat="46.16914" lon="3.44432">
        <ele>369.55</ele>
        <time>2017-06-18T10:50:47Z</time>
      </trkpt>
      <trkpt lat="46.16929" lon="3.44415">
        <ele>368.57</ele>
        <time>2017-06-18T10:50:55Z</time>
      </trkpt>
      <trkpt lat="46.16942" lon="3.44396">
        <ele>367.55</ele>
        <time>2017-06-18T10:51:02Z</time>
      </trkpt>
      <trkpt lat="46.16957" lon="3.44376">
        <ele>365.28</ele>
        <time>2017-06-18T10:51:10Z</time>
      </trkpt>
      <trkpt lat="46.16971" lon="3.44356">
        <ele>362.88</ele>
        <time>2017-06-18T10:51:18Z</time>
      </trkpt>
      <trkpt lat="46.16986" lon="3.44338">
        <ele>362.56</ele>
        <time>2017-06-18T10:51:27Z</time>
      </trkpt>
      <trkpt lat="46.17002" lon="3.44321">
        <ele>363.83</ele>
        <time>2017-06-18T10:51:35Z</time>
      </trkpt>
      <trkpt lat="46.17016" lon="3.44301">
        <ele>358.61</ele>
        <time>2017-06-18T10:51:41Z</time>
      </trkpt>
      <trkpt lat="46.17027" lon="3.4428">
        <ele>359.55</ele>
        <time>2017-06-18T10:51:49Z</time>
      </trkpt>
      <trkpt lat="46.1704" lon="3.44257">
        <ele>357.85</ele>
        <time>2017-06-18T10:51:57Z</time>
      </trkpt>
      <trkpt lat="46.17052" lon="3.44233">
        <ele>355.62</ele>
        <time>2017-06-18T10:52:05Z</time>
      </trkpt>
      <trkpt lat="46.17063" lon="3.4421">
        <ele>358.46</ele>
        <time>2017-06-18T10:52:13Z</time>
      </trkpt>
      <trkpt lat="46.17074" lon="3.44186">
        <ele>358.25</ele>
        <time>2017-06-18T10:52:21Z</time>
      </trkpt>
      <trkpt lat="46.17087" lon="3.44164">
        <ele>355.65</ele>
        <time>2017-06-18T10:52:29Z</time>
      </trkpt>
      <trkpt lat="46.17103" lon="3.4415">
        <ele>357.52</ele>
        <time>2017-06-18T10:52:36Z</time>
      </trkpt>
      <trkpt lat="46.17123" lon="3.4415">
        <ele>360.46</ele>
        <time>2017-06-18T10:52:44Z</time>
      </trkpt>
      <trkpt lat="46.1714" lon="3.44147">
        <ele>354.52</ele>
        <time>2017-06-18T10:52:50Z</time>
      </trkpt>
      <trkpt lat="46.17159" lon="3.44144">
        <ele>349.68</ele>
        <time>2017-06-18T10:52:57Z</time>
      </trkpt>
      <trkpt lat="46.17177" lon="3.44135">
        <ele>350.54</ele>
        <time>2017-06-18T10:53:06Z</time>
      </trkpt>
      <trkpt lat="46.17197" lon="3.44126">
        <ele>352.54</ele>
        <time>2017-06-18T10:53:15Z</time>
      </trkpt>
      <trkpt lat="46.17215" lon="3.4412">
        <ele>350.55</ele>
        <time>2017-06-18T10:53:23Z</time>
      </trkpt>
      <trkpt lat="46.17232" lon="3.44109">
        <ele>347</ele>
        <time>2017-06-18T10:53:31Z</time>
      </trkpt>
      <trkpt lat="46.17245" lon="3.44091">
        <ele>343.76</ele>
        <time>2017-06-18T10:53:39Z</time>
      </trkpt>
      <trkpt lat="46.17241" lon="3.44065">
        <ele>335.79</ele>
        <time>2017-06-18T10:53:54Z</time>
      </trkpt>
      <trkpt lat="46.17235" lon="3.4404">
        <ele>330.85</ele>
        <time>2017-06-18T10:54:01Z</time>
      </trkpt>
      <trkpt lat="46.17242" lon="3.44014">
        <ele>331.55</ele>
        <time>2017-06-18T10:54:09Z</time>
      </trkpt>
      <trkpt lat="46.17257" lon="3.43996">
        <ele>332.74</ele>
        <time>2017-06-18T10:54:16Z</time>
      </trkpt>
      <trkpt lat="46.17276" lon="3.43988">
        <ele>327.65</ele>
        <time>2017-06-18T10:54:24Z</time>
      </trkpt>
      <trkpt lat="46.17295" lon="3.43978">
        <ele>327.63</ele>
        <time>2017-06-18T10:54:32Z</time>
      </trkpt>
      <trkpt lat="46.1731" lon="3.43963">
        <ele>324.95</ele>
        <time>2017-06-18T10:54:39Z</time>
      </trkpt>
      <trkpt lat="46.17322" lon="3.43943">
        <ele>323.43</ele>
        <time>2017-06-18T10:54:46Z</time>
      </trkpt>
      <trkpt lat="46.17328" lon="3.43916">
        <ele>324.54</ele>
        <time>2017-06-18T10:54:54Z</time>
      </trkpt>
      <trkpt lat="46.17333" lon="3.43889">
        <ele>319.65</ele>
        <time>2017-06-18T10:55:01Z</time>
      </trkpt>
      <trkpt lat="46.17339" lon="3.43862">
        <ele>323.46</ele>
        <time>2017-06-18T10:55:09Z</time>
      </trkpt>
      <trkpt lat="46.17344" lon="3.43833">
        <ele>322.85</ele>
        <time>2017-06-18T10:55:17Z</time>
      </trkpt>
      <trkpt lat="46.17343" lon="3.43803">
        <ele>318.3</ele>
        <time>2017-06-18T10:55:25Z</time>
      </trkpt>
      <trkpt lat="46.17336" lon="3.43779">
        <ele>317.57</ele>
        <time>2017-06-18T10:55:33Z</time>
      </trkpt>
      <trkpt lat="46.17324" lon="3.43758">
        <ele>324.54</ele>
        <time>2017-06-18T10:55:43Z</time>
      </trkpt>
      <trkpt lat="46.17314" lon="3.43737">
        <ele>320.26</ele>
        <time>2017-06-18T10:55:50Z</time>
      </trkpt>
      <trkpt lat="46.17303" lon="3.43713">
        <ele>321.51</ele>
        <time>2017-06-18T10:55:58Z</time>
      </trkpt>
      <trkpt lat="46.17294" lon="3.43689">
        <ele>323.62</ele>
        <time>2017-06-18T10:56:06Z</time>
      </trkpt>
      <trkpt lat="46.17282" lon="3.43669">
        <ele>323.58</ele>
        <time>2017-06-18T10:56:13Z</time>
      </trkpt>
      <trkpt lat="46.17265" lon="3.4365">
        <ele>321.58</ele>
        <time>2017-06-18T10:56:20Z</time>
      </trkpt>
      <trkpt lat="46.1725" lon="3.43634">
        <ele>320.28</ele>
        <time>2017-06-18T10:56:28Z</time>
      </trkpt>
      <trkpt lat="46.17239" lon="3.43611">
        <ele>320.64</ele>
        <time>2017-06-18T10:56:37Z</time>
      </trkpt>
      <trkpt lat="46.17246" lon="3.43585">
        <ele>320.55</ele>
        <time>2017-06-18T10:56:47Z</time>
      </trkpt>
      <trkpt lat="46.17255" lon="3.43562">
        <ele>320.46</ele>
        <time>2017-06-18T10:56:55Z</time>
      </trkpt>
      <trkpt lat="46.17265" lon="3.43538">
        <ele>320.58</ele>
        <time>2017-06-18T10:57:03Z</time>
      </trkpt>
      <trkpt lat="46.17274" lon="3.43514">
        <ele>324.22</ele>
        <time>2017-06-18T10:57:11Z</time>
      </trkpt>
      <trkpt lat="46.1727" lon="3.43487">
        <ele>324.94</ele>
        <time>2017-06-18T10:57:19Z</time>
      </trkpt>
      <trkpt lat="46.17252" lon="3.43476">
        <ele>320.59</ele>
        <time>2017-06-18T10:57:26Z</time>
      </trkpt>
      <trkpt lat="46.17234" lon="3.43469">
        <ele>324.54</ele>
        <time>2017-06-18T10:57:36Z</time>
      </trkpt>
      <trkpt lat="46.17219" lon="3.43449">
        <ele>325.85</ele>
        <time>2017-06-18T10:57:44Z</time>
      </trkpt>
      <trkpt lat="46.17217" lon="3.43421">
        <ele>327.23</ele>
        <time>2017-06-18T10:57:53Z</time>
      </trkpt>
      <trkpt lat="46.17211" lon="3.43394">
        <ele>326.54</ele>
        <time>2017-06-18T10:58:01Z</time>
      </trkpt>
      <trkpt lat="46.17203" lon="3.43368">
        <ele>325.64</ele>
        <time>2017-06-18T10:58:08Z</time>
      </trkpt>
      <trkpt lat="46.17195" lon="3.43342">
        <ele>326.55</ele>
        <time>2017-06-18T10:58:15Z</time>
      </trkpt>
      <trkpt lat="46.17193" lon="3.43315">
        <ele>327.55</ele>
        <time>2017-06-18T10:58:22Z</time>
      </trkpt>
      <trkpt lat="46.17201" lon="3.4329">
        <ele>326.55</ele>
        <time>2017-06-18T10:58:30Z</time>
      </trkpt>
      <trkpt lat="46.17208" lon="3.43265">
        <ele>326.55</ele>
        <time>2017-06-18T10:58:39Z</time>
      </trkpt>
      <trkpt lat="46.17194" lon="3.43247">
        <ele>327.34</ele>
        <time>2017-06-18T10:58:47Z</time>
      </trkpt>
      <trkpt lat="46.17179" lon="3.43227">
        <ele>331.44</ele>
        <time>2017-06-18T10:58:56Z</time>
      </trkpt>
      <trkpt lat="46.17163" lon="3.43209">
        <ele>335.14</ele>
        <time>2017-06-18T10:59:04Z</time>
      </trkpt>
      <trkpt lat="46.17145" lon="3.43197">
        <ele>334.37</ele>
        <time>2017-06-18T10:59:11Z</time>
      </trkpt>
      <trkpt lat="46.17127" lon="3.43187">
        <ele>334.24</ele>
        <time>2017-06-18T10:59:19Z</time>
      </trkpt>
      <trkpt lat="46.1711" lon="3.43174">
        <ele>334.55</ele>
        <time>2017-06-18T10:59:26Z</time>
      </trkpt>
      <trkpt lat="46.17093" lon="3.4316">
        <ele>331.88</ele>
        <time>2017-06-18T10:59:34Z</time>
      </trkpt>
      <trkpt lat="46.17078" lon="3.43142">
        <ele>331.56</ele>
        <time>2017-06-18T10:59:41Z</time>
      </trkpt>
      <trkpt lat="46.17064" lon="3.43125">
        <ele>328.95</ele>
        <time>2017-06-18T10:59:48Z</time>
      </trkpt>
      <trkpt lat="46.17047" lon="3.43114">
        <ele>321.67</ele>
        <time>2017-06-18T11:00:03Z</time>
      </trkpt>
    </trkseg>
  </trk>
</gpx>